<?xml version="1.0" encoding="UTF-8" standalone="no" ?>
<gpx xmlns="http://www.topografix.com/GPX/1/1" xmlns:xsi="http://www.w3.org/2001/XMLSchema-instance" xsi:schemaLocation="http://www.topografix.com/GPX/1/1 http://www.topografix.com/GPX/1/1/gpx.xsd" version="1.1" creator="VisuGPX - https://www.visugpx.com">
  <metadata>
    <name>Néoules</name>
    <desc><![CDATA[Boucle au départ de Néoules]]></desc>
  </metadata>
  <trk>
    <name><![CDATA[2019-11-09 Néoules]]></name>
    <trkseg>
      <trkpt lat="43.3094" lon="6.01312">
        <ele>334</ele>
        <time>2019-11-09T07:36:43Z</time>
      </trkpt>
      <trkpt lat="43.30941" lon="6.01312">
        <ele>334</ele>
        <time>2019-11-09T07:36:51Z</time>
      </trkpt>
      <trkpt lat="43.30941" lon="6.01312">
        <ele>334</ele>
        <time>2019-11-09T07:36:52Z</time>
      </trkpt>
      <trkpt lat="43.3094" lon="6.01309">
        <ele>334</ele>
        <time>2019-11-09T07:37:21Z</time>
      </trkpt>
      <trkpt lat="43.3094" lon="6.01308">
        <ele>334</ele>
        <time>2019-11-09T07:38:03Z</time>
      </trkpt>
      <trkpt lat="43.30939" lon="6.01309">
        <ele>334</ele>
        <time>2019-11-09T07:38:42Z</time>
      </trkpt>
      <trkpt lat="43.3094" lon="6.01308">
        <ele>334</ele>
        <time>2019-11-09T07:39:21Z</time>
      </trkpt>
      <trkpt lat="43.30937" lon="6.01311">
        <ele>334</ele>
        <time>2019-11-09T07:40:05Z</time>
      </trkpt>
      <trkpt lat="43.30941" lon="6.01309">
        <ele>334</ele>
        <time>2019-11-09T07:40:37Z</time>
      </trkpt>
      <trkpt lat="43.30939" lon="6.01309">
        <ele>334</ele>
        <time>2019-11-09T07:41:23Z</time>
      </trkpt>
      <trkpt lat="43.30939" lon="6.0131">
        <ele>334</ele>
        <time>2019-11-09T07:42:06Z</time>
      </trkpt>
      <trkpt lat="43.3094" lon="6.0131">
        <ele>334</ele>
        <time>2019-11-09T07:42:47Z</time>
      </trkpt>
      <trkpt lat="43.3094" lon="6.0131">
        <ele>334</ele>
        <time>2019-11-09T07:43:08Z</time>
      </trkpt>
      <trkpt lat="43.3094" lon="6.0131">
        <ele>334</ele>
        <time>2019-11-09T07:43:36Z</time>
      </trkpt>
      <trkpt lat="43.30942" lon="6.01306">
        <ele>334</ele>
        <time>2019-11-09T07:43:59Z</time>
      </trkpt>
      <trkpt lat="43.30944" lon="6.01307">
        <ele>334</ele>
        <time>2019-11-09T07:44:07Z</time>
      </trkpt>
      <trkpt lat="43.30947" lon="6.01308">
        <ele>334</ele>
        <time>2019-11-09T07:44:10Z</time>
      </trkpt>
      <trkpt lat="43.30948" lon="6.0132">
        <ele>334</ele>
        <time>2019-11-09T07:44:18Z</time>
      </trkpt>
      <trkpt lat="43.30941" lon="6.01325">
        <ele>334</ele>
        <time>2019-11-09T07:44:25Z</time>
      </trkpt>
      <trkpt lat="43.30933" lon="6.01331">
        <ele>334</ele>
        <time>2019-11-09T07:44:32Z</time>
      </trkpt>
      <trkpt lat="43.30926" lon="6.01333">
        <ele>334</ele>
        <time>2019-11-09T07:44:47Z</time>
      </trkpt>
      <trkpt lat="43.30924" lon="6.01334">
        <ele>334</ele>
        <time>2019-11-09T07:45:22Z</time>
      </trkpt>
      <trkpt lat="43.30924" lon="6.01335">
        <ele>334</ele>
        <time>2019-11-09T07:45:55Z</time>
      </trkpt>
      <trkpt lat="43.30902" lon="6.01342">
        <ele>334.265625</ele>
        <time>2019-11-09T07:46:03Z</time>
      </trkpt>
      <trkpt lat="43.30892" lon="6.01344">
        <ele>334.51171875</ele>
        <time>2019-11-09T07:46:05Z</time>
      </trkpt>
      <trkpt lat="43.30887" lon="6.01346">
        <ele>334.66015625</ele>
        <time>2019-11-09T07:46:06Z</time>
      </trkpt>
      <trkpt lat="43.30825" lon="6.01366">
        <ele>335.375</ele>
        <time>2019-11-09T07:46:18Z</time>
      </trkpt>
      <trkpt lat="43.3079" lon="6.01398">
        <ele>336.79296875</ele>
        <time>2019-11-09T07:46:30Z</time>
      </trkpt>
      <trkpt lat="43.30772" lon="6.01412">
        <ele>337.23046875</ele>
        <time>2019-11-09T07:46:44Z</time>
      </trkpt>
      <trkpt lat="43.30745" lon="6.01431">
        <ele>338.1171875</ele>
        <time>2019-11-09T07:46:58Z</time>
      </trkpt>
      <trkpt lat="43.30716" lon="6.01449">
        <ele>339.078125</ele>
        <time>2019-11-09T07:47:13Z</time>
      </trkpt>
      <trkpt lat="43.30687" lon="6.01464">
        <ele>340.1640625</ele>
        <time>2019-11-09T07:47:27Z</time>
      </trkpt>
      <trkpt lat="43.30653" lon="6.01487">
        <ele>341.5</ele>
        <time>2019-11-09T07:47:44Z</time>
      </trkpt>
      <trkpt lat="43.30625" lon="6.01505">
        <ele>343.22265625</ele>
        <time>2019-11-09T07:47:57Z</time>
      </trkpt>
      <trkpt lat="43.30592" lon="6.01523">
        <ele>344.72265625</ele>
        <time>2019-11-09T07:48:13Z</time>
      </trkpt>
      <trkpt lat="43.30552" lon="6.01539">
        <ele>347.3125</ele>
        <time>2019-11-09T07:48:31Z</time>
      </trkpt>
      <trkpt lat="43.30544" lon="6.0157">
        <ele>347.87109375</ele>
        <time>2019-11-09T07:48:44Z</time>
      </trkpt>
      <trkpt lat="43.30545" lon="6.01615">
        <ele>347.3984375</ele>
        <time>2019-11-09T07:48:58Z</time>
      </trkpt>
      <trkpt lat="43.30545" lon="6.01636">
        <ele>347.39453125</ele>
        <time>2019-11-09T07:49:03Z</time>
      </trkpt>
      <trkpt lat="43.30544" lon="6.01639">
        <ele>347.4296875</ele>
        <time>2019-11-09T07:49:04Z</time>
      </trkpt>
      <trkpt lat="43.30531" lon="6.01684">
        <ele>347.98046875</ele>
        <time>2019-11-09T07:49:17Z</time>
      </trkpt>
      <trkpt lat="43.30512" lon="6.01741">
        <ele>350.54296875</ele>
        <time>2019-11-09T07:49:32Z</time>
      </trkpt>
      <trkpt lat="43.30516" lon="6.01781">
        <ele>352.453125</ele>
        <time>2019-11-09T07:49:45Z</time>
      </trkpt>
      <trkpt lat="43.30523" lon="6.01815">
        <ele>354.1328125</ele>
        <time>2019-11-09T07:49:56Z</time>
      </trkpt>
      <trkpt lat="43.30524" lon="6.01818">
        <ele>354.32421875</ele>
        <time>2019-11-09T07:49:57Z</time>
      </trkpt>
      <trkpt lat="43.30525" lon="6.01821">
        <ele>354.515625</ele>
        <time>2019-11-09T07:49:58Z</time>
      </trkpt>
      <trkpt lat="43.30541" lon="6.0185">
        <ele>357.53125</ele>
        <time>2019-11-09T07:50:10Z</time>
      </trkpt>
      <trkpt lat="43.30562" lon="6.01873">
        <ele>360.27734375</ele>
        <time>2019-11-09T07:50:22Z</time>
      </trkpt>
      <trkpt lat="43.3057" lon="6.01912">
        <ele>363.69921875</ele>
        <time>2019-11-09T07:50:38Z</time>
      </trkpt>
      <trkpt lat="43.30571" lon="6.01919">
        <ele>364.43359375</ele>
        <time>2019-11-09T07:50:41Z</time>
      </trkpt>
      <trkpt lat="43.30566" lon="6.01951">
        <ele>367.41015625</ele>
        <time>2019-11-09T07:50:55Z</time>
      </trkpt>
      <trkpt lat="43.3056" lon="6.01974">
        <ele>368.96484375</ele>
        <time>2019-11-09T07:51:04Z</time>
      </trkpt>
      <trkpt lat="43.30548" lon="6.02003">
        <ele>370.3203125</ele>
        <time>2019-11-09T07:51:17Z</time>
      </trkpt>
      <trkpt lat="43.30533" lon="6.0204">
        <ele>372.48828125</ele>
        <time>2019-11-09T07:51:33Z</time>
      </trkpt>
      <trkpt lat="43.30516" lon="6.02084">
        <ele>373.7890625</ele>
        <time>2019-11-09T07:51:50Z</time>
      </trkpt>
      <trkpt lat="43.30499" lon="6.0212">
        <ele>372.91015625</ele>
        <time>2019-11-09T07:52:05Z</time>
      </trkpt>
      <trkpt lat="43.3047" lon="6.02144">
        <ele>371.40625</ele>
        <time>2019-11-09T07:52:21Z</time>
      </trkpt>
      <trkpt lat="43.3044" lon="6.02144">
        <ele>373.91015625</ele>
        <time>2019-11-09T07:52:36Z</time>
      </trkpt>
      <trkpt lat="43.30414" lon="6.02145">
        <ele>376.76171875</ele>
        <time>2019-11-09T07:52:50Z</time>
      </trkpt>
      <trkpt lat="43.304" lon="6.02142">
        <ele>378.39453125</ele>
        <time>2019-11-09T07:52:58Z</time>
      </trkpt>
      <trkpt lat="43.30398" lon="6.02142">
        <ele>378.60546875</ele>
        <time>2019-11-09T07:52:59Z</time>
      </trkpt>
      <trkpt lat="43.30396" lon="6.02142">
        <ele>378.8046875</ele>
        <time>2019-11-09T07:53:00Z</time>
      </trkpt>
      <trkpt lat="43.30395" lon="6.02141">
        <ele>378.96484375</ele>
        <time>2019-11-09T07:53:01Z</time>
      </trkpt>
      <trkpt lat="43.30393" lon="6.02141">
        <ele>379.15234375</ele>
        <time>2019-11-09T07:53:02Z</time>
      </trkpt>
      <trkpt lat="43.30391" lon="6.0214">
        <ele>379.3515625</ele>
        <time>2019-11-09T07:53:03Z</time>
      </trkpt>
      <trkpt lat="43.30389" lon="6.0214">
        <ele>379.5625</ele>
        <time>2019-11-09T07:53:04Z</time>
      </trkpt>
      <trkpt lat="43.30387" lon="6.02139">
        <ele>379.78515625</ele>
        <time>2019-11-09T07:53:05Z</time>
      </trkpt>
      <trkpt lat="43.30357" lon="6.02128">
        <ele>383.14453125</ele>
        <time>2019-11-09T07:53:22Z</time>
      </trkpt>
      <trkpt lat="43.30327" lon="6.02123">
        <ele>386.9765625</ele>
        <time>2019-11-09T07:53:39Z</time>
      </trkpt>
      <trkpt lat="43.30302" lon="6.02108">
        <ele>389.11328125</ele>
        <time>2019-11-09T07:53:55Z</time>
      </trkpt>
      <trkpt lat="43.30294" lon="6.02076">
        <ele>387.5390625</ele>
        <time>2019-11-09T07:54:11Z</time>
      </trkpt>
      <trkpt lat="43.30293" lon="6.02058">
        <ele>386.0859375</ele>
        <time>2019-11-09T07:54:19Z</time>
      </trkpt>
      <trkpt lat="43.30292" lon="6.02055">
        <ele>385.94140625</ele>
        <time>2019-11-09T07:54:20Z</time>
      </trkpt>
      <trkpt lat="43.30292" lon="6.02053">
        <ele>385.734375</ele>
        <time>2019-11-09T07:54:21Z</time>
      </trkpt>
      <trkpt lat="43.30292" lon="6.02051">
        <ele>385.51953125</ele>
        <time>2019-11-09T07:54:22Z</time>
      </trkpt>
      <trkpt lat="43.30292" lon="6.02049">
        <ele>385.50390625</ele>
        <time>2019-11-09T07:54:23Z</time>
      </trkpt>
      <trkpt lat="43.30284" lon="6.02008">
        <ele>387.6328125</ele>
        <time>2019-11-09T07:54:40Z</time>
      </trkpt>
      <trkpt lat="43.30272" lon="6.01978">
        <ele>390.5625</ele>
        <time>2019-11-09T07:54:55Z</time>
      </trkpt>
      <trkpt lat="43.30258" lon="6.0195">
        <ele>394.24609375</ele>
        <time>2019-11-09T07:55:10Z</time>
      </trkpt>
      <trkpt lat="43.30247" lon="6.01914">
        <ele>397.0078125</ele>
        <time>2019-11-09T07:55:28Z</time>
      </trkpt>
      <trkpt lat="43.30247" lon="6.0188">
        <ele>400.19140625</ele>
        <time>2019-11-09T07:55:42Z</time>
      </trkpt>
      <trkpt lat="43.30237" lon="6.01867">
        <ele>404.06640625</ele>
        <time>2019-11-09T07:55:55Z</time>
      </trkpt>
      <trkpt lat="43.30227" lon="6.01897">
        <ele>403.0703125</ele>
        <time>2019-11-09T07:56:09Z</time>
      </trkpt>
      <trkpt lat="43.30229" lon="6.01928">
        <ele>401.44140625</ele>
        <time>2019-11-09T07:56:24Z</time>
      </trkpt>
      <trkpt lat="43.3022" lon="6.01958">
        <ele>404.44921875</ele>
        <time>2019-11-09T07:56:40Z</time>
      </trkpt>
      <trkpt lat="43.30202" lon="6.01984">
        <ele>409.34375</ele>
        <time>2019-11-09T07:56:57Z</time>
      </trkpt>
      <trkpt lat="43.30193" lon="6.02012">
        <ele>411.41796875</ele>
        <time>2019-11-09T07:57:11Z</time>
      </trkpt>
      <trkpt lat="43.30191" lon="6.02047">
        <ele>411.9296875</ele>
        <time>2019-11-09T07:57:27Z</time>
      </trkpt>
      <trkpt lat="43.3019" lon="6.02063">
        <ele>411.765625</ele>
        <time>2019-11-09T07:57:34Z</time>
      </trkpt>
      <trkpt lat="43.3019" lon="6.02065">
        <ele>411.859375</ele>
        <time>2019-11-09T07:57:35Z</time>
      </trkpt>
      <trkpt lat="43.30189" lon="6.02068">
        <ele>411.89453125</ele>
        <time>2019-11-09T07:57:36Z</time>
      </trkpt>
      <trkpt lat="43.30185" lon="6.02102">
        <ele>412.55078125</ele>
        <time>2019-11-09T07:57:52Z</time>
      </trkpt>
      <trkpt lat="43.30172" lon="6.02133">
        <ele>415.9453125</ele>
        <time>2019-11-09T07:58:08Z</time>
      </trkpt>
      <trkpt lat="43.30155" lon="6.02156">
        <ele>420.046875</ele>
        <time>2019-11-09T07:58:22Z</time>
      </trkpt>
      <trkpt lat="43.30142" lon="6.02177">
        <ele>423.26171875</ele>
        <time>2019-11-09T07:58:38Z</time>
      </trkpt>
      <trkpt lat="43.3014" lon="6.02178">
        <ele>423.5390625</ele>
        <time>2019-11-09T07:58:42Z</time>
      </trkpt>
      <trkpt lat="43.30123" lon="6.02207">
        <ele>428.91015625</ele>
        <time>2019-11-09T07:58:59Z</time>
      </trkpt>
      <trkpt lat="43.30107" lon="6.02234">
        <ele>433.35546875</ele>
        <time>2019-11-09T07:59:15Z</time>
      </trkpt>
      <trkpt lat="43.30092" lon="6.02257">
        <ele>436.95703125</ele>
        <time>2019-11-09T07:59:29Z</time>
      </trkpt>
      <trkpt lat="43.30079" lon="6.02286">
        <ele>441.125</ele>
        <time>2019-11-09T07:59:45Z</time>
      </trkpt>
      <trkpt lat="43.30089" lon="6.02314">
        <ele>445.1796875</ele>
        <time>2019-11-09T07:59:59Z</time>
      </trkpt>
      <trkpt lat="43.3011" lon="6.02317">
        <ele>446.13671875</ele>
        <time>2019-11-09T08:00:11Z</time>
      </trkpt>
      <trkpt lat="43.30114" lon="6.02321">
        <ele>446.90234375</ele>
        <time>2019-11-09T08:00:14Z</time>
      </trkpt>
      <trkpt lat="43.30114" lon="6.02324">
        <ele>447.3515625</ele>
        <time>2019-11-09T08:00:15Z</time>
      </trkpt>
      <trkpt lat="43.30113" lon="6.02326">
        <ele>447.70703125</ele>
        <time>2019-11-09T08:00:16Z</time>
      </trkpt>
      <trkpt lat="43.30112" lon="6.02327">
        <ele>447.98828125</ele>
        <time>2019-11-09T08:00:17Z</time>
      </trkpt>
      <trkpt lat="43.30111" lon="6.02329">
        <ele>448.1484375</ele>
        <time>2019-11-09T08:00:18Z</time>
      </trkpt>
      <trkpt lat="43.30109" lon="6.0233">
        <ele>448.24609375</ele>
        <time>2019-11-09T08:00:19Z</time>
      </trkpt>
      <trkpt lat="43.30108" lon="6.0233">
        <ele>448.2890625</ele>
        <time>2019-11-09T08:00:20Z</time>
      </trkpt>
      <trkpt lat="43.30106" lon="6.02331">
        <ele>448.3359375</ele>
        <time>2019-11-09T08:00:21Z</time>
      </trkpt>
      <trkpt lat="43.30105" lon="6.02332">
        <ele>448.44921875</ele>
        <time>2019-11-09T08:00:22Z</time>
      </trkpt>
      <trkpt lat="43.3008" lon="6.02348">
        <ele>450.41796875</ele>
        <time>2019-11-09T08:00:38Z</time>
      </trkpt>
      <trkpt lat="43.30062" lon="6.02359">
        <ele>450.8828125</ele>
        <time>2019-11-09T08:00:50Z</time>
      </trkpt>
      <trkpt lat="43.30039" lon="6.02371">
        <ele>451.88671875</ele>
        <time>2019-11-09T08:01:05Z</time>
      </trkpt>
      <trkpt lat="43.30009" lon="6.02387">
        <ele>451.8125</ele>
        <time>2019-11-09T08:01:23Z</time>
      </trkpt>
      <trkpt lat="43.29978" lon="6.02395">
        <ele>453.58984375</ele>
        <time>2019-11-09T08:01:42Z</time>
      </trkpt>
      <trkpt lat="43.29951" lon="6.02418">
        <ele>455.29296875</ele>
        <time>2019-11-09T08:01:59Z</time>
      </trkpt>
      <trkpt lat="43.29936" lon="6.02463">
        <ele>453.95703125</ele>
        <time>2019-11-09T08:02:16Z</time>
      </trkpt>
      <trkpt lat="43.29907" lon="6.02499">
        <ele>452.8671875</ele>
        <time>2019-11-09T08:02:33Z</time>
      </trkpt>
      <trkpt lat="43.29886" lon="6.02515">
        <ele>454.14453125</ele>
        <time>2019-11-09T08:02:44Z</time>
      </trkpt>
      <trkpt lat="43.29857" lon="6.02523">
        <ele>457.4140625</ele>
        <time>2019-11-09T08:02:59Z</time>
      </trkpt>
      <trkpt lat="43.29825" lon="6.02521">
        <ele>460.66796875</ele>
        <time>2019-11-09T08:03:15Z</time>
      </trkpt>
      <trkpt lat="43.2979" lon="6.02519">
        <ele>462.91796875</ele>
        <time>2019-11-09T08:03:34Z</time>
      </trkpt>
      <trkpt lat="43.29787" lon="6.02518">
        <ele>463.15234375</ele>
        <time>2019-11-09T08:03:36Z</time>
      </trkpt>
      <trkpt lat="43.29785" lon="6.02518">
        <ele>463.19140625</ele>
        <time>2019-11-09T08:03:37Z</time>
      </trkpt>
      <trkpt lat="43.29783" lon="6.02518">
        <ele>463.26953125</ele>
        <time>2019-11-09T08:03:38Z</time>
      </trkpt>
      <trkpt lat="43.29781" lon="6.02518">
        <ele>463.34375</ele>
        <time>2019-11-09T08:03:39Z</time>
      </trkpt>
      <trkpt lat="43.29779" lon="6.02518">
        <ele>463.4140625</ele>
        <time>2019-11-09T08:03:40Z</time>
      </trkpt>
      <trkpt lat="43.29753" lon="6.02515">
        <ele>464.9453125</ele>
        <time>2019-11-09T08:03:55Z</time>
      </trkpt>
      <trkpt lat="43.29726" lon="6.02496">
        <ele>468.7109375</ele>
        <time>2019-11-09T08:04:11Z</time>
      </trkpt>
      <trkpt lat="43.29702" lon="6.02464">
        <ele>472.71875</ele>
        <time>2019-11-09T08:04:28Z</time>
      </trkpt>
      <trkpt lat="43.29681" lon="6.02442">
        <ele>474.9453125</ele>
        <time>2019-11-09T08:04:42Z</time>
      </trkpt>
      <trkpt lat="43.29656" lon="6.02414">
        <ele>476.21484375</ele>
        <time>2019-11-09T08:04:59Z</time>
      </trkpt>
      <trkpt lat="43.2963" lon="6.02387">
        <ele>477.37109375</ele>
        <time>2019-11-09T08:05:15Z</time>
      </trkpt>
      <trkpt lat="43.29617" lon="6.02348">
        <ele>481.35546875</ele>
        <time>2019-11-09T08:05:33Z</time>
      </trkpt>
      <trkpt lat="43.29609" lon="6.02307">
        <ele>484.1171875</ele>
        <time>2019-11-09T08:05:48Z</time>
      </trkpt>
      <trkpt lat="43.29589" lon="6.02264">
        <ele>485.27734375</ele>
        <time>2019-11-09T08:06:06Z</time>
      </trkpt>
      <trkpt lat="43.29561" lon="6.02238">
        <ele>486.2890625</ele>
        <time>2019-11-09T08:06:23Z</time>
      </trkpt>
      <trkpt lat="43.29523" lon="6.02226">
        <ele>486.8671875</ele>
        <time>2019-11-09T08:06:42Z</time>
      </trkpt>
      <trkpt lat="43.29499" lon="6.02222">
        <ele>488.375</ele>
        <time>2019-11-09T08:06:55Z</time>
      </trkpt>
      <trkpt lat="43.29466" lon="6.02226">
        <ele>490.3984375</ele>
        <time>2019-11-09T08:07:12Z</time>
      </trkpt>
      <trkpt lat="43.29435" lon="6.02241">
        <ele>491.87109375</ele>
        <time>2019-11-09T08:07:29Z</time>
      </trkpt>
      <trkpt lat="43.29402" lon="6.02252">
        <ele>495.86328125</ele>
        <time>2019-11-09T08:07:46Z</time>
      </trkpt>
      <trkpt lat="43.2937" lon="6.02258">
        <ele>499.98046875</ele>
        <time>2019-11-09T08:08:02Z</time>
      </trkpt>
      <trkpt lat="43.29342" lon="6.02264">
        <ele>503.13671875</ele>
        <time>2019-11-09T08:08:16Z</time>
      </trkpt>
      <trkpt lat="43.29314" lon="6.02266">
        <ele>506.02734375</ele>
        <time>2019-11-09T08:08:31Z</time>
      </trkpt>
      <trkpt lat="43.29286" lon="6.02261">
        <ele>508.42578125</ele>
        <time>2019-11-09T08:08:46Z</time>
      </trkpt>
      <trkpt lat="43.29259" lon="6.02256">
        <ele>510.76953125</ele>
        <time>2019-11-09T08:09:01Z</time>
      </trkpt>
      <trkpt lat="43.29242" lon="6.02251">
        <ele>511.9765625</ele>
        <time>2019-11-09T08:09:13Z</time>
      </trkpt>
      <trkpt lat="43.29241" lon="6.02249">
        <ele>511.93359375</ele>
        <time>2019-11-09T08:09:14Z</time>
      </trkpt>
      <trkpt lat="43.29241" lon="6.02246">
        <ele>511.828125</ele>
        <time>2019-11-09T08:09:15Z</time>
      </trkpt>
      <trkpt lat="43.29241" lon="6.02244">
        <ele>511.74609375</ele>
        <time>2019-11-09T08:09:16Z</time>
      </trkpt>
      <trkpt lat="43.2924" lon="6.02241">
        <ele>511.76953125</ele>
        <time>2019-11-09T08:09:17Z</time>
      </trkpt>
      <trkpt lat="43.29239" lon="6.02239">
        <ele>511.80859375</ele>
        <time>2019-11-09T08:09:18Z</time>
      </trkpt>
      <trkpt lat="43.29238" lon="6.02237">
        <ele>511.83203125</ele>
        <time>2019-11-09T08:09:19Z</time>
      </trkpt>
      <trkpt lat="43.29237" lon="6.02235">
        <ele>511.84375</ele>
        <time>2019-11-09T08:09:20Z</time>
      </trkpt>
      <trkpt lat="43.29238" lon="6.02193">
        <ele>511.52734375</ele>
        <time>2019-11-09T08:09:30Z</time>
      </trkpt>
      <trkpt lat="43.29236" lon="6.02178">
        <ele>511.8125</ele>
        <time>2019-11-09T08:09:33Z</time>
      </trkpt>
      <trkpt lat="43.29232" lon="6.02167">
        <ele>511.75</ele>
        <time>2019-11-09T08:09:35Z</time>
      </trkpt>
      <trkpt lat="43.29229" lon="6.02161">
        <ele>511.66015625</ele>
        <time>2019-11-09T08:09:36Z</time>
      </trkpt>
      <trkpt lat="43.29228" lon="6.02154">
        <ele>511.51171875</ele>
        <time>2019-11-09T08:09:37Z</time>
      </trkpt>
      <trkpt lat="43.29227" lon="6.02146">
        <ele>511.484375</ele>
        <time>2019-11-09T08:09:38Z</time>
      </trkpt>
      <trkpt lat="43.29227" lon="6.02138">
        <ele>511.50390625</ele>
        <time>2019-11-09T08:09:39Z</time>
      </trkpt>
      <trkpt lat="43.29227" lon="6.0213">
        <ele>511.4765625</ele>
        <time>2019-11-09T08:09:40Z</time>
      </trkpt>
      <trkpt lat="43.29229" lon="6.02122">
        <ele>511.44921875</ele>
        <time>2019-11-09T08:09:41Z</time>
      </trkpt>
      <trkpt lat="43.29231" lon="6.02116">
        <ele>511.65625</ele>
        <time>2019-11-09T08:09:42Z</time>
      </trkpt>
      <trkpt lat="43.29249" lon="6.02073">
        <ele>513.375</ele>
        <time>2019-11-09T08:09:52Z</time>
      </trkpt>
      <trkpt lat="43.29253" lon="6.02025">
        <ele>513.5859375</ele>
        <time>2019-11-09T08:10:03Z</time>
      </trkpt>
      <trkpt lat="43.29254" lon="6.02021">
        <ele>513.7265625</ele>
        <time>2019-11-09T08:10:04Z</time>
      </trkpt>
      <trkpt lat="43.29253" lon="6.02017">
        <ele>513.58984375</ele>
        <time>2019-11-09T08:10:05Z</time>
      </trkpt>
      <trkpt lat="43.29252" lon="6.02014">
        <ele>513.37109375</ele>
        <time>2019-11-09T08:10:06Z</time>
      </trkpt>
      <trkpt lat="43.29252" lon="6.02011">
        <ele>513.171875</ele>
        <time>2019-11-09T08:10:07Z</time>
      </trkpt>
      <trkpt lat="43.29251" lon="6.02008">
        <ele>512.96875</ele>
        <time>2019-11-09T08:10:08Z</time>
      </trkpt>
      <trkpt lat="43.2925" lon="6.02006">
        <ele>512.7265625</ele>
        <time>2019-11-09T08:10:09Z</time>
      </trkpt>
      <trkpt lat="43.29248" lon="6.02004">
        <ele>512.37890625</ele>
        <time>2019-11-09T08:10:10Z</time>
      </trkpt>
      <trkpt lat="43.29245" lon="6.02003">
        <ele>511.94921875</ele>
        <time>2019-11-09T08:10:11Z</time>
      </trkpt>
      <trkpt lat="43.29242" lon="6.02002">
        <ele>511.40234375</ele>
        <time>2019-11-09T08:10:12Z</time>
      </trkpt>
      <trkpt lat="43.29239" lon="6.02">
        <ele>510.8125</ele>
        <time>2019-11-09T08:10:13Z</time>
      </trkpt>
      <trkpt lat="43.29219" lon="6.01981">
        <ele>508.33203125</ele>
        <time>2019-11-09T08:10:19Z</time>
      </trkpt>
      <trkpt lat="43.29216" lon="6.01975">
        <ele>508.35546875</ele>
        <time>2019-11-09T08:10:20Z</time>
      </trkpt>
      <trkpt lat="43.29212" lon="6.01961">
        <ele>508.49609375</ele>
        <time>2019-11-09T08:10:22Z</time>
      </trkpt>
      <trkpt lat="43.29209" lon="6.01947">
        <ele>508.6171875</ele>
        <time>2019-11-09T08:10:24Z</time>
      </trkpt>
      <trkpt lat="43.29206" lon="6.01942">
        <ele>508.390625</ele>
        <time>2019-11-09T08:10:25Z</time>
      </trkpt>
      <trkpt lat="43.29203" lon="6.0194">
        <ele>508.06640625</ele>
        <time>2019-11-09T08:10:26Z</time>
      </trkpt>
      <trkpt lat="43.29201" lon="6.0194">
        <ele>507.73046875</ele>
        <time>2019-11-09T08:10:27Z</time>
      </trkpt>
      <trkpt lat="43.29199" lon="6.01939">
        <ele>507.44140625</ele>
        <time>2019-11-09T08:10:28Z</time>
      </trkpt>
      <trkpt lat="43.29196" lon="6.01936">
        <ele>507.19921875</ele>
        <time>2019-11-09T08:10:29Z</time>
      </trkpt>
      <trkpt lat="43.29191" lon="6.01934">
        <ele>506.8671875</ele>
        <time>2019-11-09T08:10:31Z</time>
      </trkpt>
      <trkpt lat="43.29188" lon="6.01934">
        <ele>506.66015625</ele>
        <time>2019-11-09T08:10:32Z</time>
      </trkpt>
      <trkpt lat="43.29185" lon="6.01934">
        <ele>506.4609375</ele>
        <time>2019-11-09T08:10:33Z</time>
      </trkpt>
      <trkpt lat="43.29182" lon="6.01933">
        <ele>506.2734375</ele>
        <time>2019-11-09T08:10:34Z</time>
      </trkpt>
      <trkpt lat="43.2918" lon="6.01931">
        <ele>506.13671875</ele>
        <time>2019-11-09T08:10:35Z</time>
      </trkpt>
      <trkpt lat="43.29178" lon="6.01929">
        <ele>506.05078125</ele>
        <time>2019-11-09T08:10:36Z</time>
      </trkpt>
      <trkpt lat="43.29175" lon="6.01927">
        <ele>505.9609375</ele>
        <time>2019-11-09T08:10:37Z</time>
      </trkpt>
      <trkpt lat="43.29172" lon="6.01925">
        <ele>505.84375</ele>
        <time>2019-11-09T08:10:38Z</time>
      </trkpt>
      <trkpt lat="43.29169" lon="6.01922">
        <ele>505.703125</ele>
        <time>2019-11-09T08:10:39Z</time>
      </trkpt>
      <trkpt lat="43.29166" lon="6.01919">
        <ele>505.6015625</ele>
        <time>2019-11-09T08:10:40Z</time>
      </trkpt>
      <trkpt lat="43.29163" lon="6.01914">
        <ele>505.5625</ele>
        <time>2019-11-09T08:10:41Z</time>
      </trkpt>
      <trkpt lat="43.29161" lon="6.01909">
        <ele>505.5390625</ele>
        <time>2019-11-09T08:10:42Z</time>
      </trkpt>
      <trkpt lat="43.29159" lon="6.01904">
        <ele>505.51171875</ele>
        <time>2019-11-09T08:10:43Z</time>
      </trkpt>
      <trkpt lat="43.29156" lon="6.01898">
        <ele>505.45703125</ele>
        <time>2019-11-09T08:10:44Z</time>
      </trkpt>
      <trkpt lat="43.29125" lon="6.0182">
        <ele>504.36328125</ele>
        <time>2019-11-09T08:10:54Z</time>
      </trkpt>
      <trkpt lat="43.29114" lon="6.01792">
        <ele>502.2421875</ele>
        <time>2019-11-09T08:10:58Z</time>
      </trkpt>
      <trkpt lat="43.29103" lon="6.01765">
        <ele>501.51171875</ele>
        <time>2019-11-09T08:11:02Z</time>
      </trkpt>
      <trkpt lat="43.29098" lon="6.01751">
        <ele>501.30078125</ele>
        <time>2019-11-09T08:11:04Z</time>
      </trkpt>
      <trkpt lat="43.29096" lon="6.01743">
        <ele>501.21484375</ele>
        <time>2019-11-09T08:11:05Z</time>
      </trkpt>
      <trkpt lat="43.29094" lon="6.01735">
        <ele>501.0546875</ele>
        <time>2019-11-09T08:11:06Z</time>
      </trkpt>
      <trkpt lat="43.29094" lon="6.01728">
        <ele>500.984375</ele>
        <time>2019-11-09T08:11:07Z</time>
      </trkpt>
      <trkpt lat="43.29094" lon="6.01721">
        <ele>500.9765625</ele>
        <time>2019-11-09T08:11:08Z</time>
      </trkpt>
      <trkpt lat="43.29093" lon="6.01714">
        <ele>500.83984375</ele>
        <time>2019-11-09T08:11:09Z</time>
      </trkpt>
      <trkpt lat="43.29092" lon="6.01707">
        <ele>500.47265625</ele>
        <time>2019-11-09T08:11:10Z</time>
      </trkpt>
      <trkpt lat="43.29091" lon="6.01701">
        <ele>500.125</ele>
        <time>2019-11-09T08:11:11Z</time>
      </trkpt>
      <trkpt lat="43.29091" lon="6.01694">
        <ele>499.87109375</ele>
        <time>2019-11-09T08:11:12Z</time>
      </trkpt>
      <trkpt lat="43.29091" lon="6.01688">
        <ele>499.62890625</ele>
        <time>2019-11-09T08:11:13Z</time>
      </trkpt>
      <trkpt lat="43.2909" lon="6.01681">
        <ele>499.34375</ele>
        <time>2019-11-09T08:11:14Z</time>
      </trkpt>
      <trkpt lat="43.2909" lon="6.01675">
        <ele>499.0234375</ele>
        <time>2019-11-09T08:11:15Z</time>
      </trkpt>
      <trkpt lat="43.29089" lon="6.01662">
        <ele>498.51953125</ele>
        <time>2019-11-09T08:11:18Z</time>
      </trkpt>
      <trkpt lat="43.29086" lon="6.01645">
        <ele>497.5703125</ele>
        <time>2019-11-09T08:11:29Z</time>
      </trkpt>
      <trkpt lat="43.29086" lon="6.01646">
        <ele>497.5546875</ele>
        <time>2019-11-09T08:11:59Z</time>
      </trkpt>
      <trkpt lat="43.29085" lon="6.01645">
        <ele>497.4765625</ele>
        <time>2019-11-09T08:12:31Z</time>
      </trkpt>
      <trkpt lat="43.29087" lon="6.01643">
        <ele>497.546875</ele>
        <time>2019-11-09T08:13:17Z</time>
      </trkpt>
      <trkpt lat="43.29087" lon="6.01645">
        <ele>497.6328125</ele>
        <time>2019-11-09T08:13:49Z</time>
      </trkpt>
      <trkpt lat="43.29087" lon="6.01645">
        <ele>497.625</ele>
        <time>2019-11-09T08:14:27Z</time>
      </trkpt>
      <trkpt lat="43.2909" lon="6.01635">
        <ele>497.4296875</ele>
        <time>2019-11-09T08:14:45Z</time>
      </trkpt>
      <trkpt lat="43.29099" lon="6.0161">
        <ele>495.8828125</ele>
        <time>2019-11-09T08:14:52Z</time>
      </trkpt>
      <trkpt lat="43.29103" lon="6.01606">
        <ele>495.7109375</ele>
        <time>2019-11-09T08:14:53Z</time>
      </trkpt>
      <trkpt lat="43.29106" lon="6.01602">
        <ele>495.4375</ele>
        <time>2019-11-09T08:14:54Z</time>
      </trkpt>
      <trkpt lat="43.2911" lon="6.01598">
        <ele>495.16796875</ele>
        <time>2019-11-09T08:14:55Z</time>
      </trkpt>
      <trkpt lat="43.29114" lon="6.01596">
        <ele>495.16015625</ele>
        <time>2019-11-09T08:14:56Z</time>
      </trkpt>
      <trkpt lat="43.29118" lon="6.01595">
        <ele>495.4921875</ele>
        <time>2019-11-09T08:14:57Z</time>
      </trkpt>
      <trkpt lat="43.29122" lon="6.01596">
        <ele>495.9140625</ele>
        <time>2019-11-09T08:14:58Z</time>
      </trkpt>
      <trkpt lat="43.29125" lon="6.01595">
        <ele>496.25390625</ele>
        <time>2019-11-09T08:14:59Z</time>
      </trkpt>
      <trkpt lat="43.29142" lon="6.01588">
        <ele>497.328125</ele>
        <time>2019-11-09T08:15:04Z</time>
      </trkpt>
      <trkpt lat="43.29145" lon="6.01585">
        <ele>497.36328125</ele>
        <time>2019-11-09T08:15:05Z</time>
      </trkpt>
      <trkpt lat="43.29149" lon="6.01582">
        <ele>497.52734375</ele>
        <time>2019-11-09T08:15:06Z</time>
      </trkpt>
      <trkpt lat="43.29153" lon="6.01581">
        <ele>497.87890625</ele>
        <time>2019-11-09T08:15:07Z</time>
      </trkpt>
      <trkpt lat="43.29158" lon="6.01581">
        <ele>498.30078125</ele>
        <time>2019-11-09T08:15:08Z</time>
      </trkpt>
      <trkpt lat="43.29167" lon="6.01579">
        <ele>499.0546875</ele>
        <time>2019-11-09T08:15:10Z</time>
      </trkpt>
      <trkpt lat="43.29171" lon="6.01576">
        <ele>499.19921875</ele>
        <time>2019-11-09T08:15:11Z</time>
      </trkpt>
      <trkpt lat="43.29175" lon="6.01572">
        <ele>499.1015625</ele>
        <time>2019-11-09T08:15:12Z</time>
      </trkpt>
      <trkpt lat="43.29178" lon="6.01566">
        <ele>498.7890625</ele>
        <time>2019-11-09T08:15:13Z</time>
      </trkpt>
      <trkpt lat="43.2918" lon="6.01561">
        <ele>498.484375</ele>
        <time>2019-11-09T08:15:14Z</time>
      </trkpt>
      <trkpt lat="43.29184" lon="6.01557">
        <ele>498.4296875</ele>
        <time>2019-11-09T08:15:15Z</time>
      </trkpt>
      <trkpt lat="43.29187" lon="6.01554">
        <ele>498.55078125</ele>
        <time>2019-11-09T08:15:16Z</time>
      </trkpt>
      <trkpt lat="43.29192" lon="6.01552">
        <ele>498.71875</ele>
        <time>2019-11-09T08:15:17Z</time>
      </trkpt>
      <trkpt lat="43.29195" lon="6.01548">
        <ele>498.7734375</ele>
        <time>2019-11-09T08:15:18Z</time>
      </trkpt>
      <trkpt lat="43.29199" lon="6.01544">
        <ele>498.62109375</ele>
        <time>2019-11-09T08:15:19Z</time>
      </trkpt>
      <trkpt lat="43.29201" lon="6.01538">
        <ele>498.21484375</ele>
        <time>2019-11-09T08:15:20Z</time>
      </trkpt>
      <trkpt lat="43.29205" lon="6.01531">
        <ele>497.74609375</ele>
        <time>2019-11-09T08:15:21Z</time>
      </trkpt>
      <trkpt lat="43.29209" lon="6.01525">
        <ele>497.3046875</ele>
        <time>2019-11-09T08:15:22Z</time>
      </trkpt>
      <trkpt lat="43.29218" lon="6.01514">
        <ele>496.41015625</ele>
        <time>2019-11-09T08:15:24Z</time>
      </trkpt>
      <trkpt lat="43.29224" lon="6.01508">
        <ele>496.00390625</ele>
        <time>2019-11-09T08:15:25Z</time>
      </trkpt>
      <trkpt lat="43.2924" lon="6.01497">
        <ele>495.51171875</ele>
        <time>2019-11-09T08:15:28Z</time>
      </trkpt>
      <trkpt lat="43.29246" lon="6.01495">
        <ele>495.640625</ele>
        <time>2019-11-09T08:15:29Z</time>
      </trkpt>
      <trkpt lat="43.29253" lon="6.01493">
        <ele>495.90234375</ele>
        <time>2019-11-09T08:15:30Z</time>
      </trkpt>
      <trkpt lat="43.29276" lon="6.01491">
        <ele>496.53515625</ele>
        <time>2019-11-09T08:15:34Z</time>
      </trkpt>
      <trkpt lat="43.29282" lon="6.01489">
        <ele>496.5625</ele>
        <time>2019-11-09T08:15:35Z</time>
      </trkpt>
      <trkpt lat="43.2932" lon="6.01483">
        <ele>497.3984375</ele>
        <time>2019-11-09T08:15:41Z</time>
      </trkpt>
      <trkpt lat="43.29326" lon="6.01484">
        <ele>497.8125</ele>
        <time>2019-11-09T08:15:42Z</time>
      </trkpt>
      <trkpt lat="43.29332" lon="6.01485">
        <ele>498.19140625</ele>
        <time>2019-11-09T08:15:43Z</time>
      </trkpt>
      <trkpt lat="43.29337" lon="6.01486">
        <ele>498.44921875</ele>
        <time>2019-11-09T08:15:44Z</time>
      </trkpt>
      <trkpt lat="43.29343" lon="6.01485">
        <ele>498.62890625</ele>
        <time>2019-11-09T08:15:45Z</time>
      </trkpt>
      <trkpt lat="43.29349" lon="6.01485">
        <ele>498.7890625</ele>
        <time>2019-11-09T08:15:46Z</time>
      </trkpt>
      <trkpt lat="43.29365" lon="6.01483">
        <ele>499.25</ele>
        <time>2019-11-09T08:15:49Z</time>
      </trkpt>
      <trkpt lat="43.29369" lon="6.01481">
        <ele>499.25</ele>
        <time>2019-11-09T08:15:50Z</time>
      </trkpt>
      <trkpt lat="43.29373" lon="6.01477">
        <ele>499.14453125</ele>
        <time>2019-11-09T08:15:51Z</time>
      </trkpt>
      <trkpt lat="43.29377" lon="6.01473">
        <ele>499</ele>
        <time>2019-11-09T08:15:52Z</time>
      </trkpt>
      <trkpt lat="43.29381" lon="6.01469">
        <ele>498.828125</ele>
        <time>2019-11-09T08:15:53Z</time>
      </trkpt>
      <trkpt lat="43.29384" lon="6.01464">
        <ele>498.68359375</ele>
        <time>2019-11-09T08:15:54Z</time>
      </trkpt>
      <trkpt lat="43.29386" lon="6.01459">
        <ele>498.56640625</ele>
        <time>2019-11-09T08:15:55Z</time>
      </trkpt>
      <trkpt lat="43.29387" lon="6.01453">
        <ele>498.40625</ele>
        <time>2019-11-09T08:15:56Z</time>
      </trkpt>
      <trkpt lat="43.29388" lon="6.01447">
        <ele>498.2265625</ele>
        <time>2019-11-09T08:15:57Z</time>
      </trkpt>
      <trkpt lat="43.29388" lon="6.01441">
        <ele>498.0078125</ele>
        <time>2019-11-09T08:15:58Z</time>
      </trkpt>
      <trkpt lat="43.29387" lon="6.01436">
        <ele>497.87890625</ele>
        <time>2019-11-09T08:15:59Z</time>
      </trkpt>
      <trkpt lat="43.29386" lon="6.0143">
        <ele>497.8125</ele>
        <time>2019-11-09T08:16:00Z</time>
      </trkpt>
      <trkpt lat="43.29398" lon="6.01366">
        <ele>498.11328125</ele>
        <time>2019-11-09T08:16:12Z</time>
      </trkpt>
      <trkpt lat="43.29401" lon="6.01362">
        <ele>498.0859375</ele>
        <time>2019-11-09T08:16:13Z</time>
      </trkpt>
      <trkpt lat="43.29419" lon="6.01347">
        <ele>498.03125</ele>
        <time>2019-11-09T08:16:23Z</time>
      </trkpt>
      <trkpt lat="43.29447" lon="6.01323">
        <ele>498.109375</ele>
        <time>2019-11-09T08:16:40Z</time>
      </trkpt>
      <trkpt lat="43.29453" lon="6.01312">
        <ele>498.51171875</ele>
        <time>2019-11-09T08:16:46Z</time>
      </trkpt>
      <trkpt lat="43.29453" lon="6.0131">
        <ele>498.578125</ele>
        <time>2019-11-09T08:16:47Z</time>
      </trkpt>
      <trkpt lat="43.29454" lon="6.01308">
        <ele>498.62890625</ele>
        <time>2019-11-09T08:16:48Z</time>
      </trkpt>
      <trkpt lat="43.29461" lon="6.01288">
        <ele>498.88671875</ele>
        <time>2019-11-09T08:16:58Z</time>
      </trkpt>
      <trkpt lat="43.29471" lon="6.01256">
        <ele>498.90625</ele>
        <time>2019-11-09T08:17:06Z</time>
      </trkpt>
      <trkpt lat="43.29474" lon="6.01253">
        <ele>499.07421875</ele>
        <time>2019-11-09T08:17:07Z</time>
      </trkpt>
      <trkpt lat="43.29478" lon="6.01251">
        <ele>499.35546875</ele>
        <time>2019-11-09T08:17:08Z</time>
      </trkpt>
      <trkpt lat="43.29481" lon="6.01248">
        <ele>499.5703125</ele>
        <time>2019-11-09T08:17:09Z</time>
      </trkpt>
      <trkpt lat="43.29483" lon="6.01246">
        <ele>499.7109375</ele>
        <time>2019-11-09T08:17:10Z</time>
      </trkpt>
      <trkpt lat="43.29484" lon="6.01243">
        <ele>499.73828125</ele>
        <time>2019-11-09T08:17:11Z</time>
      </trkpt>
      <trkpt lat="43.29483" lon="6.01241">
        <ele>499.6953125</ele>
        <time>2019-11-09T08:17:12Z</time>
      </trkpt>
      <trkpt lat="43.29502" lon="6.01206">
        <ele>500.08984375</ele>
        <time>2019-11-09T08:17:22Z</time>
      </trkpt>
      <trkpt lat="43.29514" lon="6.01183">
        <ele>500.85546875</ele>
        <time>2019-11-09T08:17:27Z</time>
      </trkpt>
      <trkpt lat="43.29515" lon="6.01178">
        <ele>500.82421875</ele>
        <time>2019-11-09T08:17:28Z</time>
      </trkpt>
      <trkpt lat="43.2952" lon="6.0116">
        <ele>500.6796875</ele>
        <time>2019-11-09T08:17:32Z</time>
      </trkpt>
      <trkpt lat="43.29523" lon="6.01159">
        <ele>500.7890625</ele>
        <time>2019-11-09T08:17:33Z</time>
      </trkpt>
      <trkpt lat="43.29525" lon="6.01159">
        <ele>500.87890625</ele>
        <time>2019-11-09T08:17:34Z</time>
      </trkpt>
      <trkpt lat="43.29527" lon="6.0116">
        <ele>500.953125</ele>
        <time>2019-11-09T08:17:35Z</time>
      </trkpt>
      <trkpt lat="43.2953" lon="6.01159">
        <ele>501.18359375</ele>
        <time>2019-11-09T08:17:36Z</time>
      </trkpt>
      <trkpt lat="43.29534" lon="6.01158">
        <ele>501.5390625</ele>
        <time>2019-11-09T08:17:37Z</time>
      </trkpt>
      <trkpt lat="43.29537" lon="6.01157">
        <ele>501.90234375</ele>
        <time>2019-11-09T08:17:38Z</time>
      </trkpt>
      <trkpt lat="43.29541" lon="6.01154">
        <ele>502.28515625</ele>
        <time>2019-11-09T08:17:39Z</time>
      </trkpt>
      <trkpt lat="43.29544" lon="6.0115">
        <ele>502.609375</ele>
        <time>2019-11-09T08:17:40Z</time>
      </trkpt>
      <trkpt lat="43.29561" lon="6.01118">
        <ele>503.96875</ele>
        <time>2019-11-09T08:17:49Z</time>
      </trkpt>
      <trkpt lat="43.29567" lon="6.01109">
        <ele>504.23828125</ele>
        <time>2019-11-09T08:17:52Z</time>
      </trkpt>
      <trkpt lat="43.29595" lon="6.01086">
        <ele>507.9453125</ele>
        <time>2019-11-09T08:18:06Z</time>
      </trkpt>
      <trkpt lat="43.2962" lon="6.01066">
        <ele>510.5703125</ele>
        <time>2019-11-09T08:18:19Z</time>
      </trkpt>
      <trkpt lat="43.29623" lon="6.01063">
        <ele>510.79296875</ele>
        <time>2019-11-09T08:18:21Z</time>
      </trkpt>
      <trkpt lat="43.29646" lon="6.01054">
        <ele>512.42578125</ele>
        <time>2019-11-09T08:18:33Z</time>
      </trkpt>
      <trkpt lat="43.29658" lon="6.01037">
        <ele>513.4921875</ele>
        <time>2019-11-09T08:18:46Z</time>
      </trkpt>
      <trkpt lat="43.29661" lon="6.01035">
        <ele>513.640625</ele>
        <time>2019-11-09T08:19:17Z</time>
      </trkpt>
      <trkpt lat="43.29662" lon="6.01035">
        <ele>513.71484375</ele>
        <time>2019-11-09T08:19:38Z</time>
      </trkpt>
      <trkpt lat="43.29659" lon="6.01039">
        <ele>513.48828125</ele>
        <time>2019-11-09T08:20:03Z</time>
      </trkpt>
      <trkpt lat="43.29657" lon="6.01036">
        <ele>513.421875</ele>
        <time>2019-11-09T08:20:19Z</time>
      </trkpt>
      <trkpt lat="43.29655" lon="6.01034">
        <ele>513.37890625</ele>
        <time>2019-11-09T08:20:20Z</time>
      </trkpt>
      <trkpt lat="43.2964" lon="6.00998">
        <ele>513.015625</ele>
        <time>2019-11-09T08:20:34Z</time>
      </trkpt>
      <trkpt lat="43.2963" lon="6.00962">
        <ele>513.859375</ele>
        <time>2019-11-09T08:20:46Z</time>
      </trkpt>
      <trkpt lat="43.29619" lon="6.00924">
        <ele>514.6640625</ele>
        <time>2019-11-09T08:20:59Z</time>
      </trkpt>
      <trkpt lat="43.29618" lon="6.00913">
        <ele>514.96875</ele>
        <time>2019-11-09T08:21:03Z</time>
      </trkpt>
      <trkpt lat="43.29618" lon="6.00889">
        <ele>515.16015625</ele>
        <time>2019-11-09T08:21:10Z</time>
      </trkpt>
      <trkpt lat="43.29622" lon="6.00881">
        <ele>515.3203125</ele>
        <time>2019-11-09T08:21:13Z</time>
      </trkpt>
      <trkpt lat="43.29622" lon="6.00877">
        <ele>515.265625</ele>
        <time>2019-11-09T08:21:14Z</time>
      </trkpt>
      <trkpt lat="43.29621" lon="6.00874">
        <ele>515.203125</ele>
        <time>2019-11-09T08:21:15Z</time>
      </trkpt>
      <trkpt lat="43.2962" lon="6.00871">
        <ele>515.15234375</ele>
        <time>2019-11-09T08:21:16Z</time>
      </trkpt>
      <trkpt lat="43.29619" lon="6.00868">
        <ele>515.11328125</ele>
        <time>2019-11-09T08:21:17Z</time>
      </trkpt>
      <trkpt lat="43.29619" lon="6.00865">
        <ele>515.078125</ele>
        <time>2019-11-09T08:21:18Z</time>
      </trkpt>
      <trkpt lat="43.29618" lon="6.00862">
        <ele>515.046875</ele>
        <time>2019-11-09T08:21:19Z</time>
      </trkpt>
      <trkpt lat="43.29618" lon="6.00859">
        <ele>515.01953125</ele>
        <time>2019-11-09T08:21:20Z</time>
      </trkpt>
      <trkpt lat="43.29617" lon="6.00855">
        <ele>515</ele>
        <time>2019-11-09T08:21:21Z</time>
      </trkpt>
      <trkpt lat="43.29617" lon="6.00852">
        <ele>515</ele>
        <time>2019-11-09T08:21:22Z</time>
      </trkpt>
      <trkpt lat="43.29602" lon="6.00823">
        <ele>515</ele>
        <time>2019-11-09T08:21:32Z</time>
      </trkpt>
      <trkpt lat="43.29587" lon="6.00798">
        <ele>515.0703125</ele>
        <time>2019-11-09T08:21:41Z</time>
      </trkpt>
      <trkpt lat="43.29586" lon="6.00796">
        <ele>515.1640625</ele>
        <time>2019-11-09T08:21:42Z</time>
      </trkpt>
      <trkpt lat="43.29585" lon="6.00793">
        <ele>515.26953125</ele>
        <time>2019-11-09T08:21:43Z</time>
      </trkpt>
      <trkpt lat="43.29584" lon="6.0079">
        <ele>515.40234375</ele>
        <time>2019-11-09T08:21:44Z</time>
      </trkpt>
      <trkpt lat="43.29583" lon="6.00787">
        <ele>515.546875</ele>
        <time>2019-11-09T08:21:45Z</time>
      </trkpt>
      <trkpt lat="43.2958" lon="6.00773">
        <ele>516.1171875</ele>
        <time>2019-11-09T08:21:49Z</time>
      </trkpt>
      <trkpt lat="43.29579" lon="6.0077">
        <ele>516.17578125</ele>
        <time>2019-11-09T08:21:50Z</time>
      </trkpt>
      <trkpt lat="43.29579" lon="6.00766">
        <ele>516.19140625</ele>
        <time>2019-11-09T08:21:51Z</time>
      </trkpt>
      <trkpt lat="43.29576" lon="6.00732">
        <ele>515.953125</ele>
        <time>2019-11-09T08:22:02Z</time>
      </trkpt>
      <trkpt lat="43.29575" lon="6.0073">
        <ele>516</ele>
        <time>2019-11-09T08:22:03Z</time>
      </trkpt>
      <trkpt lat="43.29573" lon="6.00729">
        <ele>516.03515625</ele>
        <time>2019-11-09T08:22:04Z</time>
      </trkpt>
      <trkpt lat="43.29572" lon="6.00727">
        <ele>516.05859375</ele>
        <time>2019-11-09T08:22:05Z</time>
      </trkpt>
      <trkpt lat="43.29571" lon="6.00725">
        <ele>516.09375</ele>
        <time>2019-11-09T08:22:06Z</time>
      </trkpt>
      <trkpt lat="43.29569" lon="6.00723">
        <ele>516.16015625</ele>
        <time>2019-11-09T08:22:07Z</time>
      </trkpt>
      <trkpt lat="43.29568" lon="6.00721">
        <ele>516.24609375</ele>
        <time>2019-11-09T08:22:08Z</time>
      </trkpt>
      <trkpt lat="43.29566" lon="6.0072">
        <ele>516.3515625</ele>
        <time>2019-11-09T08:22:09Z</time>
      </trkpt>
      <trkpt lat="43.29564" lon="6.00719">
        <ele>516.47265625</ele>
        <time>2019-11-09T08:22:10Z</time>
      </trkpt>
      <trkpt lat="43.29562" lon="6.00717">
        <ele>516.609375</ele>
        <time>2019-11-09T08:22:11Z</time>
      </trkpt>
      <trkpt lat="43.2956" lon="6.00715">
        <ele>516.7421875</ele>
        <time>2019-11-09T08:22:12Z</time>
      </trkpt>
      <trkpt lat="43.29558" lon="6.00713">
        <ele>516.8671875</ele>
        <time>2019-11-09T08:22:13Z</time>
      </trkpt>
      <trkpt lat="43.29534" lon="6.00688">
        <ele>518.6328125</ele>
        <time>2019-11-09T08:22:28Z</time>
      </trkpt>
      <trkpt lat="43.29525" lon="6.00678">
        <ele>518.69140625</ele>
        <time>2019-11-09T08:22:33Z</time>
      </trkpt>
      <trkpt lat="43.29525" lon="6.00675">
        <ele>518.68359375</ele>
        <time>2019-11-09T08:22:34Z</time>
      </trkpt>
      <trkpt lat="43.29525" lon="6.00638">
        <ele>519.55078125</ele>
        <time>2019-11-09T08:22:45Z</time>
      </trkpt>
      <trkpt lat="43.29528" lon="6.00628">
        <ele>519.94921875</ele>
        <time>2019-11-09T08:22:49Z</time>
      </trkpt>
      <trkpt lat="43.29528" lon="6.00626">
        <ele>519.9453125</ele>
        <time>2019-11-09T08:22:50Z</time>
      </trkpt>
      <trkpt lat="43.29529" lon="6.00593">
        <ele>520.4765625</ele>
        <time>2019-11-09T08:23:02Z</time>
      </trkpt>
      <trkpt lat="43.29529" lon="6.00584">
        <ele>520.77734375</ele>
        <time>2019-11-09T08:23:05Z</time>
      </trkpt>
      <trkpt lat="43.29529" lon="6.00582">
        <ele>520.77734375</ele>
        <time>2019-11-09T08:23:06Z</time>
      </trkpt>
      <trkpt lat="43.29529" lon="6.0058">
        <ele>520.859375</ele>
        <time>2019-11-09T08:23:07Z</time>
      </trkpt>
      <trkpt lat="43.29528" lon="6.00579">
        <ele>521</ele>
        <time>2019-11-09T08:23:08Z</time>
      </trkpt>
      <trkpt lat="43.29527" lon="6.00578">
        <ele>521.1015625</ele>
        <time>2019-11-09T08:23:09Z</time>
      </trkpt>
      <trkpt lat="43.29525" lon="6.00577">
        <ele>521.28125</ele>
        <time>2019-11-09T08:23:23Z</time>
      </trkpt>
      <trkpt lat="43.29523" lon="6.00576">
        <ele>521.39453125</ele>
        <time>2019-11-09T08:23:57Z</time>
      </trkpt>
      <trkpt lat="43.29522" lon="6.00575">
        <ele>521.48046875</ele>
        <time>2019-11-09T08:23:58Z</time>
      </trkpt>
      <trkpt lat="43.29519" lon="6.00575">
        <ele>521.62890625</ele>
        <time>2019-11-09T08:24:00Z</time>
      </trkpt>
      <trkpt lat="43.29517" lon="6.00574">
        <ele>521.70703125</ele>
        <time>2019-11-09T08:24:01Z</time>
      </trkpt>
      <trkpt lat="43.29515" lon="6.00573">
        <ele>521.86328125</ele>
        <time>2019-11-09T08:24:02Z</time>
      </trkpt>
      <trkpt lat="43.29513" lon="6.00571">
        <ele>522.06640625</ele>
        <time>2019-11-09T08:24:03Z</time>
      </trkpt>
      <trkpt lat="43.29511" lon="6.00569">
        <ele>522.2734375</ele>
        <time>2019-11-09T08:24:04Z</time>
      </trkpt>
      <trkpt lat="43.29509" lon="6.00565">
        <ele>522.671875</ele>
        <time>2019-11-09T08:24:06Z</time>
      </trkpt>
      <trkpt lat="43.29506" lon="6.00561">
        <ele>523.02734375</ele>
        <time>2019-11-09T08:24:08Z</time>
      </trkpt>
      <trkpt lat="43.29505" lon="6.00561">
        <ele>523.1484375</ele>
        <time>2019-11-09T08:24:09Z</time>
      </trkpt>
      <trkpt lat="43.29502" lon="6.0056">
        <ele>523.28515625</ele>
        <time>2019-11-09T08:24:10Z</time>
      </trkpt>
      <trkpt lat="43.29499" lon="6.0056">
        <ele>523.2265625</ele>
        <time>2019-11-09T08:24:11Z</time>
      </trkpt>
      <trkpt lat="43.29497" lon="6.00562">
        <ele>522.98046875</ele>
        <time>2019-11-09T08:24:12Z</time>
      </trkpt>
      <trkpt lat="43.29494" lon="6.00565">
        <ele>522.625</ele>
        <time>2019-11-09T08:24:13Z</time>
      </trkpt>
      <trkpt lat="43.29491" lon="6.00568">
        <ele>522.18359375</ele>
        <time>2019-11-09T08:24:14Z</time>
      </trkpt>
      <trkpt lat="43.29487" lon="6.00571">
        <ele>521.67578125</ele>
        <time>2019-11-09T08:24:15Z</time>
      </trkpt>
      <trkpt lat="43.29483" lon="6.00573">
        <ele>521.21484375</ele>
        <time>2019-11-09T08:24:16Z</time>
      </trkpt>
      <trkpt lat="43.29479" lon="6.00575">
        <ele>520.8203125</ele>
        <time>2019-11-09T08:24:17Z</time>
      </trkpt>
      <trkpt lat="43.29477" lon="6.00577">
        <ele>520.4375</ele>
        <time>2019-11-09T08:24:18Z</time>
      </trkpt>
      <trkpt lat="43.29476" lon="6.00579">
        <ele>520.1328125</ele>
        <time>2019-11-09T08:24:19Z</time>
      </trkpt>
      <trkpt lat="43.29475" lon="6.00581">
        <ele>519.87890625</ele>
        <time>2019-11-09T08:24:20Z</time>
      </trkpt>
      <trkpt lat="43.29475" lon="6.00584">
        <ele>519.5234375</ele>
        <time>2019-11-09T08:24:21Z</time>
      </trkpt>
      <trkpt lat="43.29474" lon="6.00588">
        <ele>519.04296875</ele>
        <time>2019-11-09T08:24:22Z</time>
      </trkpt>
      <trkpt lat="43.29474" lon="6.00592">
        <ele>518.578125</ele>
        <time>2019-11-09T08:24:23Z</time>
      </trkpt>
      <trkpt lat="43.29473" lon="6.00595">
        <ele>518.1953125</ele>
        <time>2019-11-09T08:24:24Z</time>
      </trkpt>
      <trkpt lat="43.29473" lon="6.00598">
        <ele>517.8125</ele>
        <time>2019-11-09T08:24:25Z</time>
      </trkpt>
      <trkpt lat="43.29471" lon="6.00601">
        <ele>517.29296875</ele>
        <time>2019-11-09T08:24:26Z</time>
      </trkpt>
      <trkpt lat="43.2947" lon="6.00606">
        <ele>516.54296875</ele>
        <time>2019-11-09T08:24:27Z</time>
      </trkpt>
      <trkpt lat="43.29468" lon="6.00611">
        <ele>515.90234375</ele>
        <time>2019-11-09T08:24:28Z</time>
      </trkpt>
      <trkpt lat="43.29467" lon="6.00615">
        <ele>515.3671875</ele>
        <time>2019-11-09T08:24:29Z</time>
      </trkpt>
      <trkpt lat="43.29465" lon="6.00618">
        <ele>514.73828125</ele>
        <time>2019-11-09T08:24:30Z</time>
      </trkpt>
      <trkpt lat="43.29462" lon="6.00622">
        <ele>513.8671875</ele>
        <time>2019-11-09T08:24:31Z</time>
      </trkpt>
      <trkpt lat="43.29456" lon="6.00631">
        <ele>511.5859375</ele>
        <time>2019-11-09T08:24:33Z</time>
      </trkpt>
      <trkpt lat="43.29445" lon="6.00648">
        <ele>508.48828125</ele>
        <time>2019-11-09T08:24:36Z</time>
      </trkpt>
      <trkpt lat="43.29441" lon="6.00652">
        <ele>508.0859375</ele>
        <time>2019-11-09T08:24:37Z</time>
      </trkpt>
      <trkpt lat="43.29437" lon="6.00657">
        <ele>507.62890625</ele>
        <time>2019-11-09T08:24:38Z</time>
      </trkpt>
      <trkpt lat="43.29434" lon="6.00662">
        <ele>507.1328125</ele>
        <time>2019-11-09T08:24:39Z</time>
      </trkpt>
      <trkpt lat="43.29431" lon="6.00665">
        <ele>506.76953125</ele>
        <time>2019-11-09T08:24:40Z</time>
      </trkpt>
      <trkpt lat="43.29429" lon="6.00667">
        <ele>506.51953125</ele>
        <time>2019-11-09T08:24:41Z</time>
      </trkpt>
      <trkpt lat="43.29428" lon="6.00671">
        <ele>506.19140625</ele>
        <time>2019-11-09T08:24:42Z</time>
      </trkpt>
      <trkpt lat="43.29417" lon="6.00688">
        <ele>504.03125</ele>
        <time>2019-11-09T08:24:46Z</time>
      </trkpt>
      <trkpt lat="43.29415" lon="6.00694">
        <ele>503.58203125</ele>
        <time>2019-11-09T08:24:47Z</time>
      </trkpt>
      <trkpt lat="43.29413" lon="6.00701">
        <ele>503.1875</ele>
        <time>2019-11-09T08:24:48Z</time>
      </trkpt>
      <trkpt lat="43.29412" lon="6.00708">
        <ele>502.76953125</ele>
        <time>2019-11-09T08:24:49Z</time>
      </trkpt>
      <trkpt lat="43.2941" lon="6.00715">
        <ele>502.26171875</ele>
        <time>2019-11-09T08:24:50Z</time>
      </trkpt>
      <trkpt lat="43.29408" lon="6.00723">
        <ele>501.8359375</ele>
        <time>2019-11-09T08:24:51Z</time>
      </trkpt>
      <trkpt lat="43.29402" lon="6.00735">
        <ele>500.99609375</ele>
        <time>2019-11-09T08:24:53Z</time>
      </trkpt>
      <trkpt lat="43.29399" lon="6.00741">
        <ele>500.42578125</ele>
        <time>2019-11-09T08:24:54Z</time>
      </trkpt>
      <trkpt lat="43.29395" lon="6.00744">
        <ele>499.7890625</ele>
        <time>2019-11-09T08:24:55Z</time>
      </trkpt>
      <trkpt lat="43.29391" lon="6.00748">
        <ele>499.1015625</ele>
        <time>2019-11-09T08:24:56Z</time>
      </trkpt>
      <trkpt lat="43.29387" lon="6.00751">
        <ele>498.72265625</ele>
        <time>2019-11-09T08:24:57Z</time>
      </trkpt>
      <trkpt lat="43.29383" lon="6.00755">
        <ele>498.44921875</ele>
        <time>2019-11-09T08:24:58Z</time>
      </trkpt>
      <trkpt lat="43.29378" lon="6.00759">
        <ele>498.06640625</ele>
        <time>2019-11-09T08:24:59Z</time>
      </trkpt>
      <trkpt lat="43.29373" lon="6.00762">
        <ele>497.68359375</ele>
        <time>2019-11-09T08:25:00Z</time>
      </trkpt>
      <trkpt lat="43.29369" lon="6.00764">
        <ele>497.34375</ele>
        <time>2019-11-09T08:25:01Z</time>
      </trkpt>
      <trkpt lat="43.29364" lon="6.00772">
        <ele>496.265625</ele>
        <time>2019-11-09T08:25:10Z</time>
      </trkpt>
      <trkpt lat="43.29355" lon="6.00782">
        <ele>494.62890625</ele>
        <time>2019-11-09T08:25:20Z</time>
      </trkpt>
      <trkpt lat="43.29346" lon="6.00786">
        <ele>493.68359375</ele>
        <time>2019-11-09T08:25:22Z</time>
      </trkpt>
      <trkpt lat="43.29337" lon="6.00796">
        <ele>491.85546875</ele>
        <time>2019-11-09T08:25:25Z</time>
      </trkpt>
      <trkpt lat="43.29336" lon="6.00799">
        <ele>491.3515625</ele>
        <time>2019-11-09T08:25:26Z</time>
      </trkpt>
      <trkpt lat="43.29336" lon="6.00802">
        <ele>491.0234375</ele>
        <time>2019-11-09T08:25:27Z</time>
      </trkpt>
      <trkpt lat="43.29337" lon="6.00805">
        <ele>490.75</ele>
        <time>2019-11-09T08:25:28Z</time>
      </trkpt>
      <trkpt lat="43.29337" lon="6.00808">
        <ele>490.44140625</ele>
        <time>2019-11-09T08:25:29Z</time>
      </trkpt>
      <trkpt lat="43.29337" lon="6.00811">
        <ele>490.078125</ele>
        <time>2019-11-09T08:25:30Z</time>
      </trkpt>
      <trkpt lat="43.29338" lon="6.00816">
        <ele>489.7734375</ele>
        <time>2019-11-09T08:25:31Z</time>
      </trkpt>
      <trkpt lat="43.2934" lon="6.0082">
        <ele>489.56640625</ele>
        <time>2019-11-09T08:25:32Z</time>
      </trkpt>
      <trkpt lat="43.29342" lon="6.00825">
        <ele>489.375</ele>
        <time>2019-11-09T08:25:33Z</time>
      </trkpt>
      <trkpt lat="43.29343" lon="6.0083">
        <ele>489.1796875</ele>
        <time>2019-11-09T08:25:34Z</time>
      </trkpt>
      <trkpt lat="43.29343" lon="6.00835">
        <ele>489.046875</ele>
        <time>2019-11-09T08:25:35Z</time>
      </trkpt>
      <trkpt lat="43.29342" lon="6.00838">
        <ele>488.8515625</ele>
        <time>2019-11-09T08:25:36Z</time>
      </trkpt>
      <trkpt lat="43.29339" lon="6.0085">
        <ele>487.97265625</ele>
        <time>2019-11-09T08:25:40Z</time>
      </trkpt>
      <trkpt lat="43.29337" lon="6.00861">
        <ele>487.41796875</ele>
        <time>2019-11-09T08:25:42Z</time>
      </trkpt>
      <trkpt lat="43.29335" lon="6.00866">
        <ele>487.16796875</ele>
        <time>2019-11-09T08:25:43Z</time>
      </trkpt>
      <trkpt lat="43.29334" lon="6.00872">
        <ele>487</ele>
        <time>2019-11-09T08:25:44Z</time>
      </trkpt>
      <trkpt lat="43.29333" lon="6.00878">
        <ele>486.8359375</ele>
        <time>2019-11-09T08:25:45Z</time>
      </trkpt>
      <trkpt lat="43.29317" lon="6.00907">
        <ele>485.34765625</ele>
        <time>2019-11-09T08:25:51Z</time>
      </trkpt>
      <trkpt lat="43.29312" lon="6.00909">
        <ele>484.69140625</ele>
        <time>2019-11-09T08:25:52Z</time>
      </trkpt>
      <trkpt lat="43.29287" lon="6.0092">
        <ele>481.01953125</ele>
        <time>2019-11-09T08:25:56Z</time>
      </trkpt>
      <trkpt lat="43.2928" lon="6.00922">
        <ele>480.05078125</ele>
        <time>2019-11-09T08:25:57Z</time>
      </trkpt>
      <trkpt lat="43.29271" lon="6.00925">
        <ele>478.6484375</ele>
        <time>2019-11-09T08:25:59Z</time>
      </trkpt>
      <trkpt lat="43.29266" lon="6.00927">
        <ele>477.94140625</ele>
        <time>2019-11-09T08:26:00Z</time>
      </trkpt>
      <trkpt lat="43.29261" lon="6.00928">
        <ele>477.26953125</ele>
        <time>2019-11-09T08:26:01Z</time>
      </trkpt>
      <trkpt lat="43.29257" lon="6.00927">
        <ele>476.54296875</ele>
        <time>2019-11-09T08:26:02Z</time>
      </trkpt>
      <trkpt lat="43.29253" lon="6.00926">
        <ele>475.75</ele>
        <time>2019-11-09T08:26:03Z</time>
      </trkpt>
      <trkpt lat="43.29248" lon="6.00923">
        <ele>474.8984375</ele>
        <time>2019-11-09T08:26:04Z</time>
      </trkpt>
      <trkpt lat="43.29243" lon="6.0092">
        <ele>474.07421875</ele>
        <time>2019-11-09T08:26:05Z</time>
      </trkpt>
      <trkpt lat="43.29239" lon="6.00919">
        <ele>473.375</ele>
        <time>2019-11-09T08:26:06Z</time>
      </trkpt>
      <trkpt lat="43.29234" lon="6.00919">
        <ele>472.62109375</ele>
        <time>2019-11-09T08:26:07Z</time>
      </trkpt>
      <trkpt lat="43.29229" lon="6.00918">
        <ele>471.7890625</ele>
        <time>2019-11-09T08:26:08Z</time>
      </trkpt>
      <trkpt lat="43.29218" lon="6.00915">
        <ele>470.19140625</ele>
        <time>2019-11-09T08:26:10Z</time>
      </trkpt>
      <trkpt lat="43.29207" lon="6.00916">
        <ele>468.609375</ele>
        <time>2019-11-09T08:26:12Z</time>
      </trkpt>
      <trkpt lat="43.29203" lon="6.00914">
        <ele>468.00390625</ele>
        <time>2019-11-09T08:26:13Z</time>
      </trkpt>
      <trkpt lat="43.292" lon="6.00909">
        <ele>467.76171875</ele>
        <time>2019-11-09T08:26:14Z</time>
      </trkpt>
      <trkpt lat="43.29174" lon="6.00881">
        <ele>466.07421875</ele>
        <time>2019-11-09T08:26:20Z</time>
      </trkpt>
      <trkpt lat="43.29141" lon="6.0086">
        <ele>462.984375</ele>
        <time>2019-11-09T08:26:27Z</time>
      </trkpt>
      <trkpt lat="43.29132" lon="6.00873">
        <ele>462.0859375</ele>
        <time>2019-11-09T08:26:30Z</time>
      </trkpt>
      <trkpt lat="43.29112" lon="6.00891">
        <ele>460.74609375</ele>
        <time>2019-11-09T08:26:34Z</time>
      </trkpt>
      <trkpt lat="43.29091" lon="6.00917">
        <ele>460.04296875</ele>
        <time>2019-11-09T08:26:40Z</time>
      </trkpt>
      <trkpt lat="43.29091" lon="6.00917">
        <ele>460.04296875</ele>
        <time>2019-11-09T08:26:52Z</time>
      </trkpt>
      <trkpt lat="43.29091" lon="6.00916">
        <ele>460.03125</ele>
        <time>2019-11-09T08:27:07Z</time>
      </trkpt>
      <trkpt lat="43.29088" lon="6.00915">
        <ele>460.015625</ele>
        <time>2019-11-09T08:27:21Z</time>
      </trkpt>
      <trkpt lat="43.29087" lon="6.00915">
        <ele>460.01171875</ele>
        <time>2019-11-09T08:27:45Z</time>
      </trkpt>
      <trkpt lat="43.29086" lon="6.00909">
        <ele>460.00390625</ele>
        <time>2019-11-09T08:28:01Z</time>
      </trkpt>
      <trkpt lat="43.29086" lon="6.00908">
        <ele>460.0078125</ele>
        <time>2019-11-09T08:28:02Z</time>
      </trkpt>
      <trkpt lat="43.29086" lon="6.00906">
        <ele>460.01171875</ele>
        <time>2019-11-09T08:28:03Z</time>
      </trkpt>
      <trkpt lat="43.29086" lon="6.00904">
        <ele>460.01953125</ele>
        <time>2019-11-09T08:28:04Z</time>
      </trkpt>
      <trkpt lat="43.29086" lon="6.00901">
        <ele>460.02734375</ele>
        <time>2019-11-09T08:28:05Z</time>
      </trkpt>
      <trkpt lat="43.29087" lon="6.00898">
        <ele>460.0390625</ele>
        <time>2019-11-09T08:28:06Z</time>
      </trkpt>
      <trkpt lat="43.29087" lon="6.00896">
        <ele>460.046875</ele>
        <time>2019-11-09T08:28:07Z</time>
      </trkpt>
      <trkpt lat="43.29087" lon="6.00894">
        <ele>460.05078125</ele>
        <time>2019-11-09T08:28:08Z</time>
      </trkpt>
      <trkpt lat="43.29087" lon="6.00892">
        <ele>460.05078125</ele>
        <time>2019-11-09T08:28:09Z</time>
      </trkpt>
      <trkpt lat="43.29086" lon="6.00891">
        <ele>460.0390625</ele>
        <time>2019-11-09T08:28:10Z</time>
      </trkpt>
      <trkpt lat="43.29085" lon="6.00889">
        <ele>460.015625</ele>
        <time>2019-11-09T08:28:11Z</time>
      </trkpt>
      <trkpt lat="43.29083" lon="6.00887">
        <ele>459.99609375</ele>
        <time>2019-11-09T08:28:12Z</time>
      </trkpt>
      <trkpt lat="43.29082" lon="6.00885">
        <ele>459.9921875</ele>
        <time>2019-11-09T08:28:13Z</time>
      </trkpt>
      <trkpt lat="43.2908" lon="6.00883">
        <ele>460.04296875</ele>
        <time>2019-11-09T08:28:14Z</time>
      </trkpt>
      <trkpt lat="43.2905" lon="6.00874">
        <ele>460.8046875</ele>
        <time>2019-11-09T08:28:25Z</time>
      </trkpt>
      <trkpt lat="43.29024" lon="6.00853">
        <ele>463.265625</ele>
        <time>2019-11-09T08:28:36Z</time>
      </trkpt>
      <trkpt lat="43.28999" lon="6.00816">
        <ele>465.015625</ele>
        <time>2019-11-09T08:28:48Z</time>
      </trkpt>
      <trkpt lat="43.28996" lon="6.00815">
        <ele>465.1796875</ele>
        <time>2019-11-09T08:28:49Z</time>
      </trkpt>
      <trkpt lat="43.28994" lon="6.00814">
        <ele>465.296875</ele>
        <time>2019-11-09T08:28:50Z</time>
      </trkpt>
      <trkpt lat="43.2899" lon="6.00814">
        <ele>465.43359375</ele>
        <time>2019-11-09T08:28:51Z</time>
      </trkpt>
      <trkpt lat="43.28955" lon="6.00811">
        <ele>466.4921875</ele>
        <time>2019-11-09T08:29:03Z</time>
      </trkpt>
      <trkpt lat="43.28933" lon="6.00804">
        <ele>466.87109375</ele>
        <time>2019-11-09T08:29:10Z</time>
      </trkpt>
      <trkpt lat="43.28923" lon="6.00807">
        <ele>466.76171875</ele>
        <time>2019-11-09T08:29:12Z</time>
      </trkpt>
      <trkpt lat="43.28913" lon="6.00807">
        <ele>466.81640625</ele>
        <time>2019-11-09T08:29:14Z</time>
      </trkpt>
      <trkpt lat="43.28907" lon="6.00805">
        <ele>466.90234375</ele>
        <time>2019-11-09T08:29:15Z</time>
      </trkpt>
      <trkpt lat="43.28894" lon="6.00801">
        <ele>467</ele>
        <time>2019-11-09T08:29:17Z</time>
      </trkpt>
      <trkpt lat="43.28887" lon="6.008">
        <ele>466.8515625</ele>
        <time>2019-11-09T08:29:18Z</time>
      </trkpt>
      <trkpt lat="43.2888" lon="6.00799">
        <ele>466.56640625</ele>
        <time>2019-11-09T08:29:19Z</time>
      </trkpt>
      <trkpt lat="43.28873" lon="6.00799">
        <ele>466.27734375</ele>
        <time>2019-11-09T08:29:20Z</time>
      </trkpt>
      <trkpt lat="43.28865" lon="6.00798">
        <ele>465.94140625</ele>
        <time>2019-11-09T08:29:21Z</time>
      </trkpt>
      <trkpt lat="43.28857" lon="6.00797">
        <ele>465.3671875</ele>
        <time>2019-11-09T08:29:22Z</time>
      </trkpt>
      <trkpt lat="43.28843" lon="6.00793">
        <ele>464.046875</ele>
        <time>2019-11-09T08:29:24Z</time>
      </trkpt>
      <trkpt lat="43.28837" lon="6.0079">
        <ele>463.37109375</ele>
        <time>2019-11-09T08:29:25Z</time>
      </trkpt>
      <trkpt lat="43.28833" lon="6.00785">
        <ele>462.6953125</ele>
        <time>2019-11-09T08:29:26Z</time>
      </trkpt>
      <trkpt lat="43.28829" lon="6.00778">
        <ele>461.9453125</ele>
        <time>2019-11-09T08:29:27Z</time>
      </trkpt>
      <trkpt lat="43.28825" lon="6.0077">
        <ele>461.3203125</ele>
        <time>2019-11-09T08:29:28Z</time>
      </trkpt>
      <trkpt lat="43.2882" lon="6.00764">
        <ele>460.95703125</ele>
        <time>2019-11-09T08:29:29Z</time>
      </trkpt>
      <trkpt lat="43.28814" lon="6.0076">
        <ele>460.484375</ele>
        <time>2019-11-09T08:29:30Z</time>
      </trkpt>
      <trkpt lat="43.28807" lon="6.00758">
        <ele>459.9765625</ele>
        <time>2019-11-09T08:29:31Z</time>
      </trkpt>
      <trkpt lat="43.28793" lon="6.00753">
        <ele>459.11328125</ele>
        <time>2019-11-09T08:29:33Z</time>
      </trkpt>
      <trkpt lat="43.28786" lon="6.0075">
        <ele>458.6015625</ele>
        <time>2019-11-09T08:29:34Z</time>
      </trkpt>
      <trkpt lat="43.28779" lon="6.00746">
        <ele>458.0234375</ele>
        <time>2019-11-09T08:29:35Z</time>
      </trkpt>
      <trkpt lat="43.28773" lon="6.00741">
        <ele>457.37109375</ele>
        <time>2019-11-09T08:29:36Z</time>
      </trkpt>
      <trkpt lat="43.28767" lon="6.00736">
        <ele>456.6640625</ele>
        <time>2019-11-09T08:29:37Z</time>
      </trkpt>
      <trkpt lat="43.28761" lon="6.00734">
        <ele>456.0234375</ele>
        <time>2019-11-09T08:29:38Z</time>
      </trkpt>
      <trkpt lat="43.28755" lon="6.00734">
        <ele>455.48046875</ele>
        <time>2019-11-09T08:29:39Z</time>
      </trkpt>
      <trkpt lat="43.28749" lon="6.00735">
        <ele>455.09375</ele>
        <time>2019-11-09T08:29:40Z</time>
      </trkpt>
      <trkpt lat="43.28742" lon="6.00738">
        <ele>454.83984375</ele>
        <time>2019-11-09T08:29:41Z</time>
      </trkpt>
      <trkpt lat="43.28736" lon="6.00742">
        <ele>454.640625</ele>
        <time>2019-11-09T08:29:42Z</time>
      </trkpt>
      <trkpt lat="43.2873" lon="6.00745">
        <ele>454.48046875</ele>
        <time>2019-11-09T08:29:43Z</time>
      </trkpt>
      <trkpt lat="43.28724" lon="6.00748">
        <ele>454.23046875</ele>
        <time>2019-11-09T08:29:44Z</time>
      </trkpt>
      <trkpt lat="43.28718" lon="6.00748">
        <ele>453.8046875</ele>
        <time>2019-11-09T08:29:45Z</time>
      </trkpt>
      <trkpt lat="43.28712" lon="6.00746">
        <ele>453.203125</ele>
        <time>2019-11-09T08:29:46Z</time>
      </trkpt>
      <trkpt lat="43.28706" lon="6.00742">
        <ele>452.5078125</ele>
        <time>2019-11-09T08:29:47Z</time>
      </trkpt>
      <trkpt lat="43.28701" lon="6.00737">
        <ele>451.765625</ele>
        <time>2019-11-09T08:29:48Z</time>
      </trkpt>
      <trkpt lat="43.28697" lon="6.0073">
        <ele>451</ele>
        <time>2019-11-09T08:29:49Z</time>
      </trkpt>
      <trkpt lat="43.28693" lon="6.00723">
        <ele>450.4140625</ele>
        <time>2019-11-09T08:29:50Z</time>
      </trkpt>
      <trkpt lat="43.28689" lon="6.00717">
        <ele>450.0078125</ele>
        <time>2019-11-09T08:29:51Z</time>
      </trkpt>
      <trkpt lat="43.28683" lon="6.00714">
        <ele>449.9453125</ele>
        <time>2019-11-09T08:29:52Z</time>
      </trkpt>
      <trkpt lat="43.28668" lon="6.00706">
        <ele>449.59375</ele>
        <time>2019-11-09T08:29:55Z</time>
      </trkpt>
      <trkpt lat="43.28664" lon="6.00693">
        <ele>449.1171875</ele>
        <time>2019-11-09T08:29:58Z</time>
      </trkpt>
      <trkpt lat="43.28663" lon="6.00685">
        <ele>449</ele>
        <time>2019-11-09T08:30:03Z</time>
      </trkpt>
      <trkpt lat="43.28664" lon="6.00692">
        <ele>449.06640625</ele>
        <time>2019-11-09T08:30:07Z</time>
      </trkpt>
      <trkpt lat="43.28666" lon="6.00698">
        <ele>449.2734375</ele>
        <time>2019-11-09T08:30:11Z</time>
      </trkpt>
      <trkpt lat="43.2867" lon="6.00705">
        <ele>449.56640625</ele>
        <time>2019-11-09T08:30:14Z</time>
      </trkpt>
      <trkpt lat="43.28676" lon="6.00721">
        <ele>450.16015625</ele>
        <time>2019-11-09T08:30:20Z</time>
      </trkpt>
      <trkpt lat="43.28675" lon="6.00723">
        <ele>450.28125</ele>
        <time>2019-11-09T08:30:21Z</time>
      </trkpt>
      <trkpt lat="43.28672" lon="6.00734">
        <ele>450.66796875</ele>
        <time>2019-11-09T08:30:25Z</time>
      </trkpt>
      <trkpt lat="43.28668" lon="6.00743">
        <ele>450.921875</ele>
        <time>2019-11-09T08:30:32Z</time>
      </trkpt>
      <trkpt lat="43.28668" lon="6.00745">
        <ele>450.98046875</ele>
        <time>2019-11-09T08:30:45Z</time>
      </trkpt>
      <trkpt lat="43.28667" lon="6.00748">
        <ele>451.05859375</ele>
        <time>2019-11-09T08:30:49Z</time>
      </trkpt>
      <trkpt lat="43.28664" lon="6.00758">
        <ele>451.14453125</ele>
        <time>2019-11-09T08:30:54Z</time>
      </trkpt>
      <trkpt lat="43.28643" lon="6.00787">
        <ele>450.30078125</ele>
        <time>2019-11-09T08:31:05Z</time>
      </trkpt>
      <trkpt lat="43.28641" lon="6.00799">
        <ele>450.15625</ele>
        <time>2019-11-09T08:31:09Z</time>
      </trkpt>
      <trkpt lat="43.28639" lon="6.00812">
        <ele>450.25</ele>
        <time>2019-11-09T08:31:12Z</time>
      </trkpt>
      <trkpt lat="43.28633" lon="6.00821">
        <ele>450.0078125</ele>
        <time>2019-11-09T08:31:16Z</time>
      </trkpt>
      <trkpt lat="43.2863" lon="6.00828">
        <ele>449.890625</ele>
        <time>2019-11-09T08:31:18Z</time>
      </trkpt>
      <trkpt lat="43.28632" lon="6.00855">
        <ele>450.11328125</ele>
        <time>2019-11-09T08:31:24Z</time>
      </trkpt>
      <trkpt lat="43.2864" lon="6.00885">
        <ele>450.984375</ele>
        <time>2019-11-09T08:31:30Z</time>
      </trkpt>
      <trkpt lat="43.28647" lon="6.00913">
        <ele>450.71875</ele>
        <time>2019-11-09T08:31:40Z</time>
      </trkpt>
      <trkpt lat="43.28651" lon="6.00937">
        <ele>450.19140625</ele>
        <time>2019-11-09T08:31:49Z</time>
      </trkpt>
      <trkpt lat="43.28652" lon="6.00939">
        <ele>450.2578125</ele>
        <time>2019-11-09T08:31:50Z</time>
      </trkpt>
      <trkpt lat="43.28654" lon="6.00954">
        <ele>449.96875</ele>
        <time>2019-11-09T08:32:04Z</time>
      </trkpt>
      <trkpt lat="43.28652" lon="6.00957">
        <ele>449.703125</ele>
        <time>2019-11-09T08:32:07Z</time>
      </trkpt>
      <trkpt lat="43.2865" lon="6.00963">
        <ele>449.4375</ele>
        <time>2019-11-09T08:32:10Z</time>
      </trkpt>
      <trkpt lat="43.28643" lon="6.00976">
        <ele>449.0546875</ele>
        <time>2019-11-09T08:32:17Z</time>
      </trkpt>
      <trkpt lat="43.28638" lon="6.00984">
        <ele>449</ele>
        <time>2019-11-09T08:32:32Z</time>
      </trkpt>
      <trkpt lat="43.28636" lon="6.00987">
        <ele>449</ele>
        <time>2019-11-09T08:33:00Z</time>
      </trkpt>
      <trkpt lat="43.28635" lon="6.00985">
        <ele>449</ele>
        <time>2019-11-09T08:33:28Z</time>
      </trkpt>
      <trkpt lat="43.28634" lon="6.00985">
        <ele>449</ele>
        <time>2019-11-09T08:33:55Z</time>
      </trkpt>
      <trkpt lat="43.28624" lon="6.00987">
        <ele>449</ele>
        <time>2019-11-09T08:34:20Z</time>
      </trkpt>
      <trkpt lat="43.28592" lon="6.00992">
        <ele>448.921875</ele>
        <time>2019-11-09T08:34:31Z</time>
      </trkpt>
      <trkpt lat="43.28583" lon="6.00991">
        <ele>448.8125</ele>
        <time>2019-11-09T08:34:34Z</time>
      </trkpt>
      <trkpt lat="43.28581" lon="6.00989">
        <ele>448.66015625</ele>
        <time>2019-11-09T08:34:35Z</time>
      </trkpt>
      <trkpt lat="43.28538" lon="6.00959">
        <ele>447.91015625</ele>
        <time>2019-11-09T08:34:48Z</time>
      </trkpt>
      <trkpt lat="43.2851" lon="6.00935">
        <ele>447.953125</ele>
        <time>2019-11-09T08:34:57Z</time>
      </trkpt>
      <trkpt lat="43.28483" lon="6.00902">
        <ele>447.88671875</ele>
        <time>2019-11-09T08:35:07Z</time>
      </trkpt>
      <trkpt lat="43.28454" lon="6.0087">
        <ele>447.85546875</ele>
        <time>2019-11-09T08:35:19Z</time>
      </trkpt>
      <trkpt lat="43.28438" lon="6.00865">
        <ele>448.2734375</ele>
        <time>2019-11-09T08:35:31Z</time>
      </trkpt>
      <trkpt lat="43.28438" lon="6.00866">
        <ele>448.28125</ele>
        <time>2019-11-09T08:35:32Z</time>
      </trkpt>
      <trkpt lat="43.28438" lon="6.00868">
        <ele>448.28125</ele>
        <time>2019-11-09T08:35:33Z</time>
      </trkpt>
      <trkpt lat="43.28433" lon="6.00897">
        <ele>448.94140625</ele>
        <time>2019-11-09T08:35:45Z</time>
      </trkpt>
      <trkpt lat="43.28428" lon="6.0092">
        <ele>449.6484375</ele>
        <time>2019-11-09T08:35:51Z</time>
      </trkpt>
      <trkpt lat="43.28426" lon="6.00922">
        <ele>449.71484375</ele>
        <time>2019-11-09T08:35:52Z</time>
      </trkpt>
      <trkpt lat="43.28419" lon="6.00919">
        <ele>449.97265625</ele>
        <time>2019-11-09T08:36:01Z</time>
      </trkpt>
      <trkpt lat="43.28422" lon="6.00922">
        <ele>449.87890625</ele>
        <time>2019-11-09T08:36:10Z</time>
      </trkpt>
      <trkpt lat="43.28423" lon="6.00931">
        <ele>449.8125</ele>
        <time>2019-11-09T08:36:14Z</time>
      </trkpt>
      <trkpt lat="43.28422" lon="6.00933">
        <ele>449.859375</ele>
        <time>2019-11-09T08:36:15Z</time>
      </trkpt>
      <trkpt lat="43.28419" lon="6.00941">
        <ele>449.984375</ele>
        <time>2019-11-09T08:36:26Z</time>
      </trkpt>
      <trkpt lat="43.28419" lon="6.00943">
        <ele>449.9921875</ele>
        <time>2019-11-09T08:36:31Z</time>
      </trkpt>
      <trkpt lat="43.28418" lon="6.00944">
        <ele>450</ele>
        <time>2019-11-09T08:36:32Z</time>
      </trkpt>
      <trkpt lat="43.28418" lon="6.00946">
        <ele>450.00390625</ele>
        <time>2019-11-09T08:36:33Z</time>
      </trkpt>
      <trkpt lat="43.28417" lon="6.00948">
        <ele>450.0078125</ele>
        <time>2019-11-09T08:36:34Z</time>
      </trkpt>
      <trkpt lat="43.28417" lon="6.00951">
        <ele>450.0234375</ele>
        <time>2019-11-09T08:36:35Z</time>
      </trkpt>
      <trkpt lat="43.28416" lon="6.00954">
        <ele>450.046875</ele>
        <time>2019-11-09T08:36:36Z</time>
      </trkpt>
      <trkpt lat="43.28407" lon="6.00995">
        <ele>450.43359375</ele>
        <time>2019-11-09T08:36:49Z</time>
      </trkpt>
      <trkpt lat="43.28397" lon="6.01041">
        <ele>452.97265625</ele>
        <time>2019-11-09T08:37:02Z</time>
      </trkpt>
      <trkpt lat="43.28395" lon="6.01072">
        <ele>455.18359375</ele>
        <time>2019-11-09T08:37:12Z</time>
      </trkpt>
      <trkpt lat="43.28386" lon="6.01099">
        <ele>458.46875</ele>
        <time>2019-11-09T08:37:25Z</time>
      </trkpt>
      <trkpt lat="43.28371" lon="6.01118">
        <ele>461.27734375</ele>
        <time>2019-11-09T08:37:39Z</time>
      </trkpt>
      <trkpt lat="43.28365" lon="6.01142">
        <ele>464.67578125</ele>
        <time>2019-11-09T08:37:53Z</time>
      </trkpt>
      <trkpt lat="43.28364" lon="6.0115">
        <ele>465.6484375</ele>
        <time>2019-11-09T08:37:58Z</time>
      </trkpt>
      <trkpt lat="43.28364" lon="6.01152">
        <ele>465.8671875</ele>
        <time>2019-11-09T08:37:59Z</time>
      </trkpt>
      <trkpt lat="43.28363" lon="6.01153">
        <ele>466.06640625</ele>
        <time>2019-11-09T08:38:00Z</time>
      </trkpt>
      <trkpt lat="43.28363" lon="6.01155">
        <ele>466.29296875</ele>
        <time>2019-11-09T08:38:01Z</time>
      </trkpt>
      <trkpt lat="43.28362" lon="6.01157">
        <ele>466.5390625</ele>
        <time>2019-11-09T08:38:02Z</time>
      </trkpt>
      <trkpt lat="43.28361" lon="6.01158">
        <ele>466.78515625</ele>
        <time>2019-11-09T08:38:03Z</time>
      </trkpt>
      <trkpt lat="43.2836" lon="6.0116">
        <ele>467.0546875</ele>
        <time>2019-11-09T08:38:04Z</time>
      </trkpt>
      <trkpt lat="43.28359" lon="6.01162">
        <ele>467.28515625</ele>
        <time>2019-11-09T08:38:05Z</time>
      </trkpt>
      <trkpt lat="43.28358" lon="6.01163">
        <ele>467.48046875</ele>
        <time>2019-11-09T08:38:06Z</time>
      </trkpt>
      <trkpt lat="43.28357" lon="6.01182">
        <ele>469.609375</ele>
        <time>2019-11-09T08:38:17Z</time>
      </trkpt>
      <trkpt lat="43.28348" lon="6.01211">
        <ele>472.61328125</ele>
        <time>2019-11-09T08:38:32Z</time>
      </trkpt>
      <trkpt lat="43.2834" lon="6.01238">
        <ele>475.171875</ele>
        <time>2019-11-09T08:38:45Z</time>
      </trkpt>
      <trkpt lat="43.28328" lon="6.01273">
        <ele>477.24609375</ele>
        <time>2019-11-09T08:39:01Z</time>
      </trkpt>
      <trkpt lat="43.28319" lon="6.01298">
        <ele>478.1015625</ele>
        <time>2019-11-09T08:39:15Z</time>
      </trkpt>
      <trkpt lat="43.28309" lon="6.01314">
        <ele>478.38671875</ele>
        <time>2019-11-09T08:39:25Z</time>
      </trkpt>
      <trkpt lat="43.28309" lon="6.01316">
        <ele>478.3515625</ele>
        <time>2019-11-09T08:39:26Z</time>
      </trkpt>
      <trkpt lat="43.28308" lon="6.01318">
        <ele>478.3203125</ele>
        <time>2019-11-09T08:39:27Z</time>
      </trkpt>
      <trkpt lat="43.28307" lon="6.0132">
        <ele>478.28125</ele>
        <time>2019-11-09T08:39:28Z</time>
      </trkpt>
      <trkpt lat="43.28307" lon="6.01322">
        <ele>478.234375</ele>
        <time>2019-11-09T08:39:29Z</time>
      </trkpt>
      <trkpt lat="43.28306" lon="6.01324">
        <ele>478.16796875</ele>
        <time>2019-11-09T08:39:30Z</time>
      </trkpt>
      <trkpt lat="43.28305" lon="6.01339">
        <ele>477.70703125</ele>
        <time>2019-11-09T08:39:41Z</time>
      </trkpt>
      <trkpt lat="43.28307" lon="6.01338">
        <ele>477.62890625</ele>
        <time>2019-11-09T08:40:19Z</time>
      </trkpt>
      <trkpt lat="43.28312" lon="6.01335">
        <ele>477.578125</ele>
        <time>2019-11-09T08:40:50Z</time>
      </trkpt>
      <trkpt lat="43.28313" lon="6.01337">
        <ele>477.46484375</ele>
        <time>2019-11-09T08:41:25Z</time>
      </trkpt>
      <trkpt lat="43.28306" lon="6.01339">
        <ele>477.6328125</ele>
        <time>2019-11-09T08:41:57Z</time>
      </trkpt>
      <trkpt lat="43.28307" lon="6.01339">
        <ele>477.63671875</ele>
        <time>2019-11-09T08:42:25Z</time>
      </trkpt>
      <trkpt lat="43.28309" lon="6.01339">
        <ele>477.51171875</ele>
        <time>2019-11-09T08:43:03Z</time>
      </trkpt>
      <trkpt lat="43.28309" lon="6.01343">
        <ele>477.3984375</ele>
        <time>2019-11-09T08:43:14Z</time>
      </trkpt>
      <trkpt lat="43.28308" lon="6.01344">
        <ele>477.38671875</ele>
        <time>2019-11-09T08:43:15Z</time>
      </trkpt>
      <trkpt lat="43.28308" lon="6.01346">
        <ele>477.3359375</ele>
        <time>2019-11-09T08:43:16Z</time>
      </trkpt>
      <trkpt lat="43.28307" lon="6.01348">
        <ele>477.27734375</ele>
        <time>2019-11-09T08:43:17Z</time>
      </trkpt>
      <trkpt lat="43.28306" lon="6.0135">
        <ele>477.2265625</ele>
        <time>2019-11-09T08:43:18Z</time>
      </trkpt>
      <trkpt lat="43.28306" lon="6.01353">
        <ele>477.1328125</ele>
        <time>2019-11-09T08:43:19Z</time>
      </trkpt>
      <trkpt lat="43.28306" lon="6.01357">
        <ele>477.0234375</ele>
        <time>2019-11-09T08:43:20Z</time>
      </trkpt>
      <trkpt lat="43.28305" lon="6.0136">
        <ele>476.90234375</ele>
        <time>2019-11-09T08:43:21Z</time>
      </trkpt>
      <trkpt lat="43.28304" lon="6.01364">
        <ele>476.79296875</ele>
        <time>2019-11-09T08:43:22Z</time>
      </trkpt>
      <trkpt lat="43.28291" lon="6.01427">
        <ele>474.609375</ele>
        <time>2019-11-09T08:43:33Z</time>
      </trkpt>
      <trkpt lat="43.28286" lon="6.01446">
        <ele>474.72265625</ele>
        <time>2019-11-09T08:43:38Z</time>
      </trkpt>
      <trkpt lat="43.2828" lon="6.01457">
        <ele>475.58984375</ele>
        <time>2019-11-09T08:43:43Z</time>
      </trkpt>
      <trkpt lat="43.2828" lon="6.0146">
        <ele>475.72265625</ele>
        <time>2019-11-09T08:43:44Z</time>
      </trkpt>
      <trkpt lat="43.28278" lon="6.01464">
        <ele>475.96484375</ele>
        <time>2019-11-09T08:43:47Z</time>
      </trkpt>
      <trkpt lat="43.28279" lon="6.01465">
        <ele>476.0078125</ele>
        <time>2019-11-09T08:43:48Z</time>
      </trkpt>
      <trkpt lat="43.28278" lon="6.01471">
        <ele>476.26171875</ele>
        <time>2019-11-09T08:43:52Z</time>
      </trkpt>
      <trkpt lat="43.28273" lon="6.01486">
        <ele>477.18359375</ele>
        <time>2019-11-09T08:44:02Z</time>
      </trkpt>
      <trkpt lat="43.28275" lon="6.01502">
        <ele>477.890625</ele>
        <time>2019-11-09T08:44:10Z</time>
      </trkpt>
      <trkpt lat="43.28276" lon="6.01503">
        <ele>477.8828125</ele>
        <time>2019-11-09T08:44:11Z</time>
      </trkpt>
      <trkpt lat="43.28278" lon="6.01504">
        <ele>477.80859375</ele>
        <time>2019-11-09T08:44:12Z</time>
      </trkpt>
      <trkpt lat="43.28308" lon="6.01519">
        <ele>476.63671875</ele>
        <time>2019-11-09T08:44:26Z</time>
      </trkpt>
      <trkpt lat="43.28344" lon="6.01543">
        <ele>475.2578125</ele>
        <time>2019-11-09T08:44:38Z</time>
      </trkpt>
      <trkpt lat="43.28385" lon="6.01568">
        <ele>473.796875</ele>
        <time>2019-11-09T08:44:49Z</time>
      </trkpt>
      <trkpt lat="43.28392" lon="6.01571">
        <ele>473.39453125</ele>
        <time>2019-11-09T08:44:50Z</time>
      </trkpt>
      <trkpt lat="43.28408" lon="6.01578">
        <ele>472.74609375</ele>
        <time>2019-11-09T08:44:53Z</time>
      </trkpt>
      <trkpt lat="43.28412" lon="6.01579">
        <ele>472.59375</ele>
        <time>2019-11-09T08:44:54Z</time>
      </trkpt>
      <trkpt lat="43.28416" lon="6.01582">
        <ele>472.59765625</ele>
        <time>2019-11-09T08:44:55Z</time>
      </trkpt>
      <trkpt lat="43.2844" lon="6.01605">
        <ele>473.375</ele>
        <time>2019-11-09T08:45:03Z</time>
      </trkpt>
      <trkpt lat="43.28443" lon="6.0161">
        <ele>473.6328125</ele>
        <time>2019-11-09T08:45:04Z</time>
      </trkpt>
      <trkpt lat="43.28461" lon="6.01633">
        <ele>475.94921875</ele>
        <time>2019-11-09T08:45:14Z</time>
      </trkpt>
      <trkpt lat="43.28491" lon="6.01652">
        <ele>478.45703125</ele>
        <time>2019-11-09T08:45:26Z</time>
      </trkpt>
      <trkpt lat="43.28513" lon="6.01678">
        <ele>480.37890625</ele>
        <time>2019-11-09T08:45:38Z</time>
      </trkpt>
      <trkpt lat="43.2854" lon="6.01695">
        <ele>480.91796875</ele>
        <time>2019-11-09T08:45:51Z</time>
      </trkpt>
      <trkpt lat="43.28564" lon="6.01724">
        <ele>480.66796875</ele>
        <time>2019-11-09T08:46:04Z</time>
      </trkpt>
      <trkpt lat="43.28584" lon="6.01749">
        <ele>482.015625</ele>
        <time>2019-11-09T08:46:17Z</time>
      </trkpt>
      <trkpt lat="43.28613" lon="6.01783">
        <ele>482.75390625</ele>
        <time>2019-11-09T08:46:31Z</time>
      </trkpt>
      <trkpt lat="43.28627" lon="6.01798">
        <ele>483.33203125</ele>
        <time>2019-11-09T08:46:38Z</time>
      </trkpt>
      <trkpt lat="43.2863" lon="6.01799">
        <ele>483.27734375</ele>
        <time>2019-11-09T08:46:39Z</time>
      </trkpt>
      <trkpt lat="43.28633" lon="6.018">
        <ele>483.28125</ele>
        <time>2019-11-09T08:46:40Z</time>
      </trkpt>
      <trkpt lat="43.28634" lon="6.01802">
        <ele>483.34765625</ele>
        <time>2019-11-09T08:46:41Z</time>
      </trkpt>
      <trkpt lat="43.28635" lon="6.01804">
        <ele>483.47265625</ele>
        <time>2019-11-09T08:46:42Z</time>
      </trkpt>
      <trkpt lat="43.28635" lon="6.01806">
        <ele>483.63671875</ele>
        <time>2019-11-09T08:46:43Z</time>
      </trkpt>
      <trkpt lat="43.28638" lon="6.0181">
        <ele>483.83984375</ele>
        <time>2019-11-09T08:46:45Z</time>
      </trkpt>
      <trkpt lat="43.28663" lon="6.01821">
        <ele>483.69921875</ele>
        <time>2019-11-09T08:46:54Z</time>
      </trkpt>
      <trkpt lat="43.28674" lon="6.01825">
        <ele>483.7734375</ele>
        <time>2019-11-09T08:47:07Z</time>
      </trkpt>
      <trkpt lat="43.28676" lon="6.01828">
        <ele>483.984375</ele>
        <time>2019-11-09T08:47:31Z</time>
      </trkpt>
      <trkpt lat="43.28676" lon="6.01831">
        <ele>484.23046875</ele>
        <time>2019-11-09T08:47:44Z</time>
      </trkpt>
      <trkpt lat="43.28677" lon="6.01833">
        <ele>484.34375</ele>
        <time>2019-11-09T08:47:45Z</time>
      </trkpt>
      <trkpt lat="43.28678" lon="6.01835">
        <ele>484.50390625</ele>
        <time>2019-11-09T08:47:46Z</time>
      </trkpt>
      <trkpt lat="43.28679" lon="6.01838">
        <ele>484.71875</ele>
        <time>2019-11-09T08:47:47Z</time>
      </trkpt>
      <trkpt lat="43.28681" lon="6.01841">
        <ele>484.96875</ele>
        <time>2019-11-09T08:47:48Z</time>
      </trkpt>
      <trkpt lat="43.28686" lon="6.0187">
        <ele>487.37109375</ele>
        <time>2019-11-09T08:48:01Z</time>
      </trkpt>
      <trkpt lat="43.28681" lon="6.0188">
        <ele>488.6796875</ele>
        <time>2019-11-09T08:48:08Z</time>
      </trkpt>
      <trkpt lat="43.2868" lon="6.01883">
        <ele>489.140625</ele>
        <time>2019-11-09T08:48:11Z</time>
      </trkpt>
      <trkpt lat="43.28666" lon="6.01897">
        <ele>492.13671875</ele>
        <time>2019-11-09T08:48:26Z</time>
      </trkpt>
      <trkpt lat="43.28652" lon="6.01905">
        <ele>494.3125</ele>
        <time>2019-11-09T08:48:38Z</time>
      </trkpt>
      <trkpt lat="43.28651" lon="6.01906">
        <ele>494.4765625</ele>
        <time>2019-11-09T08:48:39Z</time>
      </trkpt>
      <trkpt lat="43.2865" lon="6.01906">
        <ele>494.62109375</ele>
        <time>2019-11-09T08:48:40Z</time>
      </trkpt>
      <trkpt lat="43.28644" lon="6.01907">
        <ele>495.171875</ele>
        <time>2019-11-09T08:48:45Z</time>
      </trkpt>
      <trkpt lat="43.28643" lon="6.01907">
        <ele>495.29296875</ele>
        <time>2019-11-09T08:48:46Z</time>
      </trkpt>
      <trkpt lat="43.28642" lon="6.01908">
        <ele>495.48828125</ele>
        <time>2019-11-09T08:48:47Z</time>
      </trkpt>
      <trkpt lat="43.28641" lon="6.0191">
        <ele>495.76171875</ele>
        <time>2019-11-09T08:48:48Z</time>
      </trkpt>
      <trkpt lat="43.28639" lon="6.01911">
        <ele>495.95703125</ele>
        <time>2019-11-09T08:48:49Z</time>
      </trkpt>
      <trkpt lat="43.28638" lon="6.01912">
        <ele>496.13671875</ele>
        <time>2019-11-09T08:48:50Z</time>
      </trkpt>
      <trkpt lat="43.28622" lon="6.01921">
        <ele>498.41796875</ele>
        <time>2019-11-09T08:49:05Z</time>
      </trkpt>
      <trkpt lat="43.28607" lon="6.01935">
        <ele>501.9921875</ele>
        <time>2019-11-09T08:49:20Z</time>
      </trkpt>
      <trkpt lat="43.28594" lon="6.01952">
        <ele>505.97265625</ele>
        <time>2019-11-09T08:49:35Z</time>
      </trkpt>
      <trkpt lat="43.28583" lon="6.01966">
        <ele>508.8671875</ele>
        <time>2019-11-09T08:49:48Z</time>
      </trkpt>
      <trkpt lat="43.28574" lon="6.01978">
        <ele>511.140625</ele>
        <time>2019-11-09T08:50:00Z</time>
      </trkpt>
      <trkpt lat="43.28564" lon="6.0199">
        <ele>513.30078125</ele>
        <time>2019-11-09T08:50:11Z</time>
      </trkpt>
      <trkpt lat="43.28551" lon="6.02003">
        <ele>514.87109375</ele>
        <time>2019-11-09T08:50:24Z</time>
      </trkpt>
      <trkpt lat="43.28536" lon="6.0202">
        <ele>516.32421875</ele>
        <time>2019-11-09T08:50:40Z</time>
      </trkpt>
      <trkpt lat="43.28526" lon="6.0203">
        <ele>517.26171875</ele>
        <time>2019-11-09T08:50:51Z</time>
      </trkpt>
      <trkpt lat="43.28515" lon="6.02046">
        <ele>518.89453125</ele>
        <time>2019-11-09T08:51:04Z</time>
      </trkpt>
      <trkpt lat="43.28514" lon="6.02047">
        <ele>518.92578125</ele>
        <time>2019-11-09T08:51:05Z</time>
      </trkpt>
      <trkpt lat="43.28513" lon="6.02048">
        <ele>519.015625</ele>
        <time>2019-11-09T08:51:06Z</time>
      </trkpt>
      <trkpt lat="43.28502" lon="6.02067">
        <ele>519.26953125</ele>
        <time>2019-11-09T08:51:20Z</time>
      </trkpt>
      <trkpt lat="43.28491" lon="6.02084">
        <ele>519.74609375</ele>
        <time>2019-11-09T08:51:33Z</time>
      </trkpt>
      <trkpt lat="43.28486" lon="6.02087">
        <ele>519.578125</ele>
        <time>2019-11-09T08:51:37Z</time>
      </trkpt>
      <trkpt lat="43.28485" lon="6.02088">
        <ele>519.55078125</ele>
        <time>2019-11-09T08:51:38Z</time>
      </trkpt>
      <trkpt lat="43.28484" lon="6.02089">
        <ele>519.49609375</ele>
        <time>2019-11-09T08:51:39Z</time>
      </trkpt>
      <trkpt lat="43.28482" lon="6.0209">
        <ele>519.4375</ele>
        <time>2019-11-09T08:51:40Z</time>
      </trkpt>
      <trkpt lat="43.28481" lon="6.0209">
        <ele>519.37109375</ele>
        <time>2019-11-09T08:51:41Z</time>
      </trkpt>
      <trkpt lat="43.28476" lon="6.02094">
        <ele>519.14453125</ele>
        <time>2019-11-09T08:51:45Z</time>
      </trkpt>
      <trkpt lat="43.28474" lon="6.02095">
        <ele>519.0234375</ele>
        <time>2019-11-09T08:51:47Z</time>
      </trkpt>
      <trkpt lat="43.28473" lon="6.02097">
        <ele>518.97265625</ele>
        <time>2019-11-09T08:51:48Z</time>
      </trkpt>
      <trkpt lat="43.28472" lon="6.02099">
        <ele>518.9375</ele>
        <time>2019-11-09T08:52:00Z</time>
      </trkpt>
      <trkpt lat="43.2847" lon="6.02098">
        <ele>518.859375</ele>
        <time>2019-11-09T08:52:25Z</time>
      </trkpt>
      <trkpt lat="43.28468" lon="6.021">
        <ele>518.78515625</ele>
        <time>2019-11-09T08:52:52Z</time>
      </trkpt>
      <trkpt lat="43.28469" lon="6.02101">
        <ele>518.83203125</ele>
        <time>2019-11-09T08:53:09Z</time>
      </trkpt>
      <trkpt lat="43.2847" lon="6.02101">
        <ele>518.87109375</ele>
        <time>2019-11-09T08:53:15Z</time>
      </trkpt>
      <trkpt lat="43.2847" lon="6.02103">
        <ele>518.84375</ele>
        <time>2019-11-09T08:53:16Z</time>
      </trkpt>
      <trkpt lat="43.28469" lon="6.02104">
        <ele>518.8203125</ele>
        <time>2019-11-09T08:53:17Z</time>
      </trkpt>
      <trkpt lat="43.28468" lon="6.02107">
        <ele>518.7890625</ele>
        <time>2019-11-09T08:53:18Z</time>
      </trkpt>
      <trkpt lat="43.28468" lon="6.02111">
        <ele>518.734375</ele>
        <time>2019-11-09T08:53:19Z</time>
      </trkpt>
      <trkpt lat="43.28467" lon="6.02116">
        <ele>518.67578125</ele>
        <time>2019-11-09T08:53:20Z</time>
      </trkpt>
      <trkpt lat="43.28467" lon="6.0212">
        <ele>518.62890625</ele>
        <time>2019-11-09T08:53:21Z</time>
      </trkpt>
      <trkpt lat="43.28467" lon="6.02125">
        <ele>518.58203125</ele>
        <time>2019-11-09T08:53:22Z</time>
      </trkpt>
      <trkpt lat="43.28467" lon="6.0213">
        <ele>518.52734375</ele>
        <time>2019-11-09T08:53:23Z</time>
      </trkpt>
      <trkpt lat="43.28468" lon="6.02141">
        <ele>518.65234375</ele>
        <time>2019-11-09T08:53:25Z</time>
      </trkpt>
      <trkpt lat="43.2847" lon="6.02147">
        <ele>518.80859375</ele>
        <time>2019-11-09T08:53:26Z</time>
      </trkpt>
      <trkpt lat="43.28473" lon="6.02153">
        <ele>518.9453125</ele>
        <time>2019-11-09T08:53:27Z</time>
      </trkpt>
      <trkpt lat="43.28474" lon="6.0216">
        <ele>518.99609375</ele>
        <time>2019-11-09T08:53:28Z</time>
      </trkpt>
      <trkpt lat="43.28474" lon="6.02166">
        <ele>519.17578125</ele>
        <time>2019-11-09T08:53:29Z</time>
      </trkpt>
      <trkpt lat="43.28473" lon="6.02172">
        <ele>519.39453125</ele>
        <time>2019-11-09T08:53:30Z</time>
      </trkpt>
      <trkpt lat="43.28474" lon="6.02185">
        <ele>519.86328125</ele>
        <time>2019-11-09T08:53:32Z</time>
      </trkpt>
      <trkpt lat="43.28475" lon="6.02191">
        <ele>520.03515625</ele>
        <time>2019-11-09T08:53:33Z</time>
      </trkpt>
      <trkpt lat="43.28477" lon="6.02196">
        <ele>520.1015625</ele>
        <time>2019-11-09T08:53:34Z</time>
      </trkpt>
      <trkpt lat="43.28479" lon="6.022">
        <ele>520.1953125</ele>
        <time>2019-11-09T08:53:35Z</time>
      </trkpt>
      <trkpt lat="43.28482" lon="6.02203">
        <ele>520.2890625</ele>
        <time>2019-11-09T08:53:36Z</time>
      </trkpt>
      <trkpt lat="43.28484" lon="6.02205">
        <ele>520.36328125</ele>
        <time>2019-11-09T08:53:37Z</time>
      </trkpt>
      <trkpt lat="43.28485" lon="6.02208">
        <ele>520.40625</ele>
        <time>2019-11-09T08:53:38Z</time>
      </trkpt>
      <trkpt lat="43.28486" lon="6.02211">
        <ele>520.4296875</ele>
        <time>2019-11-09T08:53:39Z</time>
      </trkpt>
      <trkpt lat="43.28486" lon="6.02215">
        <ele>520.453125</ele>
        <time>2019-11-09T08:53:40Z</time>
      </trkpt>
      <trkpt lat="43.28488" lon="6.02218">
        <ele>520.47265625</ele>
        <time>2019-11-09T08:53:41Z</time>
      </trkpt>
      <trkpt lat="43.28489" lon="6.02221">
        <ele>520.4609375</ele>
        <time>2019-11-09T08:53:42Z</time>
      </trkpt>
      <trkpt lat="43.28491" lon="6.02224">
        <ele>520.44140625</ele>
        <time>2019-11-09T08:53:43Z</time>
      </trkpt>
      <trkpt lat="43.28493" lon="6.02227">
        <ele>520.4140625</ele>
        <time>2019-11-09T08:53:44Z</time>
      </trkpt>
      <trkpt lat="43.28494" lon="6.0223">
        <ele>520.3671875</ele>
        <time>2019-11-09T08:53:45Z</time>
      </trkpt>
      <trkpt lat="43.28495" lon="6.02234">
        <ele>520.2890625</ele>
        <time>2019-11-09T08:53:46Z</time>
      </trkpt>
      <trkpt lat="43.28495" lon="6.02237">
        <ele>520.19921875</ele>
        <time>2019-11-09T08:53:47Z</time>
      </trkpt>
      <trkpt lat="43.28495" lon="6.02241">
        <ele>520.1015625</ele>
        <time>2019-11-09T08:53:48Z</time>
      </trkpt>
      <trkpt lat="43.28496" lon="6.02244">
        <ele>520</ele>
        <time>2019-11-09T08:53:49Z</time>
      </trkpt>
      <trkpt lat="43.28503" lon="6.02289">
        <ele>515.85546875</ele>
        <time>2019-11-09T08:54:02Z</time>
      </trkpt>
      <trkpt lat="43.28515" lon="6.02336">
        <ele>511.23046875</ele>
        <time>2019-11-09T08:54:13Z</time>
      </trkpt>
      <trkpt lat="43.28516" lon="6.02353">
        <ele>510.5703125</ele>
        <time>2019-11-09T08:54:16Z</time>
      </trkpt>
      <trkpt lat="43.28518" lon="6.02359">
        <ele>510.2734375</ele>
        <time>2019-11-09T08:54:17Z</time>
      </trkpt>
      <trkpt lat="43.28525" lon="6.02375">
        <ele>509.94140625</ele>
        <time>2019-11-09T08:54:19Z</time>
      </trkpt>
      <trkpt lat="43.28528" lon="6.02383">
        <ele>509.94140625</ele>
        <time>2019-11-09T08:54:20Z</time>
      </trkpt>
      <trkpt lat="43.2853" lon="6.02392">
        <ele>510.32421875</ele>
        <time>2019-11-09T08:54:21Z</time>
      </trkpt>
      <trkpt lat="43.28532" lon="6.024">
        <ele>510.83984375</ele>
        <time>2019-11-09T08:54:22Z</time>
      </trkpt>
      <trkpt lat="43.28534" lon="6.02408">
        <ele>511.37109375</ele>
        <time>2019-11-09T08:54:23Z</time>
      </trkpt>
      <trkpt lat="43.28535" lon="6.02416">
        <ele>511.83203125</ele>
        <time>2019-11-09T08:54:24Z</time>
      </trkpt>
      <trkpt lat="43.28535" lon="6.02424">
        <ele>512.14453125</ele>
        <time>2019-11-09T08:54:25Z</time>
      </trkpt>
      <trkpt lat="43.28534" lon="6.02431">
        <ele>512.3125</ele>
        <time>2019-11-09T08:54:26Z</time>
      </trkpt>
      <trkpt lat="43.28538" lon="6.02454">
        <ele>514.5859375</ele>
        <time>2019-11-09T08:54:32Z</time>
      </trkpt>
      <trkpt lat="43.28539" lon="6.02456">
        <ele>514.83203125</ele>
        <time>2019-11-09T08:54:33Z</time>
      </trkpt>
      <trkpt lat="43.28539" lon="6.02485">
        <ele>516.64453125</ele>
        <time>2019-11-09T08:54:42Z</time>
      </trkpt>
      <trkpt lat="43.28539" lon="6.02487">
        <ele>516.66015625</ele>
        <time>2019-11-09T08:54:43Z</time>
      </trkpt>
      <trkpt lat="43.28538" lon="6.02489">
        <ele>516.73828125</ele>
        <time>2019-11-09T08:54:44Z</time>
      </trkpt>
      <trkpt lat="43.28538" lon="6.02492">
        <ele>516.76953125</ele>
        <time>2019-11-09T08:54:45Z</time>
      </trkpt>
      <trkpt lat="43.28537" lon="6.02496">
        <ele>516.765625</ele>
        <time>2019-11-09T08:54:46Z</time>
      </trkpt>
      <trkpt lat="43.28529" lon="6.0254">
        <ele>518.10546875</ele>
        <time>2019-11-09T08:55:01Z</time>
      </trkpt>
      <trkpt lat="43.28528" lon="6.02542">
        <ele>518</ele>
        <time>2019-11-09T08:55:02Z</time>
      </trkpt>
      <trkpt lat="43.28527" lon="6.02544">
        <ele>517.921875</ele>
        <time>2019-11-09T08:55:03Z</time>
      </trkpt>
      <trkpt lat="43.28526" lon="6.02546">
        <ele>517.87109375</ele>
        <time>2019-11-09T08:55:04Z</time>
      </trkpt>
      <trkpt lat="43.28525" lon="6.0255">
        <ele>517.828125</ele>
        <time>2019-11-09T08:55:05Z</time>
      </trkpt>
      <trkpt lat="43.28525" lon="6.02553">
        <ele>517.84375</ele>
        <time>2019-11-09T08:55:06Z</time>
      </trkpt>
      <trkpt lat="43.28525" lon="6.02557">
        <ele>517.87890625</ele>
        <time>2019-11-09T08:55:07Z</time>
      </trkpt>
      <trkpt lat="43.28529" lon="6.02609">
        <ele>519.6484375</ele>
        <time>2019-11-09T08:55:21Z</time>
      </trkpt>
      <trkpt lat="43.28541" lon="6.02646">
        <ele>521.91796875</ele>
        <time>2019-11-09T08:55:34Z</time>
      </trkpt>
      <trkpt lat="43.28552" lon="6.02685">
        <ele>522.015625</ele>
        <time>2019-11-09T08:55:48Z</time>
      </trkpt>
      <trkpt lat="43.28568" lon="6.02724">
        <ele>522.8671875</ele>
        <time>2019-11-09T08:56:04Z</time>
      </trkpt>
      <trkpt lat="43.28581" lon="6.02759">
        <ele>523.26171875</ele>
        <time>2019-11-09T08:56:17Z</time>
      </trkpt>
      <trkpt lat="43.28596" lon="6.02796">
        <ele>522.3515625</ele>
        <time>2019-11-09T08:56:31Z</time>
      </trkpt>
      <trkpt lat="43.28605" lon="6.02827">
        <ele>521.484375</ele>
        <time>2019-11-09T08:56:42Z</time>
      </trkpt>
      <trkpt lat="43.28618" lon="6.02853">
        <ele>520.90234375</ele>
        <time>2019-11-09T08:56:55Z</time>
      </trkpt>
      <trkpt lat="43.28619" lon="6.02854">
        <ele>520.80859375</ele>
        <time>2019-11-09T08:56:56Z</time>
      </trkpt>
      <trkpt lat="43.28621" lon="6.02854">
        <ele>520.73046875</ele>
        <time>2019-11-09T08:56:57Z</time>
      </trkpt>
      <trkpt lat="43.28623" lon="6.02854">
        <ele>520.69140625</ele>
        <time>2019-11-09T08:56:58Z</time>
      </trkpt>
      <trkpt lat="43.28625" lon="6.02853">
        <ele>520.6875</ele>
        <time>2019-11-09T08:56:59Z</time>
      </trkpt>
      <trkpt lat="43.28654" lon="6.02855">
        <ele>519.5390625</ele>
        <time>2019-11-09T08:57:13Z</time>
      </trkpt>
      <trkpt lat="43.28684" lon="6.02869">
        <ele>518.1796875</ele>
        <time>2019-11-09T08:57:24Z</time>
      </trkpt>
      <trkpt lat="43.2871" lon="6.02881">
        <ele>516.69140625</ele>
        <time>2019-11-09T08:57:30Z</time>
      </trkpt>
      <trkpt lat="43.28728" lon="6.02886">
        <ele>515.6875</ele>
        <time>2019-11-09T08:57:33Z</time>
      </trkpt>
      <trkpt lat="43.28745" lon="6.02896">
        <ele>514.58203125</ele>
        <time>2019-11-09T08:57:36Z</time>
      </trkpt>
      <trkpt lat="43.28751" lon="6.02897">
        <ele>514.43359375</ele>
        <time>2019-11-09T08:57:37Z</time>
      </trkpt>
      <trkpt lat="43.28758" lon="6.02896">
        <ele>514.52734375</ele>
        <time>2019-11-09T08:57:38Z</time>
      </trkpt>
      <trkpt lat="43.2877" lon="6.02894">
        <ele>514.9609375</ele>
        <time>2019-11-09T08:57:40Z</time>
      </trkpt>
      <trkpt lat="43.28775" lon="6.02894">
        <ele>514.8671875</ele>
        <time>2019-11-09T08:57:41Z</time>
      </trkpt>
      <trkpt lat="43.28781" lon="6.02897">
        <ele>514.50390625</ele>
        <time>2019-11-09T08:57:42Z</time>
      </trkpt>
      <trkpt lat="43.28786" lon="6.02901">
        <ele>513.9296875</ele>
        <time>2019-11-09T08:57:43Z</time>
      </trkpt>
      <trkpt lat="43.2879" lon="6.02906">
        <ele>513.15625</ele>
        <time>2019-11-09T08:57:44Z</time>
      </trkpt>
      <trkpt lat="43.28794" lon="6.02912">
        <ele>512.41015625</ele>
        <time>2019-11-09T08:57:45Z</time>
      </trkpt>
      <trkpt lat="43.28796" lon="6.0292">
        <ele>512.0625</ele>
        <time>2019-11-09T08:57:46Z</time>
      </trkpt>
      <trkpt lat="43.28799" lon="6.02927">
        <ele>511.66015625</ele>
        <time>2019-11-09T08:57:47Z</time>
      </trkpt>
      <trkpt lat="43.28802" lon="6.02934">
        <ele>511.27734375</ele>
        <time>2019-11-09T08:57:48Z</time>
      </trkpt>
      <trkpt lat="43.28805" lon="6.0294">
        <ele>510.9296875</ele>
        <time>2019-11-09T08:57:49Z</time>
      </trkpt>
      <trkpt lat="43.28809" lon="6.02946">
        <ele>510.69140625</ele>
        <time>2019-11-09T08:57:50Z</time>
      </trkpt>
      <trkpt lat="43.28813" lon="6.02952">
        <ele>510.390625</ele>
        <time>2019-11-09T08:57:51Z</time>
      </trkpt>
      <trkpt lat="43.28817" lon="6.02958">
        <ele>510.0546875</ele>
        <time>2019-11-09T08:57:52Z</time>
      </trkpt>
      <trkpt lat="43.28821" lon="6.02963">
        <ele>509.6796875</ele>
        <time>2019-11-09T08:57:53Z</time>
      </trkpt>
      <trkpt lat="43.28825" lon="6.02967">
        <ele>509.30859375</ele>
        <time>2019-11-09T08:57:54Z</time>
      </trkpt>
      <trkpt lat="43.28828" lon="6.02973">
        <ele>509</ele>
        <time>2019-11-09T08:57:55Z</time>
      </trkpt>
      <trkpt lat="43.28831" lon="6.02979">
        <ele>508.671875</ele>
        <time>2019-11-09T08:57:56Z</time>
      </trkpt>
      <trkpt lat="43.28836" lon="6.02984">
        <ele>508.390625</ele>
        <time>2019-11-09T08:57:57Z</time>
      </trkpt>
      <trkpt lat="43.28841" lon="6.02989">
        <ele>508.40625</ele>
        <time>2019-11-09T08:57:58Z</time>
      </trkpt>
      <trkpt lat="43.28846" lon="6.02995">
        <ele>508.375</ele>
        <time>2019-11-09T08:57:59Z</time>
      </trkpt>
      <trkpt lat="43.28849" lon="6.03002">
        <ele>508.36328125</ele>
        <time>2019-11-09T08:58:00Z</time>
      </trkpt>
      <trkpt lat="43.28853" lon="6.0301">
        <ele>508.28125</ele>
        <time>2019-11-09T08:58:01Z</time>
      </trkpt>
      <trkpt lat="43.28857" lon="6.03017">
        <ele>508.13671875</ele>
        <time>2019-11-09T08:58:02Z</time>
      </trkpt>
      <trkpt lat="43.28865" lon="6.0303">
        <ele>508.06640625</ele>
        <time>2019-11-09T08:58:04Z</time>
      </trkpt>
      <trkpt lat="43.28878" lon="6.03047">
        <ele>508.046875</ele>
        <time>2019-11-09T08:58:08Z</time>
      </trkpt>
      <trkpt lat="43.2888" lon="6.0305">
        <ele>508</ele>
        <time>2019-11-09T08:58:09Z</time>
      </trkpt>
      <trkpt lat="43.2888" lon="6.03052">
        <ele>508</ele>
        <time>2019-11-09T08:58:10Z</time>
      </trkpt>
      <trkpt lat="43.2888" lon="6.03054">
        <ele>508</ele>
        <time>2019-11-09T08:58:11Z</time>
      </trkpt>
      <trkpt lat="43.28879" lon="6.03056">
        <ele>508</ele>
        <time>2019-11-09T08:58:12Z</time>
      </trkpt>
      <trkpt lat="43.28879" lon="6.03058">
        <ele>508</ele>
        <time>2019-11-09T08:58:13Z</time>
      </trkpt>
      <trkpt lat="43.28878" lon="6.03059">
        <ele>508</ele>
        <time>2019-11-09T08:58:14Z</time>
      </trkpt>
      <trkpt lat="43.28877" lon="6.03063">
        <ele>508</ele>
        <time>2019-11-09T08:58:29Z</time>
      </trkpt>
      <trkpt lat="43.28867" lon="6.0307">
        <ele>508</ele>
        <time>2019-11-09T08:58:54Z</time>
      </trkpt>
      <trkpt lat="43.28844" lon="6.03105">
        <ele>507.6640625</ele>
        <time>2019-11-09T08:59:04Z</time>
      </trkpt>
      <trkpt lat="43.28839" lon="6.03113">
        <ele>507.5546875</ele>
        <time>2019-11-09T08:59:12Z</time>
      </trkpt>
      <trkpt lat="43.28839" lon="6.03112">
        <ele>507.5859375</ele>
        <time>2019-11-09T08:59:26Z</time>
      </trkpt>
      <trkpt lat="43.28843" lon="6.03109">
        <ele>507.546875</ele>
        <time>2019-11-09T08:59:34Z</time>
      </trkpt>
      <trkpt lat="43.28844" lon="6.0311">
        <ele>507.44921875</ele>
        <time>2019-11-09T08:59:35Z</time>
      </trkpt>
      <trkpt lat="43.28846" lon="6.03112">
        <ele>507.32421875</ele>
        <time>2019-11-09T08:59:36Z</time>
      </trkpt>
      <trkpt lat="43.28848" lon="6.03114">
        <ele>507.19140625</ele>
        <time>2019-11-09T08:59:37Z</time>
      </trkpt>
      <trkpt lat="43.28849" lon="6.03116">
        <ele>507.06640625</ele>
        <time>2019-11-09T08:59:38Z</time>
      </trkpt>
      <trkpt lat="43.2885" lon="6.03118">
        <ele>506.96484375</ele>
        <time>2019-11-09T08:59:39Z</time>
      </trkpt>
      <trkpt lat="43.28851" lon="6.03119">
        <ele>506.9140625</ele>
        <time>2019-11-09T08:59:51Z</time>
      </trkpt>
      <trkpt lat="43.28852" lon="6.03121">
        <ele>506.8125</ele>
        <time>2019-11-09T08:59:54Z</time>
      </trkpt>
      <trkpt lat="43.28853" lon="6.03123">
        <ele>506.6796875</ele>
        <time>2019-11-09T08:59:55Z</time>
      </trkpt>
      <trkpt lat="43.28855" lon="6.03126">
        <ele>506.5</ele>
        <time>2019-11-09T08:59:56Z</time>
      </trkpt>
      <trkpt lat="43.28856" lon="6.03131">
        <ele>506.28125</ele>
        <time>2019-11-09T08:59:57Z</time>
      </trkpt>
      <trkpt lat="43.28858" lon="6.03135">
        <ele>505.953125</ele>
        <time>2019-11-09T08:59:58Z</time>
      </trkpt>
      <trkpt lat="43.28859" lon="6.03139">
        <ele>505.54296875</ele>
        <time>2019-11-09T08:59:59Z</time>
      </trkpt>
      <trkpt lat="43.28861" lon="6.03146">
        <ele>504.67578125</ele>
        <time>2019-11-09T09:00:02Z</time>
      </trkpt>
      <trkpt lat="43.28867" lon="6.03172">
        <ele>501.8203125</ele>
        <time>2019-11-09T09:00:10Z</time>
      </trkpt>
      <trkpt lat="43.28879" lon="6.03206">
        <ele>498.18359375</ele>
        <time>2019-11-09T09:00:18Z</time>
      </trkpt>
      <trkpt lat="43.28889" lon="6.03222">
        <ele>495.9140625</ele>
        <time>2019-11-09T09:00:22Z</time>
      </trkpt>
      <trkpt lat="43.28898" lon="6.03233">
        <ele>494.4453125</ele>
        <time>2019-11-09T09:00:26Z</time>
      </trkpt>
      <trkpt lat="43.2891" lon="6.03248">
        <ele>492.18359375</ele>
        <time>2019-11-09T09:00:32Z</time>
      </trkpt>
      <trkpt lat="43.28922" lon="6.03258">
        <ele>490.7109375</ele>
        <time>2019-11-09T09:00:36Z</time>
      </trkpt>
      <trkpt lat="43.28942" lon="6.03276">
        <ele>489.32421875</ele>
        <time>2019-11-09T09:00:45Z</time>
      </trkpt>
      <trkpt lat="43.28951" lon="6.03288">
        <ele>488.73828125</ele>
        <time>2019-11-09T09:00:49Z</time>
      </trkpt>
      <trkpt lat="43.28954" lon="6.03289">
        <ele>488.59765625</ele>
        <time>2019-11-09T09:00:50Z</time>
      </trkpt>
      <trkpt lat="43.28955" lon="6.03292">
        <ele>488.5703125</ele>
        <time>2019-11-09T09:00:54Z</time>
      </trkpt>
      <trkpt lat="43.28951" lon="6.03295">
        <ele>488.765625</ele>
        <time>2019-11-09T09:01:07Z</time>
      </trkpt>
      <trkpt lat="43.2895" lon="6.03296">
        <ele>488.82421875</ele>
        <time>2019-11-09T09:01:08Z</time>
      </trkpt>
      <trkpt lat="43.28949" lon="6.03297">
        <ele>488.890625</ele>
        <time>2019-11-09T09:01:09Z</time>
      </trkpt>
      <trkpt lat="43.28947" lon="6.03298">
        <ele>488.94921875</ele>
        <time>2019-11-09T09:01:10Z</time>
      </trkpt>
      <trkpt lat="43.28946" lon="6.033">
        <ele>489.0859375</ele>
        <time>2019-11-09T09:01:11Z</time>
      </trkpt>
      <trkpt lat="43.28944" lon="6.03302">
        <ele>489.34375</ele>
        <time>2019-11-09T09:01:12Z</time>
      </trkpt>
      <trkpt lat="43.28938" lon="6.03306">
        <ele>490.328125</ele>
        <time>2019-11-09T09:01:22Z</time>
      </trkpt>
      <trkpt lat="43.28932" lon="6.0331">
        <ele>491.0546875</ele>
        <time>2019-11-09T09:01:31Z</time>
      </trkpt>
      <trkpt lat="43.28928" lon="6.03314">
        <ele>491.69921875</ele>
        <time>2019-11-09T09:01:38Z</time>
      </trkpt>
      <trkpt lat="43.28924" lon="6.0332">
        <ele>492.2421875</ele>
        <time>2019-11-09T09:01:50Z</time>
      </trkpt>
      <trkpt lat="43.28921" lon="6.03324">
        <ele>492.66796875</ele>
        <time>2019-11-09T09:01:53Z</time>
      </trkpt>
      <trkpt lat="43.28912" lon="6.03335">
        <ele>494.04296875</ele>
        <time>2019-11-09T09:02:02Z</time>
      </trkpt>
      <trkpt lat="43.28912" lon="6.03337">
        <ele>494.1640625</ele>
        <time>2019-11-09T09:02:03Z</time>
      </trkpt>
      <trkpt lat="43.28904" lon="6.0335">
        <ele>495.38671875</ele>
        <time>2019-11-09T09:02:11Z</time>
      </trkpt>
      <trkpt lat="43.28903" lon="6.03352">
        <ele>495.56640625</ele>
        <time>2019-11-09T09:02:12Z</time>
      </trkpt>
      <trkpt lat="43.28902" lon="6.03353">
        <ele>495.7109375</ele>
        <time>2019-11-09T09:02:13Z</time>
      </trkpt>
      <trkpt lat="43.28901" lon="6.03355">
        <ele>495.81640625</ele>
        <time>2019-11-09T09:02:14Z</time>
      </trkpt>
      <trkpt lat="43.28901" lon="6.03357">
        <ele>495.86328125</ele>
        <time>2019-11-09T09:02:15Z</time>
      </trkpt>
      <trkpt lat="43.289" lon="6.0336">
        <ele>495.90234375</ele>
        <time>2019-11-09T09:02:16Z</time>
      </trkpt>
      <trkpt lat="43.289" lon="6.03362">
        <ele>495.9296875</ele>
        <time>2019-11-09T09:02:17Z</time>
      </trkpt>
      <trkpt lat="43.289" lon="6.03364">
        <ele>495.93359375</ele>
        <time>2019-11-09T09:02:18Z</time>
      </trkpt>
      <trkpt lat="43.289" lon="6.03367">
        <ele>495.953125</ele>
        <time>2019-11-09T09:02:19Z</time>
      </trkpt>
      <trkpt lat="43.289" lon="6.03369">
        <ele>495.96484375</ele>
        <time>2019-11-09T09:02:20Z</time>
      </trkpt>
      <trkpt lat="43.289" lon="6.03372">
        <ele>495.9765625</ele>
        <time>2019-11-09T09:02:21Z</time>
      </trkpt>
      <trkpt lat="43.289" lon="6.03374">
        <ele>495.97265625</ele>
        <time>2019-11-09T09:02:22Z</time>
      </trkpt>
      <trkpt lat="43.289" lon="6.03377">
        <ele>495.94140625</ele>
        <time>2019-11-09T09:02:23Z</time>
      </trkpt>
      <trkpt lat="43.289" lon="6.03379">
        <ele>495.92578125</ele>
        <time>2019-11-09T09:02:24Z</time>
      </trkpt>
      <trkpt lat="43.289" lon="6.03384">
        <ele>495.984375</ele>
        <time>2019-11-09T09:02:27Z</time>
      </trkpt>
      <trkpt lat="43.28899" lon="6.03386">
        <ele>496.0703125</ele>
        <time>2019-11-09T09:02:28Z</time>
      </trkpt>
      <trkpt lat="43.28899" lon="6.03388">
        <ele>496.12890625</ele>
        <time>2019-11-09T09:02:29Z</time>
      </trkpt>
      <trkpt lat="43.28898" lon="6.03389">
        <ele>496.1953125</ele>
        <time>2019-11-09T09:02:30Z</time>
      </trkpt>
      <trkpt lat="43.28898" lon="6.0339">
        <ele>496.28125</ele>
        <time>2019-11-09T09:02:31Z</time>
      </trkpt>
      <trkpt lat="43.28896" lon="6.03392">
        <ele>496.40234375</ele>
        <time>2019-11-09T09:02:32Z</time>
      </trkpt>
      <trkpt lat="43.28892" lon="6.03396">
        <ele>496.859375</ele>
        <time>2019-11-09T09:02:35Z</time>
      </trkpt>
      <trkpt lat="43.2889" lon="6.03396">
        <ele>497.0546875</ele>
        <time>2019-11-09T09:02:36Z</time>
      </trkpt>
      <trkpt lat="43.28888" lon="6.03398">
        <ele>497.234375</ele>
        <time>2019-11-09T09:02:37Z</time>
      </trkpt>
      <trkpt lat="43.28887" lon="6.03399">
        <ele>497.3984375</ele>
        <time>2019-11-09T09:02:38Z</time>
      </trkpt>
      <trkpt lat="43.28885" lon="6.034">
        <ele>497.5703125</ele>
        <time>2019-11-09T09:02:39Z</time>
      </trkpt>
      <trkpt lat="43.28883" lon="6.03401">
        <ele>497.76171875</ele>
        <time>2019-11-09T09:02:40Z</time>
      </trkpt>
      <trkpt lat="43.28882" lon="6.03402">
        <ele>497.93359375</ele>
        <time>2019-11-09T09:02:41Z</time>
      </trkpt>
      <trkpt lat="43.2888" lon="6.03403">
        <ele>498.09375</ele>
        <time>2019-11-09T09:02:42Z</time>
      </trkpt>
      <trkpt lat="43.28874" lon="6.03407">
        <ele>498.74609375</ele>
        <time>2019-11-09T09:02:46Z</time>
      </trkpt>
      <trkpt lat="43.28873" lon="6.03408">
        <ele>498.89453125</ele>
        <time>2019-11-09T09:02:47Z</time>
      </trkpt>
      <trkpt lat="43.28858" lon="6.03423">
        <ele>500.50390625</ele>
        <time>2019-11-09T09:02:58Z</time>
      </trkpt>
      <trkpt lat="43.28856" lon="6.03424">
        <ele>500.66796875</ele>
        <time>2019-11-09T09:02:59Z</time>
      </trkpt>
      <trkpt lat="43.28855" lon="6.03424">
        <ele>500.83203125</ele>
        <time>2019-11-09T09:03:00Z</time>
      </trkpt>
      <trkpt lat="43.28853" lon="6.03425">
        <ele>501.015625</ele>
        <time>2019-11-09T09:03:01Z</time>
      </trkpt>
      <trkpt lat="43.28851" lon="6.03426">
        <ele>501.19140625</ele>
        <time>2019-11-09T09:03:02Z</time>
      </trkpt>
      <trkpt lat="43.2885" lon="6.03427">
        <ele>501.34375</ele>
        <time>2019-11-09T09:03:03Z</time>
      </trkpt>
      <trkpt lat="43.28849" lon="6.03428">
        <ele>501.4921875</ele>
        <time>2019-11-09T09:03:04Z</time>
      </trkpt>
      <trkpt lat="43.28847" lon="6.03428">
        <ele>501.671875</ele>
        <time>2019-11-09T09:03:05Z</time>
      </trkpt>
      <trkpt lat="43.28846" lon="6.03429">
        <ele>501.83203125</ele>
        <time>2019-11-09T09:03:06Z</time>
      </trkpt>
      <trkpt lat="43.28844" lon="6.0343">
        <ele>501.98046875</ele>
        <time>2019-11-09T09:03:07Z</time>
      </trkpt>
      <trkpt lat="43.28843" lon="6.03431">
        <ele>502.140625</ele>
        <time>2019-11-09T09:03:08Z</time>
      </trkpt>
      <trkpt lat="43.28841" lon="6.03431">
        <ele>502.3125</ele>
        <time>2019-11-09T09:03:09Z</time>
      </trkpt>
      <trkpt lat="43.28837" lon="6.03433">
        <ele>502.69921875</ele>
        <time>2019-11-09T09:03:12Z</time>
      </trkpt>
      <trkpt lat="43.28833" lon="6.03437">
        <ele>503.13671875</ele>
        <time>2019-11-09T09:03:15Z</time>
      </trkpt>
      <trkpt lat="43.28832" lon="6.03438">
        <ele>503.3359375</ele>
        <time>2019-11-09T09:03:16Z</time>
      </trkpt>
      <trkpt lat="43.2883" lon="6.0344">
        <ele>503.51953125</ele>
        <time>2019-11-09T09:03:17Z</time>
      </trkpt>
      <trkpt lat="43.28828" lon="6.03441">
        <ele>503.71875</ele>
        <time>2019-11-09T09:03:18Z</time>
      </trkpt>
      <trkpt lat="43.28826" lon="6.03442">
        <ele>503.90234375</ele>
        <time>2019-11-09T09:03:19Z</time>
      </trkpt>
      <trkpt lat="43.2882" lon="6.03446">
        <ele>504.63671875</ele>
        <time>2019-11-09T09:03:30Z</time>
      </trkpt>
      <trkpt lat="43.28816" lon="6.0345">
        <ele>505.01953125</ele>
        <time>2019-11-09T09:03:39Z</time>
      </trkpt>
      <trkpt lat="43.28807" lon="6.03459">
        <ele>505.98828125</ele>
        <time>2019-11-09T09:03:50Z</time>
      </trkpt>
      <trkpt lat="43.28805" lon="6.03461">
        <ele>506.30859375</ele>
        <time>2019-11-09T09:03:52Z</time>
      </trkpt>
      <trkpt lat="43.28804" lon="6.03462">
        <ele>506.5078125</ele>
        <time>2019-11-09T09:03:53Z</time>
      </trkpt>
      <trkpt lat="43.28803" lon="6.03463">
        <ele>506.703125</ele>
        <time>2019-11-09T09:03:54Z</time>
      </trkpt>
      <trkpt lat="43.28802" lon="6.03464">
        <ele>506.91015625</ele>
        <time>2019-11-09T09:03:55Z</time>
      </trkpt>
      <trkpt lat="43.28801" lon="6.03465">
        <ele>507.125</ele>
        <time>2019-11-09T09:03:56Z</time>
      </trkpt>
      <trkpt lat="43.28799" lon="6.03465">
        <ele>507.37109375</ele>
        <time>2019-11-09T09:03:57Z</time>
      </trkpt>
      <trkpt lat="43.28798" lon="6.03466">
        <ele>507.62890625</ele>
        <time>2019-11-09T09:03:58Z</time>
      </trkpt>
      <trkpt lat="43.28797" lon="6.03467">
        <ele>507.96484375</ele>
        <time>2019-11-09T09:03:59Z</time>
      </trkpt>
      <trkpt lat="43.28795" lon="6.03469">
        <ele>508.3671875</ele>
        <time>2019-11-09T09:04:00Z</time>
      </trkpt>
      <trkpt lat="43.28794" lon="6.0347">
        <ele>508.71875</ele>
        <time>2019-11-09T09:04:01Z</time>
      </trkpt>
      <trkpt lat="43.28778" lon="6.03483">
        <ele>511.8046875</ele>
        <time>2019-11-09T09:04:12Z</time>
      </trkpt>
      <trkpt lat="43.28776" lon="6.03484">
        <ele>512.00390625</ele>
        <time>2019-11-09T09:04:13Z</time>
      </trkpt>
      <trkpt lat="43.28771" lon="6.03485">
        <ele>512.5859375</ele>
        <time>2019-11-09T09:04:16Z</time>
      </trkpt>
      <trkpt lat="43.28769" lon="6.03486">
        <ele>512.76953125</ele>
        <time>2019-11-09T09:04:17Z</time>
      </trkpt>
      <trkpt lat="43.28768" lon="6.03487">
        <ele>512.984375</ele>
        <time>2019-11-09T09:04:18Z</time>
      </trkpt>
      <trkpt lat="43.28753" lon="6.03494">
        <ele>514.84375</ele>
        <time>2019-11-09T09:04:27Z</time>
      </trkpt>
      <trkpt lat="43.28752" lon="6.03495">
        <ele>515.05078125</ele>
        <time>2019-11-09T09:04:28Z</time>
      </trkpt>
      <trkpt lat="43.2875" lon="6.03496">
        <ele>515.2890625</ele>
        <time>2019-11-09T09:04:29Z</time>
      </trkpt>
      <trkpt lat="43.28749" lon="6.03497">
        <ele>515.52734375</ele>
        <time>2019-11-09T09:04:30Z</time>
      </trkpt>
      <trkpt lat="43.28748" lon="6.03499">
        <ele>515.76953125</ele>
        <time>2019-11-09T09:04:31Z</time>
      </trkpt>
      <trkpt lat="43.28747" lon="6.035">
        <ele>516.01171875</ele>
        <time>2019-11-09T09:04:32Z</time>
      </trkpt>
      <trkpt lat="43.28745" lon="6.03501">
        <ele>516.27734375</ele>
        <time>2019-11-09T09:04:33Z</time>
      </trkpt>
      <trkpt lat="43.28743" lon="6.03503">
        <ele>516.53515625</ele>
        <time>2019-11-09T09:04:34Z</time>
      </trkpt>
      <trkpt lat="43.28742" lon="6.03503">
        <ele>516.78125</ele>
        <time>2019-11-09T09:04:35Z</time>
      </trkpt>
      <trkpt lat="43.28737" lon="6.03505">
        <ele>517.39453125</ele>
        <time>2019-11-09T09:04:38Z</time>
      </trkpt>
      <trkpt lat="43.28736" lon="6.03505">
        <ele>517.5390625</ele>
        <time>2019-11-09T09:04:39Z</time>
      </trkpt>
      <trkpt lat="43.28734" lon="6.03505">
        <ele>517.7109375</ele>
        <time>2019-11-09T09:04:40Z</time>
      </trkpt>
      <trkpt lat="43.28733" lon="6.03506">
        <ele>517.90625</ele>
        <time>2019-11-09T09:04:41Z</time>
      </trkpt>
      <trkpt lat="43.28731" lon="6.03506">
        <ele>518.08984375</ele>
        <time>2019-11-09T09:04:42Z</time>
      </trkpt>
      <trkpt lat="43.2873" lon="6.03507">
        <ele>518.27734375</ele>
        <time>2019-11-09T09:04:43Z</time>
      </trkpt>
      <trkpt lat="43.28729" lon="6.03509">
        <ele>518.50390625</ele>
        <time>2019-11-09T09:04:44Z</time>
      </trkpt>
      <trkpt lat="43.28728" lon="6.03511">
        <ele>518.73828125</ele>
        <time>2019-11-09T09:04:45Z</time>
      </trkpt>
      <trkpt lat="43.28727" lon="6.03512">
        <ele>518.98828125</ele>
        <time>2019-11-09T09:04:46Z</time>
      </trkpt>
      <trkpt lat="43.28725" lon="6.03513">
        <ele>519.23046875</ele>
        <time>2019-11-09T09:04:47Z</time>
      </trkpt>
      <trkpt lat="43.28723" lon="6.03513">
        <ele>519.4296875</ele>
        <time>2019-11-09T09:04:48Z</time>
      </trkpt>
      <trkpt lat="43.28722" lon="6.03513">
        <ele>519.5078125</ele>
        <time>2019-11-09T09:04:49Z</time>
      </trkpt>
      <trkpt lat="43.2872" lon="6.03513">
        <ele>519.58203125</ele>
        <time>2019-11-09T09:04:50Z</time>
      </trkpt>
      <trkpt lat="43.28718" lon="6.03513">
        <ele>519.63671875</ele>
        <time>2019-11-09T09:04:51Z</time>
      </trkpt>
      <trkpt lat="43.28717" lon="6.03512">
        <ele>519.66015625</ele>
        <time>2019-11-09T09:04:52Z</time>
      </trkpt>
      <trkpt lat="43.28716" lon="6.03511">
        <ele>519.6640625</ele>
        <time>2019-11-09T09:04:53Z</time>
      </trkpt>
      <trkpt lat="43.28714" lon="6.03511">
        <ele>519.70703125</ele>
        <time>2019-11-09T09:04:54Z</time>
      </trkpt>
      <trkpt lat="43.28713" lon="6.03511">
        <ele>519.76953125</ele>
        <time>2019-11-09T09:04:55Z</time>
      </trkpt>
      <trkpt lat="43.2871" lon="6.03509">
        <ele>519.84765625</ele>
        <time>2019-11-09T09:05:08Z</time>
      </trkpt>
      <trkpt lat="43.28709" lon="6.03508">
        <ele>519.8203125</ele>
        <time>2019-11-09T09:05:39Z</time>
      </trkpt>
      <trkpt lat="43.28708" lon="6.0351">
        <ele>520</ele>
        <time>2019-11-09T09:06:11Z</time>
      </trkpt>
      <trkpt lat="43.28706" lon="6.03511">
        <ele>520.1015625</ele>
        <time>2019-11-09T09:06:44Z</time>
      </trkpt>
      <trkpt lat="43.28706" lon="6.03512">
        <ele>520.1953125</ele>
        <time>2019-11-09T09:07:20Z</time>
      </trkpt>
      <trkpt lat="43.28706" lon="6.0351">
        <ele>520.09375</ele>
        <time>2019-11-09T09:07:50Z</time>
      </trkpt>
      <trkpt lat="43.28708" lon="6.03509">
        <ele>519.91015625</ele>
        <time>2019-11-09T09:08:21Z</time>
      </trkpt>
      <trkpt lat="43.28709" lon="6.03509">
        <ele>519.88671875</ele>
        <time>2019-11-09T09:08:54Z</time>
      </trkpt>
      <trkpt lat="43.28709" lon="6.03507">
        <ele>519.80078125</ele>
        <time>2019-11-09T09:09:19Z</time>
      </trkpt>
      <trkpt lat="43.28709" lon="6.03508">
        <ele>519.82421875</ele>
        <time>2019-11-09T09:09:47Z</time>
      </trkpt>
      <trkpt lat="43.28711" lon="6.03506">
        <ele>519.62890625</ele>
        <time>2019-11-09T09:10:06Z</time>
      </trkpt>
      <trkpt lat="43.2871" lon="6.03505">
        <ele>519.6171875</ele>
        <time>2019-11-09T09:10:36Z</time>
      </trkpt>
      <trkpt lat="43.28709" lon="6.03503">
        <ele>519.58203125</ele>
        <time>2019-11-09T09:10:38Z</time>
      </trkpt>
      <trkpt lat="43.28706" lon="6.03501">
        <ele>519.640625</ele>
        <time>2019-11-09T09:10:40Z</time>
      </trkpt>
      <trkpt lat="43.28704" lon="6.035">
        <ele>519.7421875</ele>
        <time>2019-11-09T09:10:41Z</time>
      </trkpt>
      <trkpt lat="43.28702" lon="6.035">
        <ele>519.81640625</ele>
        <time>2019-11-09T09:10:42Z</time>
      </trkpt>
      <trkpt lat="43.28701" lon="6.03499">
        <ele>519.88671875</ele>
        <time>2019-11-09T09:10:43Z</time>
      </trkpt>
      <trkpt lat="43.28699" lon="6.03498">
        <ele>519.9765625</ele>
        <time>2019-11-09T09:10:44Z</time>
      </trkpt>
      <trkpt lat="43.28685" lon="6.03505">
        <ele>521.02734375</ele>
        <time>2019-11-09T09:10:54Z</time>
      </trkpt>
      <trkpt lat="43.28683" lon="6.03508">
        <ele>521.234375</ele>
        <time>2019-11-09T09:11:05Z</time>
      </trkpt>
      <trkpt lat="43.28682" lon="6.03509">
        <ele>521.30078125</ele>
        <time>2019-11-09T09:11:07Z</time>
      </trkpt>
      <trkpt lat="43.2868" lon="6.03511">
        <ele>521.421875</ele>
        <time>2019-11-09T09:11:10Z</time>
      </trkpt>
      <trkpt lat="43.28679" lon="6.03512">
        <ele>521.50390625</ele>
        <time>2019-11-09T09:11:11Z</time>
      </trkpt>
      <trkpt lat="43.28677" lon="6.03513">
        <ele>521.609375</ele>
        <time>2019-11-09T09:11:12Z</time>
      </trkpt>
      <trkpt lat="43.28675" lon="6.03514">
        <ele>521.70703125</ele>
        <time>2019-11-09T09:11:13Z</time>
      </trkpt>
      <trkpt lat="43.28673" lon="6.03514">
        <ele>521.7890625</ele>
        <time>2019-11-09T09:11:14Z</time>
      </trkpt>
      <trkpt lat="43.2865" lon="6.03519">
        <ele>522.71484375</ele>
        <time>2019-11-09T09:11:26Z</time>
      </trkpt>
      <trkpt lat="43.28639" lon="6.03526">
        <ele>523.51171875</ele>
        <time>2019-11-09T09:11:29Z</time>
      </trkpt>
      <trkpt lat="43.28635" lon="6.03528">
        <ele>523.64453125</ele>
        <time>2019-11-09T09:11:30Z</time>
      </trkpt>
      <trkpt lat="43.28604" lon="6.03522">
        <ele>522.703125</ele>
        <time>2019-11-09T09:11:39Z</time>
      </trkpt>
      <trkpt lat="43.28592" lon="6.03526">
        <ele>522.5078125</ele>
        <time>2019-11-09T09:11:43Z</time>
      </trkpt>
      <trkpt lat="43.28591" lon="6.0353">
        <ele>522.6015625</ele>
        <time>2019-11-09T09:11:44Z</time>
      </trkpt>
      <trkpt lat="43.28589" lon="6.03534">
        <ele>522.65625</ele>
        <time>2019-11-09T09:11:45Z</time>
      </trkpt>
      <trkpt lat="43.28585" lon="6.03536">
        <ele>522.58203125</ele>
        <time>2019-11-09T09:11:46Z</time>
      </trkpt>
      <trkpt lat="43.28581" lon="6.03537">
        <ele>522.41015625</ele>
        <time>2019-11-09T09:11:47Z</time>
      </trkpt>
      <trkpt lat="43.28577" lon="6.03537">
        <ele>522.1640625</ele>
        <time>2019-11-09T09:11:48Z</time>
      </trkpt>
      <trkpt lat="43.28572" lon="6.03536">
        <ele>521.84375</ele>
        <time>2019-11-09T09:11:49Z</time>
      </trkpt>
      <trkpt lat="43.28567" lon="6.03535">
        <ele>521.53515625</ele>
        <time>2019-11-09T09:11:50Z</time>
      </trkpt>
      <trkpt lat="43.28561" lon="6.03535">
        <ele>521.21484375</ele>
        <time>2019-11-09T09:11:51Z</time>
      </trkpt>
      <trkpt lat="43.28555" lon="6.03535">
        <ele>520.890625</ele>
        <time>2019-11-09T09:11:52Z</time>
      </trkpt>
      <trkpt lat="43.28549" lon="6.03535">
        <ele>520.68359375</ele>
        <time>2019-11-09T09:11:53Z</time>
      </trkpt>
      <trkpt lat="43.28543" lon="6.03536">
        <ele>520.546875</ele>
        <time>2019-11-09T09:11:54Z</time>
      </trkpt>
      <trkpt lat="43.28538" lon="6.03537">
        <ele>520.453125</ele>
        <time>2019-11-09T09:11:55Z</time>
      </trkpt>
      <trkpt lat="43.28524" lon="6.03542">
        <ele>520.515625</ele>
        <time>2019-11-09T09:11:58Z</time>
      </trkpt>
      <trkpt lat="43.28519" lon="6.03545">
        <ele>520.6953125</ele>
        <time>2019-11-09T09:11:59Z</time>
      </trkpt>
      <trkpt lat="43.28515" lon="6.03547">
        <ele>520.8359375</ele>
        <time>2019-11-09T09:12:00Z</time>
      </trkpt>
      <trkpt lat="43.2851" lon="6.03549">
        <ele>521.00390625</ele>
        <time>2019-11-09T09:12:01Z</time>
      </trkpt>
      <trkpt lat="43.28506" lon="6.03552">
        <ele>521.27734375</ele>
        <time>2019-11-09T09:12:02Z</time>
      </trkpt>
      <trkpt lat="43.28484" lon="6.03562">
        <ele>523.05859375</ele>
        <time>2019-11-09T09:12:09Z</time>
      </trkpt>
      <trkpt lat="43.28483" lon="6.03562">
        <ele>523.12890625</ele>
        <time>2019-11-09T09:12:10Z</time>
      </trkpt>
      <trkpt lat="43.28474" lon="6.03564">
        <ele>523.6640625</ele>
        <time>2019-11-09T09:12:24Z</time>
      </trkpt>
      <trkpt lat="43.28462" lon="6.03566">
        <ele>523.86328125</ele>
        <time>2019-11-09T09:12:34Z</time>
      </trkpt>
      <trkpt lat="43.28458" lon="6.03567">
        <ele>524</ele>
        <time>2019-11-09T09:12:36Z</time>
      </trkpt>
      <trkpt lat="43.28445" lon="6.03581">
        <ele>525.66796875</ele>
        <time>2019-11-09T09:12:44Z</time>
      </trkpt>
      <trkpt lat="43.28443" lon="6.03582">
        <ele>525.8203125</ele>
        <time>2019-11-09T09:12:45Z</time>
      </trkpt>
      <trkpt lat="43.2844" lon="6.03582">
        <ele>525.9140625</ele>
        <time>2019-11-09T09:12:46Z</time>
      </trkpt>
      <trkpt lat="43.28438" lon="6.03582">
        <ele>526.0078125</ele>
        <time>2019-11-09T09:12:47Z</time>
      </trkpt>
      <trkpt lat="43.28436" lon="6.03583">
        <ele>526.16015625</ele>
        <time>2019-11-09T09:12:48Z</time>
      </trkpt>
      <trkpt lat="43.28433" lon="6.03583">
        <ele>526.3203125</ele>
        <time>2019-11-09T09:12:49Z</time>
      </trkpt>
      <trkpt lat="43.28404" lon="6.03591">
        <ele>527.82421875</ele>
        <time>2019-11-09T09:13:01Z</time>
      </trkpt>
      <trkpt lat="43.28378" lon="6.03605">
        <ele>529.07421875</ele>
        <time>2019-11-09T09:13:11Z</time>
      </trkpt>
      <trkpt lat="43.28368" lon="6.03615">
        <ele>530.17578125</ele>
        <time>2019-11-09T09:13:15Z</time>
      </trkpt>
      <trkpt lat="43.28365" lon="6.03615">
        <ele>530.203125</ele>
        <time>2019-11-09T09:13:16Z</time>
      </trkpt>
      <trkpt lat="43.28351" lon="6.03619">
        <ele>529.875</ele>
        <time>2019-11-09T09:13:25Z</time>
      </trkpt>
      <trkpt lat="43.28347" lon="6.03621">
        <ele>529.859375</ele>
        <time>2019-11-09T09:13:39Z</time>
      </trkpt>
      <trkpt lat="43.28345" lon="6.03622">
        <ele>529.85546875</ele>
        <time>2019-11-09T09:13:51Z</time>
      </trkpt>
      <trkpt lat="43.28344" lon="6.03623">
        <ele>529.828125</ele>
        <time>2019-11-09T09:13:52Z</time>
      </trkpt>
      <trkpt lat="43.28343" lon="6.03623">
        <ele>529.80078125</ele>
        <time>2019-11-09T09:13:53Z</time>
      </trkpt>
      <trkpt lat="43.28341" lon="6.03624">
        <ele>529.74609375</ele>
        <time>2019-11-09T09:13:54Z</time>
      </trkpt>
      <trkpt lat="43.28339" lon="6.03624">
        <ele>529.671875</ele>
        <time>2019-11-09T09:13:55Z</time>
      </trkpt>
      <trkpt lat="43.28338" lon="6.03625">
        <ele>529.609375</ele>
        <time>2019-11-09T09:13:56Z</time>
      </trkpt>
      <trkpt lat="43.28336" lon="6.03626">
        <ele>529.60546875</ele>
        <time>2019-11-09T09:13:57Z</time>
      </trkpt>
      <trkpt lat="43.28333" lon="6.03628">
        <ele>529.6015625</ele>
        <time>2019-11-09T09:13:58Z</time>
      </trkpt>
      <trkpt lat="43.2833" lon="6.03628">
        <ele>529.55078125</ele>
        <time>2019-11-09T09:13:59Z</time>
      </trkpt>
      <trkpt lat="43.28302" lon="6.03636">
        <ele>529.23828125</ele>
        <time>2019-11-09T09:14:08Z</time>
      </trkpt>
      <trkpt lat="43.283" lon="6.03636">
        <ele>529.2734375</ele>
        <time>2019-11-09T09:14:09Z</time>
      </trkpt>
      <trkpt lat="43.28296" lon="6.03636">
        <ele>529.25390625</ele>
        <time>2019-11-09T09:14:10Z</time>
      </trkpt>
      <trkpt lat="43.28293" lon="6.03636">
        <ele>529.2421875</ele>
        <time>2019-11-09T09:14:11Z</time>
      </trkpt>
      <trkpt lat="43.2829" lon="6.03635">
        <ele>529.2265625</ele>
        <time>2019-11-09T09:14:12Z</time>
      </trkpt>
      <trkpt lat="43.28287" lon="6.03634">
        <ele>529.109375</ele>
        <time>2019-11-09T09:14:13Z</time>
      </trkpt>
      <trkpt lat="43.28284" lon="6.03631">
        <ele>528.93359375</ele>
        <time>2019-11-09T09:14:14Z</time>
      </trkpt>
      <trkpt lat="43.28281" lon="6.0363">
        <ele>528.828125</ele>
        <time>2019-11-09T09:14:15Z</time>
      </trkpt>
      <trkpt lat="43.28278" lon="6.03629">
        <ele>528.80078125</ele>
        <time>2019-11-09T09:14:16Z</time>
      </trkpt>
      <trkpt lat="43.28276" lon="6.03629">
        <ele>528.79296875</ele>
        <time>2019-11-09T09:14:17Z</time>
      </trkpt>
      <trkpt lat="43.28272" lon="6.03628">
        <ele>528.75390625</ele>
        <time>2019-11-09T09:14:29Z</time>
      </trkpt>
      <trkpt lat="43.28272" lon="6.03629">
        <ele>528.81640625</ele>
        <time>2019-11-09T09:14:52Z</time>
      </trkpt>
      <trkpt lat="43.28272" lon="6.03626">
        <ele>528.5859375</ele>
        <time>2019-11-09T09:15:23Z</time>
      </trkpt>
      <trkpt lat="43.28271" lon="6.03623">
        <ele>528.42578125</ele>
        <time>2019-11-09T09:15:58Z</time>
      </trkpt>
      <trkpt lat="43.28271" lon="6.03625">
        <ele>528.58203125</ele>
        <time>2019-11-09T09:16:28Z</time>
      </trkpt>
      <trkpt lat="43.28262" lon="6.03622">
        <ele>528.51953125</ele>
        <time>2019-11-09T09:16:43Z</time>
      </trkpt>
      <trkpt lat="43.28255" lon="6.03618">
        <ele>528.4375</ele>
        <time>2019-11-09T09:16:46Z</time>
      </trkpt>
      <trkpt lat="43.28216" lon="6.0363">
        <ele>529.19921875</ele>
        <time>2019-11-09T09:16:58Z</time>
      </trkpt>
      <trkpt lat="43.28182" lon="6.0364">
        <ele>530.2890625</ele>
        <time>2019-11-09T09:17:09Z</time>
      </trkpt>
      <trkpt lat="43.28145" lon="6.03671">
        <ele>533.125</ele>
        <time>2019-11-09T09:17:22Z</time>
      </trkpt>
      <trkpt lat="43.28112" lon="6.03694">
        <ele>534.484375</ele>
        <time>2019-11-09T09:17:33Z</time>
      </trkpt>
      <trkpt lat="43.28083" lon="6.03721">
        <ele>537.3828125</ele>
        <time>2019-11-09T09:17:44Z</time>
      </trkpt>
      <trkpt lat="43.28048" lon="6.03747">
        <ele>539.24609375</ele>
        <time>2019-11-09T09:17:58Z</time>
      </trkpt>
      <trkpt lat="43.28029" lon="6.03763">
        <ele>539.72265625</ele>
        <time>2019-11-09T09:18:11Z</time>
      </trkpt>
      <trkpt lat="43.28028" lon="6.03765">
        <ele>539.77734375</ele>
        <time>2019-11-09T09:18:13Z</time>
      </trkpt>
      <trkpt lat="43.28027" lon="6.03766">
        <ele>539.81640625</ele>
        <time>2019-11-09T09:18:14Z</time>
      </trkpt>
      <trkpt lat="43.28026" lon="6.03767">
        <ele>539.8515625</ele>
        <time>2019-11-09T09:18:27Z</time>
      </trkpt>
      <trkpt lat="43.28025" lon="6.03769">
        <ele>539.92578125</ele>
        <time>2019-11-09T09:18:30Z</time>
      </trkpt>
      <trkpt lat="43.28025" lon="6.03771">
        <ele>539.984375</ele>
        <time>2019-11-09T09:18:31Z</time>
      </trkpt>
      <trkpt lat="43.28026" lon="6.03772">
        <ele>540.078125</ele>
        <time>2019-11-09T09:18:32Z</time>
      </trkpt>
      <trkpt lat="43.28027" lon="6.03773">
        <ele>540.1796875</ele>
        <time>2019-11-09T09:18:33Z</time>
      </trkpt>
      <trkpt lat="43.28029" lon="6.03773">
        <ele>540.1640625</ele>
        <time>2019-11-09T09:18:34Z</time>
      </trkpt>
      <trkpt lat="43.28031" lon="6.03772">
        <ele>540.16015625</ele>
        <time>2019-11-09T09:18:35Z</time>
      </trkpt>
      <trkpt lat="43.28038" lon="6.03769">
        <ele>540.203125</ele>
        <time>2019-11-09T09:18:46Z</time>
      </trkpt>
      <trkpt lat="43.28037" lon="6.0377">
        <ele>540.2109375</ele>
        <time>2019-11-09T09:19:18Z</time>
      </trkpt>
      <trkpt lat="43.28038" lon="6.03772">
        <ele>540.34765625</ele>
        <time>2019-11-09T09:19:46Z</time>
      </trkpt>
      <trkpt lat="43.28038" lon="6.0377">
        <ele>540.27734375</ele>
        <time>2019-11-09T09:20:08Z</time>
      </trkpt>
      <trkpt lat="43.28039" lon="6.03769">
        <ele>540.20703125</ele>
        <time>2019-11-09T09:20:38Z</time>
      </trkpt>
      <trkpt lat="43.2804" lon="6.03768">
        <ele>540.2109375</ele>
        <time>2019-11-09T09:21:05Z</time>
      </trkpt>
      <trkpt lat="43.28039" lon="6.03769">
        <ele>540.21484375</ele>
        <time>2019-11-09T09:21:27Z</time>
      </trkpt>
      <trkpt lat="43.28039" lon="6.03771">
        <ele>540.3203125</ele>
        <time>2019-11-09T09:21:51Z</time>
      </trkpt>
      <trkpt lat="43.2804" lon="6.03771">
        <ele>540.359375</ele>
        <time>2019-11-09T09:22:13Z</time>
      </trkpt>
      <trkpt lat="43.28039" lon="6.03771">
        <ele>540.33203125</ele>
        <time>2019-11-09T09:22:38Z</time>
      </trkpt>
      <trkpt lat="43.2804" lon="6.0377">
        <ele>540.2890625</ele>
        <time>2019-11-09T09:23:04Z</time>
      </trkpt>
      <trkpt lat="43.2804" lon="6.0377">
        <ele>540.3046875</ele>
        <time>2019-11-09T09:23:30Z</time>
      </trkpt>
      <trkpt lat="43.28039" lon="6.03769">
        <ele>540.203125</ele>
        <time>2019-11-09T09:23:53Z</time>
      </trkpt>
      <trkpt lat="43.28038" lon="6.03769">
        <ele>540.22265625</ele>
        <time>2019-11-09T09:24:15Z</time>
      </trkpt>
      <trkpt lat="43.28038" lon="6.03769">
        <ele>540.21875</ele>
        <time>2019-11-09T09:24:39Z</time>
      </trkpt>
      <trkpt lat="43.2804" lon="6.03769">
        <ele>540.28125</ele>
        <time>2019-11-09T09:25:00Z</time>
      </trkpt>
      <trkpt lat="43.2804" lon="6.03769">
        <ele>540.2890625</ele>
        <time>2019-11-09T09:25:26Z</time>
      </trkpt>
      <trkpt lat="43.28037" lon="6.0377">
        <ele>540.234375</ele>
        <time>2019-11-09T09:25:54Z</time>
      </trkpt>
      <trkpt lat="43.28038" lon="6.03772">
        <ele>540.32421875</ele>
        <time>2019-11-09T09:26:26Z</time>
      </trkpt>
      <trkpt lat="43.28039" lon="6.0377">
        <ele>540.296875</ele>
        <time>2019-11-09T09:26:54Z</time>
      </trkpt>
      <trkpt lat="43.28039" lon="6.03769">
        <ele>540.22265625</ele>
        <time>2019-11-09T09:27:22Z</time>
      </trkpt>
      <trkpt lat="43.28039" lon="6.03767">
        <ele>540.16015625</ele>
        <time>2019-11-09T09:28:04Z</time>
      </trkpt>
      <trkpt lat="43.28039" lon="6.03771">
        <ele>540.32421875</ele>
        <time>2019-11-09T09:28:46Z</time>
      </trkpt>
      <trkpt lat="43.28036" lon="6.03771">
        <ele>540.2421875</ele>
        <time>2019-11-09T09:29:15Z</time>
      </trkpt>
      <trkpt lat="43.28034" lon="6.03771">
        <ele>540.15625</ele>
        <time>2019-11-09T09:29:34Z</time>
      </trkpt>
      <trkpt lat="43.28033" lon="6.0377">
        <ele>540.09375</ele>
        <time>2019-11-09T09:29:35Z</time>
      </trkpt>
      <trkpt lat="43.28032" lon="6.0377">
        <ele>540.03125</ele>
        <time>2019-11-09T09:29:36Z</time>
      </trkpt>
      <trkpt lat="43.2803" lon="6.0377">
        <ele>539.984375</ele>
        <time>2019-11-09T09:29:37Z</time>
      </trkpt>
      <trkpt lat="43.28029" lon="6.03771">
        <ele>539.98828125</ele>
        <time>2019-11-09T09:29:38Z</time>
      </trkpt>
      <trkpt lat="43.28028" lon="6.03772">
        <ele>540.0546875</ele>
        <time>2019-11-09T09:29:39Z</time>
      </trkpt>
      <trkpt lat="43.28036" lon="6.03776">
        <ele>540.5625</ele>
        <time>2019-11-09T09:29:50Z</time>
      </trkpt>
      <trkpt lat="43.28037" lon="6.03777">
        <ele>540.68359375</ele>
        <time>2019-11-09T09:29:51Z</time>
      </trkpt>
      <trkpt lat="43.28038" lon="6.03778">
        <ele>540.80859375</ele>
        <time>2019-11-09T09:29:52Z</time>
      </trkpt>
      <trkpt lat="43.28038" lon="6.03779">
        <ele>540.91015625</ele>
        <time>2019-11-09T09:29:53Z</time>
      </trkpt>
      <trkpt lat="43.28039" lon="6.0378">
        <ele>541.00390625</ele>
        <time>2019-11-09T09:29:54Z</time>
      </trkpt>
      <trkpt lat="43.28039" lon="6.03782">
        <ele>541.109375</ele>
        <time>2019-11-09T09:29:55Z</time>
      </trkpt>
      <trkpt lat="43.2805" lon="6.03806">
        <ele>543.53515625</ele>
        <time>2019-11-09T09:30:09Z</time>
      </trkpt>
      <trkpt lat="43.28064" lon="6.03831">
        <ele>547.17578125</ele>
        <time>2019-11-09T09:30:24Z</time>
      </trkpt>
      <trkpt lat="43.2808" lon="6.03851">
        <ele>551.13671875</ele>
        <time>2019-11-09T09:30:39Z</time>
      </trkpt>
      <trkpt lat="43.28101" lon="6.0387">
        <ele>556.76171875</ele>
        <time>2019-11-09T09:30:54Z</time>
      </trkpt>
      <trkpt lat="43.28105" lon="6.03894">
        <ele>560.796875</ele>
        <time>2019-11-09T09:31:09Z</time>
      </trkpt>
      <trkpt lat="43.28104" lon="6.03916">
        <ele>563.01171875</ele>
        <time>2019-11-09T09:31:22Z</time>
      </trkpt>
      <trkpt lat="43.28104" lon="6.03917">
        <ele>563.15234375</ele>
        <time>2019-11-09T09:31:23Z</time>
      </trkpt>
      <trkpt lat="43.28104" lon="6.03919">
        <ele>563.35546875</ele>
        <time>2019-11-09T09:31:24Z</time>
      </trkpt>
      <trkpt lat="43.28104" lon="6.03921">
        <ele>563.59765625</ele>
        <time>2019-11-09T09:31:25Z</time>
      </trkpt>
      <trkpt lat="43.28104" lon="6.03923">
        <ele>563.8203125</ele>
        <time>2019-11-09T09:31:26Z</time>
      </trkpt>
      <trkpt lat="43.28104" lon="6.03925">
        <ele>564</ele>
        <time>2019-11-09T09:31:27Z</time>
      </trkpt>
      <trkpt lat="43.28104" lon="6.03927">
        <ele>564.1484375</ele>
        <time>2019-11-09T09:31:28Z</time>
      </trkpt>
      <trkpt lat="43.28103" lon="6.03928">
        <ele>564.28515625</ele>
        <time>2019-11-09T09:31:29Z</time>
      </trkpt>
      <trkpt lat="43.28103" lon="6.0393">
        <ele>564.40625</ele>
        <time>2019-11-09T09:31:30Z</time>
      </trkpt>
      <trkpt lat="43.28103" lon="6.03931">
        <ele>564.53515625</ele>
        <time>2019-11-09T09:31:31Z</time>
      </trkpt>
      <trkpt lat="43.28103" lon="6.03933">
        <ele>564.66796875</ele>
        <time>2019-11-09T09:31:32Z</time>
      </trkpt>
      <trkpt lat="43.28103" lon="6.03935">
        <ele>564.828125</ele>
        <time>2019-11-09T09:31:33Z</time>
      </trkpt>
      <trkpt lat="43.28103" lon="6.03936">
        <ele>564.984375</ele>
        <time>2019-11-09T09:31:34Z</time>
      </trkpt>
      <trkpt lat="43.28101" lon="6.03963">
        <ele>567.61328125</ele>
        <time>2019-11-09T09:31:49Z</time>
      </trkpt>
      <trkpt lat="43.2809" lon="6.03984">
        <ele>568.359375</ele>
        <time>2019-11-09T09:32:03Z</time>
      </trkpt>
      <trkpt lat="43.28072" lon="6.03984">
        <ele>566.828125</ele>
        <time>2019-11-09T09:32:18Z</time>
      </trkpt>
      <trkpt lat="43.28071" lon="6.03985">
        <ele>566.79296875</ele>
        <time>2019-11-09T09:32:19Z</time>
      </trkpt>
      <trkpt lat="43.2807" lon="6.03985">
        <ele>566.72265625</ele>
        <time>2019-11-09T09:32:20Z</time>
      </trkpt>
      <trkpt lat="43.28052" lon="6.03989">
        <ele>566.6171875</ele>
        <time>2019-11-09T09:32:35Z</time>
      </trkpt>
      <trkpt lat="43.28036" lon="6.03996">
        <ele>568.4375</ele>
        <time>2019-11-09T09:32:49Z</time>
      </trkpt>
      <trkpt lat="43.2802" lon="6.04002">
        <ele>569.81640625</ele>
        <time>2019-11-09T09:33:03Z</time>
      </trkpt>
      <trkpt lat="43.28015" lon="6.04011">
        <ele>571.9140625</ele>
        <time>2019-11-09T09:33:10Z</time>
      </trkpt>
      <trkpt lat="43.28015" lon="6.04013">
        <ele>572.2734375</ele>
        <time>2019-11-09T09:33:11Z</time>
      </trkpt>
      <trkpt lat="43.28016" lon="6.04015">
        <ele>572.65234375</ele>
        <time>2019-11-09T09:33:12Z</time>
      </trkpt>
      <trkpt lat="43.28016" lon="6.04016">
        <ele>572.96484375</ele>
        <time>2019-11-09T09:33:13Z</time>
      </trkpt>
      <trkpt lat="43.28017" lon="6.04017">
        <ele>573.23046875</ele>
        <time>2019-11-09T09:33:14Z</time>
      </trkpt>
      <trkpt lat="43.28018" lon="6.04019">
        <ele>573.5</ele>
        <time>2019-11-09T09:33:15Z</time>
      </trkpt>
      <trkpt lat="43.28027" lon="6.04022">
        <ele>574.28125</ele>
        <time>2019-11-09T09:33:22Z</time>
      </trkpt>
      <trkpt lat="43.28029" lon="6.04023">
        <ele>574.3984375</ele>
        <time>2019-11-09T09:33:23Z</time>
      </trkpt>
      <trkpt lat="43.28031" lon="6.04024">
        <ele>574.4296875</ele>
        <time>2019-11-09T09:33:24Z</time>
      </trkpt>
      <trkpt lat="43.28032" lon="6.04024">
        <ele>574.4609375</ele>
        <time>2019-11-09T09:33:25Z</time>
      </trkpt>
      <trkpt lat="43.28033" lon="6.04025">
        <ele>574.484375</ele>
        <time>2019-11-09T09:33:26Z</time>
      </trkpt>
      <trkpt lat="43.28034" lon="6.04025">
        <ele>574.50390625</ele>
        <time>2019-11-09T09:33:27Z</time>
      </trkpt>
      <trkpt lat="43.28035" lon="6.04026">
        <ele>574.5703125</ele>
        <time>2019-11-09T09:33:28Z</time>
      </trkpt>
      <trkpt lat="43.28049" lon="6.04036">
        <ele>575.65625</ele>
        <time>2019-11-09T09:33:41Z</time>
      </trkpt>
      <trkpt lat="43.2805" lon="6.04037">
        <ele>575.75390625</ele>
        <time>2019-11-09T09:33:42Z</time>
      </trkpt>
      <trkpt lat="43.28051" lon="6.04037">
        <ele>575.875</ele>
        <time>2019-11-09T09:33:43Z</time>
      </trkpt>
      <trkpt lat="43.28058" lon="6.04043">
        <ele>576.70703125</ele>
        <time>2019-11-09T09:33:49Z</time>
      </trkpt>
      <trkpt lat="43.28059" lon="6.04044">
        <ele>576.9609375</ele>
        <time>2019-11-09T09:33:50Z</time>
      </trkpt>
      <trkpt lat="43.2806" lon="6.04045">
        <ele>577.1953125</ele>
        <time>2019-11-09T09:33:51Z</time>
      </trkpt>
      <trkpt lat="43.28061" lon="6.04046">
        <ele>577.3828125</ele>
        <time>2019-11-09T09:33:52Z</time>
      </trkpt>
      <trkpt lat="43.28062" lon="6.04047">
        <ele>577.578125</ele>
        <time>2019-11-09T09:33:53Z</time>
      </trkpt>
      <trkpt lat="43.2808" lon="6.0406">
        <ele>580.04296875</ele>
        <time>2019-11-09T09:34:08Z</time>
      </trkpt>
      <trkpt lat="43.28096" lon="6.04071">
        <ele>582</ele>
        <time>2019-11-09T09:34:24Z</time>
      </trkpt>
      <trkpt lat="43.28114" lon="6.04079">
        <ele>583.41796875</ele>
        <time>2019-11-09T09:34:40Z</time>
      </trkpt>
      <trkpt lat="43.28129" lon="6.04089">
        <ele>584.59375</ele>
        <time>2019-11-09T09:34:54Z</time>
      </trkpt>
      <trkpt lat="43.28134" lon="6.04091">
        <ele>584.66015625</ele>
        <time>2019-11-09T09:34:57Z</time>
      </trkpt>
      <trkpt lat="43.28135" lon="6.04092">
        <ele>584.70703125</ele>
        <time>2019-11-09T09:34:58Z</time>
      </trkpt>
      <trkpt lat="43.28136" lon="6.04093">
        <ele>584.72265625</ele>
        <time>2019-11-09T09:34:59Z</time>
      </trkpt>
      <trkpt lat="43.28149" lon="6.04104">
        <ele>584.68359375</ele>
        <time>2019-11-09T09:35:11Z</time>
      </trkpt>
      <trkpt lat="43.28162" lon="6.04118">
        <ele>584.125</ele>
        <time>2019-11-09T09:35:24Z</time>
      </trkpt>
      <trkpt lat="43.28175" lon="6.04136">
        <ele>582.4609375</ele>
        <time>2019-11-09T09:35:39Z</time>
      </trkpt>
      <trkpt lat="43.28182" lon="6.04148">
        <ele>581.80078125</ele>
        <time>2019-11-09T09:35:53Z</time>
      </trkpt>
      <trkpt lat="43.28182" lon="6.04147">
        <ele>581.75390625</ele>
        <time>2019-11-09T09:36:24Z</time>
      </trkpt>
      <trkpt lat="43.28189" lon="6.04166">
        <ele>581.08203125</ele>
        <time>2019-11-09T09:36:38Z</time>
      </trkpt>
      <trkpt lat="43.28211" lon="6.04206">
        <ele>578.58203125</ele>
        <time>2019-11-09T09:36:50Z</time>
      </trkpt>
      <trkpt lat="43.28237" lon="6.04256">
        <ele>575.5859375</ele>
        <time>2019-11-09T09:36:59Z</time>
      </trkpt>
      <trkpt lat="43.28247" lon="6.04282">
        <ele>574.12890625</ele>
        <time>2019-11-09T09:37:03Z</time>
      </trkpt>
      <trkpt lat="43.28249" lon="6.0429">
        <ele>573.6328125</ele>
        <time>2019-11-09T09:37:04Z</time>
      </trkpt>
      <trkpt lat="43.28251" lon="6.04298">
        <ele>573.0703125</ele>
        <time>2019-11-09T09:37:05Z</time>
      </trkpt>
      <trkpt lat="43.28263" lon="6.04337">
        <ele>571.3203125</ele>
        <time>2019-11-09T09:37:10Z</time>
      </trkpt>
      <trkpt lat="43.28265" lon="6.04346">
        <ele>571.0625</ele>
        <time>2019-11-09T09:37:11Z</time>
      </trkpt>
      <trkpt lat="43.2827" lon="6.04397">
        <ele>571.53515625</ele>
        <time>2019-11-09T09:37:16Z</time>
      </trkpt>
      <trkpt lat="43.28274" lon="6.04405">
        <ele>571.41015625</ele>
        <time>2019-11-09T09:37:17Z</time>
      </trkpt>
      <trkpt lat="43.2828" lon="6.04411">
        <ele>571.03125</ele>
        <time>2019-11-09T09:37:18Z</time>
      </trkpt>
      <trkpt lat="43.28298" lon="6.04424">
        <ele>569.17578125</ele>
        <time>2019-11-09T09:37:21Z</time>
      </trkpt>
      <trkpt lat="43.28305" lon="6.04429">
        <ele>568.71484375</ele>
        <time>2019-11-09T09:37:22Z</time>
      </trkpt>
      <trkpt lat="43.28318" lon="6.04439">
        <ele>567.484375</ele>
        <time>2019-11-09T09:37:24Z</time>
      </trkpt>
      <trkpt lat="43.2834" lon="6.04456">
        <ele>565.1875</ele>
        <time>2019-11-09T09:37:27Z</time>
      </trkpt>
      <trkpt lat="43.2837" lon="6.04481">
        <ele>562.12109375</ele>
        <time>2019-11-09T09:37:31Z</time>
      </trkpt>
      <trkpt lat="43.28377" lon="6.04489">
        <ele>561.42578125</ele>
        <time>2019-11-09T09:37:32Z</time>
      </trkpt>
      <trkpt lat="43.28383" lon="6.04498">
        <ele>561.0078125</ele>
        <time>2019-11-09T09:37:33Z</time>
      </trkpt>
      <trkpt lat="43.28394" lon="6.04515">
        <ele>560.41796875</ele>
        <time>2019-11-09T09:37:35Z</time>
      </trkpt>
      <trkpt lat="43.284" lon="6.04524">
        <ele>560.12109375</ele>
        <time>2019-11-09T09:37:36Z</time>
      </trkpt>
      <trkpt lat="43.28437" lon="6.04574">
        <ele>556.03515625</ele>
        <time>2019-11-09T09:37:43Z</time>
      </trkpt>
      <trkpt lat="43.28441" lon="6.04583">
        <ele>555.33203125</ele>
        <time>2019-11-09T09:37:44Z</time>
      </trkpt>
      <trkpt lat="43.28445" lon="6.04591">
        <ele>554.62109375</ele>
        <time>2019-11-09T09:37:45Z</time>
      </trkpt>
      <trkpt lat="43.28447" lon="6.04599">
        <ele>553.98828125</ele>
        <time>2019-11-09T09:37:46Z</time>
      </trkpt>
      <trkpt lat="43.28448" lon="6.04607">
        <ele>553.65625</ele>
        <time>2019-11-09T09:37:47Z</time>
      </trkpt>
      <trkpt lat="43.28449" lon="6.04614">
        <ele>553.6171875</ele>
        <time>2019-11-09T09:37:48Z</time>
      </trkpt>
      <trkpt lat="43.28451" lon="6.0464">
        <ele>553.46484375</ele>
        <time>2019-11-09T09:37:51Z</time>
      </trkpt>
      <trkpt lat="43.28453" lon="6.04648">
        <ele>553.25390625</ele>
        <time>2019-11-09T09:37:52Z</time>
      </trkpt>
      <trkpt lat="43.28456" lon="6.04657">
        <ele>552.92578125</ele>
        <time>2019-11-09T09:37:53Z</time>
      </trkpt>
      <trkpt lat="43.28474" lon="6.04697">
        <ele>551.96875</ele>
        <time>2019-11-09T09:37:58Z</time>
      </trkpt>
      <trkpt lat="43.28476" lon="6.04707">
        <ele>551.90625</ele>
        <time>2019-11-09T09:37:59Z</time>
      </trkpt>
      <trkpt lat="43.28477" lon="6.04725">
        <ele>552.2265625</ele>
        <time>2019-11-09T09:38:01Z</time>
      </trkpt>
      <trkpt lat="43.28476" lon="6.04734">
        <ele>552.578125</ele>
        <time>2019-11-09T09:38:02Z</time>
      </trkpt>
      <trkpt lat="43.28475" lon="6.04744">
        <ele>552.93359375</ele>
        <time>2019-11-09T09:38:03Z</time>
      </trkpt>
      <trkpt lat="43.28476" lon="6.04751">
        <ele>553.16796875</ele>
        <time>2019-11-09T09:38:04Z</time>
      </trkpt>
      <trkpt lat="43.28477" lon="6.04755">
        <ele>553.19140625</ele>
        <time>2019-11-09T09:38:05Z</time>
      </trkpt>
      <trkpt lat="43.2848" lon="6.04756">
        <ele>553.03125</ele>
        <time>2019-11-09T09:38:06Z</time>
      </trkpt>
      <trkpt lat="43.28483" lon="6.04754">
        <ele>552.73828125</ele>
        <time>2019-11-09T09:38:07Z</time>
      </trkpt>
      <trkpt lat="43.28486" lon="6.04751">
        <ele>552.42578125</ele>
        <time>2019-11-09T09:38:08Z</time>
      </trkpt>
      <trkpt lat="43.28488" lon="6.04748">
        <ele>552.1640625</ele>
        <time>2019-11-09T09:38:09Z</time>
      </trkpt>
      <trkpt lat="43.28489" lon="6.04744">
        <ele>551.94921875</ele>
        <time>2019-11-09T09:38:10Z</time>
      </trkpt>
      <trkpt lat="43.28491" lon="6.04742">
        <ele>551.765625</ele>
        <time>2019-11-09T09:38:11Z</time>
      </trkpt>
      <trkpt lat="43.28492" lon="6.04739">
        <ele>551.6328125</ele>
        <time>2019-11-09T09:38:12Z</time>
      </trkpt>
      <trkpt lat="43.28494" lon="6.04736">
        <ele>551.48828125</ele>
        <time>2019-11-09T09:38:13Z</time>
      </trkpt>
      <trkpt lat="43.28496" lon="6.04733">
        <ele>551.3359375</ele>
        <time>2019-11-09T09:38:14Z</time>
      </trkpt>
      <trkpt lat="43.28498" lon="6.04729">
        <ele>551.17578125</ele>
        <time>2019-11-09T09:38:15Z</time>
      </trkpt>
      <trkpt lat="43.28501" lon="6.04725">
        <ele>551.02734375</ele>
        <time>2019-11-09T09:38:16Z</time>
      </trkpt>
      <trkpt lat="43.28508" lon="6.04711">
        <ele>551.1015625</ele>
        <time>2019-11-09T09:38:19Z</time>
      </trkpt>
      <trkpt lat="43.2851" lon="6.04706">
        <ele>550.98828125</ele>
        <time>2019-11-09T09:38:20Z</time>
      </trkpt>
      <trkpt lat="43.28512" lon="6.047">
        <ele>550.828125</ele>
        <time>2019-11-09T09:38:21Z</time>
      </trkpt>
      <trkpt lat="43.28519" lon="6.04679">
        <ele>550.34375</ele>
        <time>2019-11-09T09:38:24Z</time>
      </trkpt>
      <trkpt lat="43.28523" lon="6.04674">
        <ele>550.296875</ele>
        <time>2019-11-09T09:38:25Z</time>
      </trkpt>
      <trkpt lat="43.28529" lon="6.04668">
        <ele>550.31640625</ele>
        <time>2019-11-09T09:38:26Z</time>
      </trkpt>
      <trkpt lat="43.28534" lon="6.04662">
        <ele>550.27734375</ele>
        <time>2019-11-09T09:38:27Z</time>
      </trkpt>
      <trkpt lat="43.28538" lon="6.04654">
        <ele>549.91796875</ele>
        <time>2019-11-09T09:38:28Z</time>
      </trkpt>
      <trkpt lat="43.28542" lon="6.04645">
        <ele>549.41015625</ele>
        <time>2019-11-09T09:38:29Z</time>
      </trkpt>
      <trkpt lat="43.28545" lon="6.04636">
        <ele>548.8828125</ele>
        <time>2019-11-09T09:38:30Z</time>
      </trkpt>
      <trkpt lat="43.28549" lon="6.04627">
        <ele>548.28125</ele>
        <time>2019-11-09T09:38:31Z</time>
      </trkpt>
      <trkpt lat="43.28553" lon="6.04619">
        <ele>547.5859375</ele>
        <time>2019-11-09T09:38:32Z</time>
      </trkpt>
      <trkpt lat="43.28558" lon="6.04612">
        <ele>546.90234375</ele>
        <time>2019-11-09T09:38:33Z</time>
      </trkpt>
      <trkpt lat="43.28563" lon="6.04605">
        <ele>546.51953125</ele>
        <time>2019-11-09T09:38:34Z</time>
      </trkpt>
      <trkpt lat="43.28573" lon="6.04592">
        <ele>546.25</ele>
        <time>2019-11-09T09:38:36Z</time>
      </trkpt>
      <trkpt lat="43.28589" lon="6.04563">
        <ele>544.3671875</ele>
        <time>2019-11-09T09:38:40Z</time>
      </trkpt>
      <trkpt lat="43.28602" lon="6.04513">
        <ele>542.984375</ele>
        <time>2019-11-09T09:38:46Z</time>
      </trkpt>
      <trkpt lat="43.28606" lon="6.04473">
        <ele>541.22265625</ele>
        <time>2019-11-09T09:38:51Z</time>
      </trkpt>
      <trkpt lat="43.28609" lon="6.04431">
        <ele>539.6796875</ele>
        <time>2019-11-09T09:38:56Z</time>
      </trkpt>
      <trkpt lat="43.28612" lon="6.04423">
        <ele>539.47265625</ele>
        <time>2019-11-09T09:38:57Z</time>
      </trkpt>
      <trkpt lat="43.28614" lon="6.04416">
        <ele>539.2421875</ele>
        <time>2019-11-09T09:38:58Z</time>
      </trkpt>
      <trkpt lat="43.28618" lon="6.04409">
        <ele>538.98046875</ele>
        <time>2019-11-09T09:38:59Z</time>
      </trkpt>
      <trkpt lat="43.28622" lon="6.04403">
        <ele>538.59765625</ele>
        <time>2019-11-09T09:39:00Z</time>
      </trkpt>
      <trkpt lat="43.28626" lon="6.04397">
        <ele>538.08984375</ele>
        <time>2019-11-09T09:39:01Z</time>
      </trkpt>
      <trkpt lat="43.28631" lon="6.04391">
        <ele>537.4609375</ele>
        <time>2019-11-09T09:39:02Z</time>
      </trkpt>
      <trkpt lat="43.28637" lon="6.04387">
        <ele>536.7421875</ele>
        <time>2019-11-09T09:39:03Z</time>
      </trkpt>
      <trkpt lat="43.28644" lon="6.04384">
        <ele>536.11328125</ele>
        <time>2019-11-09T09:39:04Z</time>
      </trkpt>
      <trkpt lat="43.2865" lon="6.04381">
        <ele>535.63671875</ele>
        <time>2019-11-09T09:39:05Z</time>
      </trkpt>
      <trkpt lat="43.28675" lon="6.04371">
        <ele>534.37109375</ele>
        <time>2019-11-09T09:39:09Z</time>
      </trkpt>
      <trkpt lat="43.28682" lon="6.0437">
        <ele>534.08984375</ele>
        <time>2019-11-09T09:39:10Z</time>
      </trkpt>
      <trkpt lat="43.28689" lon="6.0437">
        <ele>533.8515625</ele>
        <time>2019-11-09T09:39:11Z</time>
      </trkpt>
      <trkpt lat="43.28716" lon="6.04373">
        <ele>533.44921875</ele>
        <time>2019-11-09T09:39:15Z</time>
      </trkpt>
      <trkpt lat="43.28722" lon="6.04372">
        <ele>533.29296875</ele>
        <time>2019-11-09T09:39:16Z</time>
      </trkpt>
      <trkpt lat="43.28729" lon="6.0437">
        <ele>533.01953125</ele>
        <time>2019-11-09T09:39:17Z</time>
      </trkpt>
      <trkpt lat="43.28762" lon="6.04356">
        <ele>531.71484375</ele>
        <time>2019-11-09T09:39:22Z</time>
      </trkpt>
      <trkpt lat="43.28768" lon="6.04352">
        <ele>531.2890625</ele>
        <time>2019-11-09T09:39:23Z</time>
      </trkpt>
      <trkpt lat="43.28773" lon="6.04346">
        <ele>530.88671875</ele>
        <time>2019-11-09T09:39:24Z</time>
      </trkpt>
      <trkpt lat="43.28778" lon="6.04341">
        <ele>530.5390625</ele>
        <time>2019-11-09T09:39:25Z</time>
      </trkpt>
      <trkpt lat="43.28783" lon="6.04335">
        <ele>530.41015625</ele>
        <time>2019-11-09T09:39:26Z</time>
      </trkpt>
      <trkpt lat="43.28807" lon="6.04306">
        <ele>530.2421875</ele>
        <time>2019-11-09T09:39:31Z</time>
      </trkpt>
      <trkpt lat="43.28823" lon="6.04282">
        <ele>528.55859375</ele>
        <time>2019-11-09T09:39:35Z</time>
      </trkpt>
      <trkpt lat="43.28826" lon="6.04275">
        <ele>528.18359375</ele>
        <time>2019-11-09T09:39:36Z</time>
      </trkpt>
      <trkpt lat="43.28828" lon="6.04267">
        <ele>527.60546875</ele>
        <time>2019-11-09T09:39:37Z</time>
      </trkpt>
      <trkpt lat="43.28829" lon="6.04258">
        <ele>526.76171875</ele>
        <time>2019-11-09T09:39:38Z</time>
      </trkpt>
      <trkpt lat="43.2883" lon="6.0425">
        <ele>525.91015625</ele>
        <time>2019-11-09T09:39:39Z</time>
      </trkpt>
      <trkpt lat="43.28831" lon="6.04234">
        <ele>524.859375</ele>
        <time>2019-11-09T09:39:41Z</time>
      </trkpt>
      <trkpt lat="43.28833" lon="6.04226">
        <ele>524.515625</ele>
        <time>2019-11-09T09:39:42Z</time>
      </trkpt>
      <trkpt lat="43.28835" lon="6.04219">
        <ele>524.1328125</ele>
        <time>2019-11-09T09:39:43Z</time>
      </trkpt>
      <trkpt lat="43.28839" lon="6.04214">
        <ele>523.85546875</ele>
        <time>2019-11-09T09:39:44Z</time>
      </trkpt>
      <trkpt lat="43.28843" lon="6.04209">
        <ele>523.70703125</ele>
        <time>2019-11-09T09:39:45Z</time>
      </trkpt>
      <trkpt lat="43.28848" lon="6.04206">
        <ele>523.52734375</ele>
        <time>2019-11-09T09:39:46Z</time>
      </trkpt>
      <trkpt lat="43.28854" lon="6.04205">
        <ele>523.3203125</ele>
        <time>2019-11-09T09:39:47Z</time>
      </trkpt>
      <trkpt lat="43.2886" lon="6.04205">
        <ele>523.09375</ele>
        <time>2019-11-09T09:39:48Z</time>
      </trkpt>
      <trkpt lat="43.28866" lon="6.04207">
        <ele>522.859375</ele>
        <time>2019-11-09T09:39:49Z</time>
      </trkpt>
      <trkpt lat="43.28873" lon="6.04211">
        <ele>522.63671875</ele>
        <time>2019-11-09T09:39:50Z</time>
      </trkpt>
      <trkpt lat="43.28878" lon="6.04214">
        <ele>522.43359375</ele>
        <time>2019-11-09T09:39:51Z</time>
      </trkpt>
      <trkpt lat="43.28884" lon="6.04217">
        <ele>522.3046875</ele>
        <time>2019-11-09T09:39:52Z</time>
      </trkpt>
      <trkpt lat="43.28957" lon="6.04263">
        <ele>520.70703125</ele>
        <time>2019-11-09T09:40:05Z</time>
      </trkpt>
      <trkpt lat="43.28963" lon="6.04263">
        <ele>520.71875</ele>
        <time>2019-11-09T09:40:06Z</time>
      </trkpt>
      <trkpt lat="43.28968" lon="6.04261">
        <ele>520.65234375</ele>
        <time>2019-11-09T09:40:07Z</time>
      </trkpt>
      <trkpt lat="43.28973" lon="6.04257">
        <ele>520.515625</ele>
        <time>2019-11-09T09:40:08Z</time>
      </trkpt>
      <trkpt lat="43.28977" lon="6.04252">
        <ele>520.4609375</ele>
        <time>2019-11-09T09:40:09Z</time>
      </trkpt>
      <trkpt lat="43.2898" lon="6.04246">
        <ele>520.3515625</ele>
        <time>2019-11-09T09:40:10Z</time>
      </trkpt>
      <trkpt lat="43.2899" lon="6.04228">
        <ele>520.02734375</ele>
        <time>2019-11-09T09:40:13Z</time>
      </trkpt>
      <trkpt lat="43.28994" lon="6.04222">
        <ele>519.98828125</ele>
        <time>2019-11-09T09:40:14Z</time>
      </trkpt>
      <trkpt lat="43.28999" lon="6.04218">
        <ele>519.9921875</ele>
        <time>2019-11-09T09:40:15Z</time>
      </trkpt>
      <trkpt lat="43.29017" lon="6.04199">
        <ele>519.671875</ele>
        <time>2019-11-09T09:40:19Z</time>
      </trkpt>
      <trkpt lat="43.29022" lon="6.04193">
        <ele>519.3671875</ele>
        <time>2019-11-09T09:40:20Z</time>
      </trkpt>
      <trkpt lat="43.29026" lon="6.04187">
        <ele>518.99609375</ele>
        <time>2019-11-09T09:40:21Z</time>
      </trkpt>
      <trkpt lat="43.29031" lon="6.04182">
        <ele>518.82421875</ele>
        <time>2019-11-09T09:40:22Z</time>
      </trkpt>
      <trkpt lat="43.29035" lon="6.04176">
        <ele>518.65625</ele>
        <time>2019-11-09T09:40:23Z</time>
      </trkpt>
      <trkpt lat="43.2904" lon="6.04171">
        <ele>518.34375</ele>
        <time>2019-11-09T09:40:24Z</time>
      </trkpt>
      <trkpt lat="43.29043" lon="6.04166">
        <ele>517.9609375</ele>
        <time>2019-11-09T09:40:25Z</time>
      </trkpt>
      <trkpt lat="43.29046" lon="6.04162">
        <ele>517.55859375</ele>
        <time>2019-11-09T09:40:26Z</time>
      </trkpt>
      <trkpt lat="43.2905" lon="6.04159">
        <ele>517.21484375</ele>
        <time>2019-11-09T09:40:27Z</time>
      </trkpt>
      <trkpt lat="43.29055" lon="6.04157">
        <ele>516.984375</ele>
        <time>2019-11-09T09:40:28Z</time>
      </trkpt>
      <trkpt lat="43.29059" lon="6.04155">
        <ele>517.00390625</ele>
        <time>2019-11-09T09:40:29Z</time>
      </trkpt>
      <trkpt lat="43.29065" lon="6.04155">
        <ele>517.29296875</ele>
        <time>2019-11-09T09:40:30Z</time>
      </trkpt>
      <trkpt lat="43.2907" lon="6.04155">
        <ele>517.62109375</ele>
        <time>2019-11-09T09:40:31Z</time>
      </trkpt>
      <trkpt lat="43.29082" lon="6.04155">
        <ele>518.296875</ele>
        <time>2019-11-09T09:40:33Z</time>
      </trkpt>
      <trkpt lat="43.29088" lon="6.04154">
        <ele>518.45703125</ele>
        <time>2019-11-09T09:40:34Z</time>
      </trkpt>
      <trkpt lat="43.29093" lon="6.04152">
        <ele>518.4609375</ele>
        <time>2019-11-09T09:40:35Z</time>
      </trkpt>
      <trkpt lat="43.29099" lon="6.04149">
        <ele>518.37109375</ele>
        <time>2019-11-09T09:40:36Z</time>
      </trkpt>
      <trkpt lat="43.29105" lon="6.04144">
        <ele>518.09375</ele>
        <time>2019-11-09T09:40:37Z</time>
      </trkpt>
      <trkpt lat="43.2911" lon="6.04138">
        <ele>517.60546875</ele>
        <time>2019-11-09T09:40:38Z</time>
      </trkpt>
      <trkpt lat="43.29115" lon="6.04131">
        <ele>517.07421875</ele>
        <time>2019-11-09T09:40:39Z</time>
      </trkpt>
      <trkpt lat="43.2912" lon="6.04124">
        <ele>516.66015625</ele>
        <time>2019-11-09T09:40:40Z</time>
      </trkpt>
      <trkpt lat="43.29124" lon="6.04117">
        <ele>516.1015625</ele>
        <time>2019-11-09T09:40:41Z</time>
      </trkpt>
      <trkpt lat="43.29127" lon="6.04109">
        <ele>515.44921875</ele>
        <time>2019-11-09T09:40:42Z</time>
      </trkpt>
      <trkpt lat="43.2913" lon="6.04101">
        <ele>514.6796875</ele>
        <time>2019-11-09T09:40:43Z</time>
      </trkpt>
      <trkpt lat="43.29134" lon="6.04093">
        <ele>513.84765625</ele>
        <time>2019-11-09T09:40:44Z</time>
      </trkpt>
      <trkpt lat="43.29138" lon="6.04085">
        <ele>512.98828125</ele>
        <time>2019-11-09T09:40:45Z</time>
      </trkpt>
      <trkpt lat="43.29142" lon="6.04078">
        <ele>512.10546875</ele>
        <time>2019-11-09T09:40:46Z</time>
      </trkpt>
      <trkpt lat="43.29148" lon="6.04072">
        <ele>511.57421875</ele>
        <time>2019-11-09T09:40:47Z</time>
      </trkpt>
      <trkpt lat="43.29154" lon="6.04068">
        <ele>511.1953125</ele>
        <time>2019-11-09T09:40:48Z</time>
      </trkpt>
      <trkpt lat="43.2916" lon="6.04064">
        <ele>510.84765625</ele>
        <time>2019-11-09T09:40:49Z</time>
      </trkpt>
      <trkpt lat="43.29166" lon="6.04062">
        <ele>510.53125</ele>
        <time>2019-11-09T09:40:50Z</time>
      </trkpt>
      <trkpt lat="43.29172" lon="6.04061">
        <ele>510.36328125</ele>
        <time>2019-11-09T09:40:51Z</time>
      </trkpt>
      <trkpt lat="43.29179" lon="6.04062">
        <ele>510.28125</ele>
        <time>2019-11-09T09:40:52Z</time>
      </trkpt>
      <trkpt lat="43.29185" lon="6.04064">
        <ele>510.203125</ele>
        <time>2019-11-09T09:40:53Z</time>
      </trkpt>
      <trkpt lat="43.29191" lon="6.04067">
        <ele>510.1015625</ele>
        <time>2019-11-09T09:40:54Z</time>
      </trkpt>
      <trkpt lat="43.29197" lon="6.04072">
        <ele>509.953125</ele>
        <time>2019-11-09T09:40:55Z</time>
      </trkpt>
      <trkpt lat="43.29201" lon="6.04077">
        <ele>509.89453125</ele>
        <time>2019-11-09T09:40:56Z</time>
      </trkpt>
      <trkpt lat="43.29206" lon="6.04084">
        <ele>510.41015625</ele>
        <time>2019-11-09T09:40:57Z</time>
      </trkpt>
      <trkpt lat="43.2921" lon="6.0409">
        <ele>510.921875</ele>
        <time>2019-11-09T09:40:58Z</time>
      </trkpt>
      <trkpt lat="43.29214" lon="6.04095">
        <ele>511.3828125</ele>
        <time>2019-11-09T09:40:59Z</time>
      </trkpt>
      <trkpt lat="43.29219" lon="6.04101">
        <ele>511.765625</ele>
        <time>2019-11-09T09:41:00Z</time>
      </trkpt>
      <trkpt lat="43.29225" lon="6.04105">
        <ele>512.0625</ele>
        <time>2019-11-09T09:41:01Z</time>
      </trkpt>
      <trkpt lat="43.29231" lon="6.04108">
        <ele>512.3359375</ele>
        <time>2019-11-09T09:41:02Z</time>
      </trkpt>
      <trkpt lat="43.29238" lon="6.04109">
        <ele>512.25</ele>
        <time>2019-11-09T09:41:03Z</time>
      </trkpt>
      <trkpt lat="43.29245" lon="6.04108">
        <ele>511.828125</ele>
        <time>2019-11-09T09:41:04Z</time>
      </trkpt>
      <trkpt lat="43.29252" lon="6.04105">
        <ele>511.1953125</ele>
        <time>2019-11-09T09:41:05Z</time>
      </trkpt>
      <trkpt lat="43.29258" lon="6.04101">
        <ele>510.9453125</ele>
        <time>2019-11-09T09:41:06Z</time>
      </trkpt>
      <trkpt lat="43.29264" lon="6.04097">
        <ele>510.703125</ele>
        <time>2019-11-09T09:41:07Z</time>
      </trkpt>
      <trkpt lat="43.29323" lon="6.04037">
        <ele>505.7421875</ele>
        <time>2019-11-09T09:41:18Z</time>
      </trkpt>
      <trkpt lat="43.29346" lon="6.04004">
        <ele>502.7578125</ele>
        <time>2019-11-09T09:41:23Z</time>
      </trkpt>
      <trkpt lat="43.29362" lon="6.0399">
        <ele>500.90234375</ele>
        <time>2019-11-09T09:41:26Z</time>
      </trkpt>
      <trkpt lat="43.29372" lon="6.03982">
        <ele>500.09375</ele>
        <time>2019-11-09T09:41:28Z</time>
      </trkpt>
      <trkpt lat="43.29378" lon="6.03979">
        <ele>499.640625</ele>
        <time>2019-11-09T09:41:29Z</time>
      </trkpt>
      <trkpt lat="43.29403" lon="6.03971">
        <ele>497.4765625</ele>
        <time>2019-11-09T09:41:33Z</time>
      </trkpt>
      <trkpt lat="43.29449" lon="6.03954">
        <ele>493.12890625</ele>
        <time>2019-11-09T09:41:40Z</time>
      </trkpt>
      <trkpt lat="43.29455" lon="6.0395">
        <ele>492.7421875</ele>
        <time>2019-11-09T09:41:41Z</time>
      </trkpt>
      <trkpt lat="43.2946" lon="6.03944">
        <ele>492.3671875</ele>
        <time>2019-11-09T09:41:42Z</time>
      </trkpt>
      <trkpt lat="43.29464" lon="6.03938">
        <ele>492.01953125</ele>
        <time>2019-11-09T09:41:43Z</time>
      </trkpt>
      <trkpt lat="43.29467" lon="6.03931">
        <ele>491.75</ele>
        <time>2019-11-09T09:41:44Z</time>
      </trkpt>
      <trkpt lat="43.29469" lon="6.03923">
        <ele>491.45703125</ele>
        <time>2019-11-09T09:41:45Z</time>
      </trkpt>
      <trkpt lat="43.29471" lon="6.03914">
        <ele>491.1484375</ele>
        <time>2019-11-09T09:41:46Z</time>
      </trkpt>
      <trkpt lat="43.29471" lon="6.03905">
        <ele>490.81640625</ele>
        <time>2019-11-09T09:41:47Z</time>
      </trkpt>
      <trkpt lat="43.29471" lon="6.03895">
        <ele>490.484375</ele>
        <time>2019-11-09T09:41:48Z</time>
      </trkpt>
      <trkpt lat="43.2947" lon="6.03886">
        <ele>490.15234375</ele>
        <time>2019-11-09T09:41:49Z</time>
      </trkpt>
      <trkpt lat="43.2947" lon="6.03877">
        <ele>489.83203125</ele>
        <time>2019-11-09T09:41:50Z</time>
      </trkpt>
      <trkpt lat="43.29468" lon="6.03852">
        <ele>488.90234375</ele>
        <time>2019-11-09T09:41:53Z</time>
      </trkpt>
      <trkpt lat="43.29469" lon="6.03844">
        <ele>488.61328125</ele>
        <time>2019-11-09T09:41:54Z</time>
      </trkpt>
      <trkpt lat="43.2947" lon="6.03836">
        <ele>488.34375</ele>
        <time>2019-11-09T09:41:55Z</time>
      </trkpt>
      <trkpt lat="43.29473" lon="6.0383">
        <ele>488.1328125</ele>
        <time>2019-11-09T09:41:56Z</time>
      </trkpt>
      <trkpt lat="43.29478" lon="6.03824">
        <ele>488.2578125</ele>
        <time>2019-11-09T09:41:57Z</time>
      </trkpt>
      <trkpt lat="43.29483" lon="6.0382">
        <ele>488.53515625</ele>
        <time>2019-11-09T09:41:58Z</time>
      </trkpt>
      <trkpt lat="43.29488" lon="6.03817">
        <ele>488.9375</ele>
        <time>2019-11-09T09:41:59Z</time>
      </trkpt>
      <trkpt lat="43.29494" lon="6.03815">
        <ele>489.40234375</ele>
        <time>2019-11-09T09:42:00Z</time>
      </trkpt>
      <trkpt lat="43.29499" lon="6.03813">
        <ele>489.86328125</ele>
        <time>2019-11-09T09:42:01Z</time>
      </trkpt>
      <trkpt lat="43.29509" lon="6.03806">
        <ele>491.1875</ele>
        <time>2019-11-09T09:42:03Z</time>
      </trkpt>
      <trkpt lat="43.29512" lon="6.03803">
        <ele>491.625</ele>
        <time>2019-11-09T09:42:04Z</time>
      </trkpt>
      <trkpt lat="43.29514" lon="6.038">
        <ele>491.8671875</ele>
        <time>2019-11-09T09:42:05Z</time>
      </trkpt>
      <trkpt lat="43.29515" lon="6.03795">
        <ele>491.96875</ele>
        <time>2019-11-09T09:42:17Z</time>
      </trkpt>
      <trkpt lat="43.29516" lon="6.03795">
        <ele>492.0546875</ele>
        <time>2019-11-09T09:42:39Z</time>
      </trkpt>
      <trkpt lat="43.29512" lon="6.03792">
        <ele>491.49609375</ele>
        <time>2019-11-09T09:43:21Z</time>
      </trkpt>
      <trkpt lat="43.29512" lon="6.03791">
        <ele>491.41015625</ele>
        <time>2019-11-09T09:43:25Z</time>
      </trkpt>
      <trkpt lat="43.29509" lon="6.03796">
        <ele>491.10546875</ele>
        <time>2019-11-09T09:43:30Z</time>
      </trkpt>
      <trkpt lat="43.29503" lon="6.03814">
        <ele>490.33203125</ele>
        <time>2019-11-09T09:43:39Z</time>
      </trkpt>
      <trkpt lat="43.29504" lon="6.03815">
        <ele>490.49609375</ele>
        <time>2019-11-09T09:43:40Z</time>
      </trkpt>
      <trkpt lat="43.29506" lon="6.03816">
        <ele>490.69921875</ele>
        <time>2019-11-09T09:43:41Z</time>
      </trkpt>
      <trkpt lat="43.29509" lon="6.03817">
        <ele>491.125</ele>
        <time>2019-11-09T09:43:43Z</time>
      </trkpt>
      <trkpt lat="43.29517" lon="6.03848">
        <ele>493.0234375</ele>
        <time>2019-11-09T09:43:57Z</time>
      </trkpt>
      <trkpt lat="43.29522" lon="6.03878">
        <ele>494.046875</ele>
        <time>2019-11-09T09:44:09Z</time>
      </trkpt>
      <trkpt lat="43.29525" lon="6.03906">
        <ele>494.5625</ele>
        <time>2019-11-09T09:44:19Z</time>
      </trkpt>
      <trkpt lat="43.29525" lon="6.03909">
        <ele>494.5703125</ele>
        <time>2019-11-09T09:44:20Z</time>
      </trkpt>
      <trkpt lat="43.29525" lon="6.03912">
        <ele>494.64453125</ele>
        <time>2019-11-09T09:44:21Z</time>
      </trkpt>
      <trkpt lat="43.29527" lon="6.03925">
        <ele>494.82421875</ele>
        <time>2019-11-09T09:44:26Z</time>
      </trkpt>
      <trkpt lat="43.29527" lon="6.03927">
        <ele>494.87890625</ele>
        <time>2019-11-09T09:44:27Z</time>
      </trkpt>
      <trkpt lat="43.29528" lon="6.0393">
        <ele>494.9453125</ele>
        <time>2019-11-09T09:44:28Z</time>
      </trkpt>
      <trkpt lat="43.2953" lon="6.03941">
        <ele>495.046875</ele>
        <time>2019-11-09T09:44:32Z</time>
      </trkpt>
      <trkpt lat="43.29526" lon="6.03962">
        <ele>494.8984375</ele>
        <time>2019-11-09T09:44:42Z</time>
      </trkpt>
      <trkpt lat="43.29527" lon="6.03966">
        <ele>494.94921875</ele>
        <time>2019-11-09T09:44:48Z</time>
      </trkpt>
      <trkpt lat="43.29527" lon="6.03968">
        <ele>495.04296875</ele>
        <time>2019-11-09T09:44:49Z</time>
      </trkpt>
      <trkpt lat="43.29528" lon="6.0397">
        <ele>495.140625</ele>
        <time>2019-11-09T09:44:50Z</time>
      </trkpt>
      <trkpt lat="43.29529" lon="6.03972">
        <ele>495.25</ele>
        <time>2019-11-09T09:44:51Z</time>
      </trkpt>
      <trkpt lat="43.29531" lon="6.03973">
        <ele>495.40625</ele>
        <time>2019-11-09T09:44:52Z</time>
      </trkpt>
      <trkpt lat="43.29533" lon="6.03975">
        <ele>495.60546875</ele>
        <time>2019-11-09T09:44:53Z</time>
      </trkpt>
      <trkpt lat="43.29541" lon="6.03982">
        <ele>496.2421875</ele>
        <time>2019-11-09T09:45:03Z</time>
      </trkpt>
      <trkpt lat="43.29544" lon="6.03984">
        <ele>496.39453125</ele>
        <time>2019-11-09T09:45:26Z</time>
      </trkpt>
      <trkpt lat="43.29545" lon="6.03983">
        <ele>496.421875</ele>
        <time>2019-11-09T09:45:49Z</time>
      </trkpt>
      <trkpt lat="43.29559" lon="6.03998">
        <ele>497.28515625</ele>
        <time>2019-11-09T09:46:01Z</time>
      </trkpt>
      <trkpt lat="43.29591" lon="6.04002">
        <ele>498.40234375</ele>
        <time>2019-11-09T09:46:13Z</time>
      </trkpt>
      <trkpt lat="43.29601" lon="6.03998">
        <ele>498.265625</ele>
        <time>2019-11-09T09:46:23Z</time>
      </trkpt>
      <trkpt lat="43.29611" lon="6.03995">
        <ele>498.125</ele>
        <time>2019-11-09T09:46:29Z</time>
      </trkpt>
      <trkpt lat="43.2963" lon="6.03992">
        <ele>498.62890625</ele>
        <time>2019-11-09T09:46:39Z</time>
      </trkpt>
      <trkpt lat="43.29654" lon="6.03983">
        <ele>498.81640625</ele>
        <time>2019-11-09T09:46:51Z</time>
      </trkpt>
      <trkpt lat="43.29672" lon="6.03965">
        <ele>498.8359375</ele>
        <time>2019-11-09T09:47:03Z</time>
      </trkpt>
      <trkpt lat="43.29697" lon="6.03952">
        <ele>497.89453125</ele>
        <time>2019-11-09T09:47:16Z</time>
      </trkpt>
      <trkpt lat="43.2971" lon="6.03949">
        <ele>496.921875</ele>
        <time>2019-11-09T09:47:23Z</time>
      </trkpt>
      <trkpt lat="43.29712" lon="6.0395">
        <ele>496.796875</ele>
        <time>2019-11-09T09:47:24Z</time>
      </trkpt>
      <trkpt lat="43.29714" lon="6.03951">
        <ele>496.6796875</ele>
        <time>2019-11-09T09:47:25Z</time>
      </trkpt>
      <trkpt lat="43.29716" lon="6.03953">
        <ele>496.51171875</ele>
        <time>2019-11-09T09:47:26Z</time>
      </trkpt>
      <trkpt lat="43.29719" lon="6.03955">
        <ele>496.2890625</ele>
        <time>2019-11-09T09:47:27Z</time>
      </trkpt>
      <trkpt lat="43.29723" lon="6.03955">
        <ele>496.0078125</ele>
        <time>2019-11-09T09:47:28Z</time>
      </trkpt>
      <trkpt lat="43.29727" lon="6.03954">
        <ele>495.84765625</ele>
        <time>2019-11-09T09:47:29Z</time>
      </trkpt>
      <trkpt lat="43.29741" lon="6.03953">
        <ele>495.35546875</ele>
        <time>2019-11-09T09:47:32Z</time>
      </trkpt>
      <trkpt lat="43.29746" lon="6.03953">
        <ele>495.18359375</ele>
        <time>2019-11-09T09:47:33Z</time>
      </trkpt>
      <trkpt lat="43.29751" lon="6.03954">
        <ele>494.99609375</ele>
        <time>2019-11-09T09:47:34Z</time>
      </trkpt>
      <trkpt lat="43.29756" lon="6.03955">
        <ele>494.69140625</ele>
        <time>2019-11-09T09:47:35Z</time>
      </trkpt>
      <trkpt lat="43.29761" lon="6.03955">
        <ele>494.37109375</ele>
        <time>2019-11-09T09:47:36Z</time>
      </trkpt>
      <trkpt lat="43.29767" lon="6.03956">
        <ele>494.01953125</ele>
        <time>2019-11-09T09:47:37Z</time>
      </trkpt>
      <trkpt lat="43.29779" lon="6.03958">
        <ele>493.24609375</ele>
        <time>2019-11-09T09:47:39Z</time>
      </trkpt>
      <trkpt lat="43.29789" lon="6.03958">
        <ele>492.90625</ele>
        <time>2019-11-09T09:47:41Z</time>
      </trkpt>
      <trkpt lat="43.29807" lon="6.03955">
        <ele>492.33984375</ele>
        <time>2019-11-09T09:47:45Z</time>
      </trkpt>
      <trkpt lat="43.29823" lon="6.03964">
        <ele>490.9296875</ele>
        <time>2019-11-09T09:47:49Z</time>
      </trkpt>
      <trkpt lat="43.2984" lon="6.03979">
        <ele>488</ele>
        <time>2019-11-09T09:47:53Z</time>
      </trkpt>
      <trkpt lat="43.29859" lon="6.04001">
        <ele>482.9609375</ele>
        <time>2019-11-09T09:47:59Z</time>
      </trkpt>
      <trkpt lat="43.29861" lon="6.04004">
        <ele>482.21484375</ele>
        <time>2019-11-09T09:48:00Z</time>
      </trkpt>
      <trkpt lat="43.29864" lon="6.04011">
        <ele>480.54296875</ele>
        <time>2019-11-09T09:48:02Z</time>
      </trkpt>
      <trkpt lat="43.29871" lon="6.04023">
        <ele>477.44921875</ele>
        <time>2019-11-09T09:48:05Z</time>
      </trkpt>
      <trkpt lat="43.29872" lon="6.04026">
        <ele>476.8515625</ele>
        <time>2019-11-09T09:48:06Z</time>
      </trkpt>
      <trkpt lat="43.29883" lon="6.04046">
        <ele>472.56640625</ele>
        <time>2019-11-09T09:48:11Z</time>
      </trkpt>
      <trkpt lat="43.29894" lon="6.04064">
        <ele>468.609375</ele>
        <time>2019-11-09T09:48:16Z</time>
      </trkpt>
      <trkpt lat="43.29903" lon="6.04076">
        <ele>465.59375</ele>
        <time>2019-11-09T09:48:19Z</time>
      </trkpt>
      <trkpt lat="43.29915" lon="6.04082">
        <ele>463.68359375</ele>
        <time>2019-11-09T09:48:23Z</time>
      </trkpt>
      <trkpt lat="43.29935" lon="6.04092">
        <ele>461.33203125</ele>
        <time>2019-11-09T09:48:28Z</time>
      </trkpt>
      <trkpt lat="43.29937" lon="6.0409">
        <ele>461.02734375</ele>
        <time>2019-11-09T09:48:29Z</time>
      </trkpt>
      <trkpt lat="43.29942" lon="6.04085">
        <ele>460.07421875</ele>
        <time>2019-11-09T09:48:31Z</time>
      </trkpt>
      <trkpt lat="43.29955" lon="6.04069">
        <ele>457.57421875</ele>
        <time>2019-11-09T09:48:35Z</time>
      </trkpt>
      <trkpt lat="43.29965" lon="6.0406">
        <ele>455.9375</ele>
        <time>2019-11-09T09:48:49Z</time>
      </trkpt>
      <trkpt lat="43.29965" lon="6.0406">
        <ele>455.890625</ele>
        <time>2019-11-09T09:49:23Z</time>
      </trkpt>
      <trkpt lat="43.29965" lon="6.04059">
        <ele>455.9453125</ele>
        <time>2019-11-09T09:49:48Z</time>
      </trkpt>
      <trkpt lat="43.29965" lon="6.04058">
        <ele>455.8828125</ele>
        <time>2019-11-09T09:50:20Z</time>
      </trkpt>
      <trkpt lat="43.29965" lon="6.04059">
        <ele>455.81640625</ele>
        <time>2019-11-09T09:50:49Z</time>
      </trkpt>
      <trkpt lat="43.29965" lon="6.04059">
        <ele>455.8046875</ele>
        <time>2019-11-09T09:51:17Z</time>
      </trkpt>
      <trkpt lat="43.29965" lon="6.04059">
        <ele>455.8515625</ele>
        <time>2019-11-09T09:51:45Z</time>
      </trkpt>
      <trkpt lat="43.29965" lon="6.04058">
        <ele>455.80078125</ele>
        <time>2019-11-09T09:52:15Z</time>
      </trkpt>
      <trkpt lat="43.29966" lon="6.04059">
        <ele>455.703125</ele>
        <time>2019-11-09T09:52:45Z</time>
      </trkpt>
      <trkpt lat="43.29966" lon="6.04058">
        <ele>455.59765625</ele>
        <time>2019-11-09T09:53:01Z</time>
      </trkpt>
      <trkpt lat="43.29977" lon="6.04052">
        <ele>453.27734375</ele>
        <time>2019-11-09T09:53:06Z</time>
      </trkpt>
      <trkpt lat="43.29997" lon="6.04035">
        <ele>449.91015625</ele>
        <time>2019-11-09T09:53:14Z</time>
      </trkpt>
      <trkpt lat="43.30036" lon="6.04">
        <ele>444.8515625</ele>
        <time>2019-11-09T09:53:26Z</time>
      </trkpt>
      <trkpt lat="43.30051" lon="6.03981">
        <ele>444.96484375</ele>
        <time>2019-11-09T09:53:31Z</time>
      </trkpt>
      <trkpt lat="43.30059" lon="6.03974">
        <ele>444.28125</ele>
        <time>2019-11-09T09:53:33Z</time>
      </trkpt>
      <trkpt lat="43.3007" lon="6.03962">
        <ele>443.375</ele>
        <time>2019-11-09T09:53:36Z</time>
      </trkpt>
      <trkpt lat="43.30087" lon="6.03942">
        <ele>442.0390625</ele>
        <time>2019-11-09T09:53:42Z</time>
      </trkpt>
      <trkpt lat="43.3011" lon="6.03902">
        <ele>443.40625</ele>
        <time>2019-11-09T09:53:53Z</time>
      </trkpt>
      <trkpt lat="43.30114" lon="6.03895">
        <ele>443.9140625</ele>
        <time>2019-11-09T09:53:55Z</time>
      </trkpt>
      <trkpt lat="43.3014" lon="6.03869">
        <ele>442.17578125</ele>
        <time>2019-11-09T09:54:06Z</time>
      </trkpt>
      <trkpt lat="43.30146" lon="6.03863">
        <ele>442.2890625</ele>
        <time>2019-11-09T09:54:09Z</time>
      </trkpt>
      <trkpt lat="43.30173" lon="6.0383">
        <ele>444.76171875</ele>
        <time>2019-11-09T09:54:18Z</time>
      </trkpt>
      <trkpt lat="43.3019" lon="6.03823">
        <ele>443.125</ele>
        <time>2019-11-09T09:54:25Z</time>
      </trkpt>
      <trkpt lat="43.30199" lon="6.03829">
        <ele>439.92578125</ele>
        <time>2019-11-09T09:54:29Z</time>
      </trkpt>
      <trkpt lat="43.30208" lon="6.03818">
        <ele>442.328125</ele>
        <time>2019-11-09T09:54:34Z</time>
      </trkpt>
      <trkpt lat="43.30228" lon="6.03798">
        <ele>445.26171875</ele>
        <time>2019-11-09T09:54:44Z</time>
      </trkpt>
      <trkpt lat="43.30236" lon="6.03791">
        <ele>444.765625</ele>
        <time>2019-11-09T09:54:49Z</time>
      </trkpt>
      <trkpt lat="43.30241" lon="6.03784">
        <ele>444.9375</ele>
        <time>2019-11-09T09:54:52Z</time>
      </trkpt>
      <trkpt lat="43.30246" lon="6.03772">
        <ele>445.6796875</ele>
        <time>2019-11-09T09:54:56Z</time>
      </trkpt>
      <trkpt lat="43.3026" lon="6.03743">
        <ele>445.2890625</ele>
        <time>2019-11-09T09:55:07Z</time>
      </trkpt>
      <trkpt lat="43.30264" lon="6.03738">
        <ele>444.6484375</ele>
        <time>2019-11-09T09:55:09Z</time>
      </trkpt>
      <trkpt lat="43.30271" lon="6.03727">
        <ele>443.77734375</ele>
        <time>2019-11-09T09:55:12Z</time>
      </trkpt>
      <trkpt lat="43.30288" lon="6.03717">
        <ele>439.734375</ele>
        <time>2019-11-09T09:55:17Z</time>
      </trkpt>
      <trkpt lat="43.30301" lon="6.037">
        <ele>436.61328125</ele>
        <time>2019-11-09T09:55:20Z</time>
      </trkpt>
      <trkpt lat="43.30305" lon="6.03693">
        <ele>435.921875</ele>
        <time>2019-11-09T09:55:21Z</time>
      </trkpt>
      <trkpt lat="43.30309" lon="6.0368">
        <ele>435.265625</ele>
        <time>2019-11-09T09:55:23Z</time>
      </trkpt>
      <trkpt lat="43.30317" lon="6.03651">
        <ele>433.2109375</ele>
        <time>2019-11-09T09:55:32Z</time>
      </trkpt>
      <trkpt lat="43.30322" lon="6.03608">
        <ele>432.0234375</ele>
        <time>2019-11-09T09:55:40Z</time>
      </trkpt>
      <trkpt lat="43.30322" lon="6.03603">
        <ele>432.0859375</ele>
        <time>2019-11-09T09:55:41Z</time>
      </trkpt>
      <trkpt lat="43.30336" lon="6.03612">
        <ele>427.3125</ele>
        <time>2019-11-09T09:55:48Z</time>
      </trkpt>
      <trkpt lat="43.30341" lon="6.03609">
        <ele>425.53125</ele>
        <time>2019-11-09T09:55:52Z</time>
      </trkpt>
      <trkpt lat="43.30343" lon="6.03598">
        <ele>424.81640625</ele>
        <time>2019-11-09T09:55:54Z</time>
      </trkpt>
      <trkpt lat="43.30347" lon="6.03577">
        <ele>423.40234375</ele>
        <time>2019-11-09T09:55:58Z</time>
      </trkpt>
      <trkpt lat="43.30347" lon="6.03545">
        <ele>421.46484375</ele>
        <time>2019-11-09T09:56:03Z</time>
      </trkpt>
      <trkpt lat="43.30344" lon="6.03533">
        <ele>421.37890625</ele>
        <time>2019-11-09T09:56:05Z</time>
      </trkpt>
      <trkpt lat="43.30341" lon="6.03514">
        <ele>420.4140625</ele>
        <time>2019-11-09T09:56:08Z</time>
      </trkpt>
      <trkpt lat="43.30341" lon="6.03503">
        <ele>419.1171875</ele>
        <time>2019-11-09T09:56:10Z</time>
      </trkpt>
      <trkpt lat="43.30343" lon="6.03491">
        <ele>416.56640625</ele>
        <time>2019-11-09T09:56:14Z</time>
      </trkpt>
      <trkpt lat="43.30349" lon="6.03491">
        <ele>414.609375</ele>
        <time>2019-11-09T09:56:16Z</time>
      </trkpt>
      <trkpt lat="43.30357" lon="6.03493">
        <ele>412.5</ele>
        <time>2019-11-09T09:56:18Z</time>
      </trkpt>
      <trkpt lat="43.30369" lon="6.03495">
        <ele>408.78515625</ele>
        <time>2019-11-09T09:56:21Z</time>
      </trkpt>
      <trkpt lat="43.30386" lon="6.03504">
        <ele>404.1796875</ele>
        <time>2019-11-09T09:56:25Z</time>
      </trkpt>
      <trkpt lat="43.3039" lon="6.03508">
        <ele>403.33984375</ele>
        <time>2019-11-09T09:56:26Z</time>
      </trkpt>
      <trkpt lat="43.30393" lon="6.03513">
        <ele>402.83984375</ele>
        <time>2019-11-09T09:56:28Z</time>
      </trkpt>
      <trkpt lat="43.30394" lon="6.03513">
        <ele>402.578125</ele>
        <time>2019-11-09T09:56:44Z</time>
      </trkpt>
      <trkpt lat="43.30395" lon="6.03513">
        <ele>402.34765625</ele>
        <time>2019-11-09T09:57:06Z</time>
      </trkpt>
      <trkpt lat="43.30394" lon="6.03513">
        <ele>402.59375</ele>
        <time>2019-11-09T09:57:31Z</time>
      </trkpt>
      <trkpt lat="43.30394" lon="6.03514">
        <ele>402.625</ele>
        <time>2019-11-09T09:57:55Z</time>
      </trkpt>
      <trkpt lat="43.30395" lon="6.03515">
        <ele>402.65625</ele>
        <time>2019-11-09T09:58:21Z</time>
      </trkpt>
      <trkpt lat="43.30394" lon="6.03515">
        <ele>402.68359375</ele>
        <time>2019-11-09T09:58:55Z</time>
      </trkpt>
      <trkpt lat="43.30395" lon="6.03515">
        <ele>402.59375</ele>
        <time>2019-11-09T09:59:25Z</time>
      </trkpt>
      <trkpt lat="43.30394" lon="6.03515">
        <ele>402.66015625</ele>
        <time>2019-11-09T09:59:57Z</time>
      </trkpt>
      <trkpt lat="43.30394" lon="6.03515">
        <ele>402.77734375</ele>
        <time>2019-11-09T10:00:26Z</time>
      </trkpt>
      <trkpt lat="43.30394" lon="6.03514">
        <ele>402.7734375</ele>
        <time>2019-11-09T10:00:53Z</time>
      </trkpt>
      <trkpt lat="43.30394" lon="6.03515">
        <ele>402.7421875</ele>
        <time>2019-11-09T10:01:20Z</time>
      </trkpt>
      <trkpt lat="43.304" lon="6.03524">
        <ele>401.7421875</ele>
        <time>2019-11-09T10:01:47Z</time>
      </trkpt>
      <trkpt lat="43.30415" lon="6.03541">
        <ele>397.6171875</ele>
        <time>2019-11-09T10:01:51Z</time>
      </trkpt>
      <trkpt lat="43.30422" lon="6.03553">
        <ele>395.68359375</ele>
        <time>2019-11-09T10:01:53Z</time>
      </trkpt>
      <trkpt lat="43.30429" lon="6.03567">
        <ele>393.765625</ele>
        <time>2019-11-09T10:01:56Z</time>
      </trkpt>
      <trkpt lat="43.30431" lon="6.03573">
        <ele>393.21484375</ele>
        <time>2019-11-09T10:01:57Z</time>
      </trkpt>
      <trkpt lat="43.30442" lon="6.036">
        <ele>389.8125</ele>
        <time>2019-11-09T10:02:03Z</time>
      </trkpt>
      <trkpt lat="43.30447" lon="6.03605">
        <ele>388.29296875</ele>
        <time>2019-11-09T10:02:05Z</time>
      </trkpt>
      <trkpt lat="43.30457" lon="6.03617">
        <ele>385.1484375</ele>
        <time>2019-11-09T10:02:09Z</time>
      </trkpt>
      <trkpt lat="43.30471" lon="6.03624">
        <ele>380.5</ele>
        <time>2019-11-09T10:02:14Z</time>
      </trkpt>
      <trkpt lat="43.30479" lon="6.03629">
        <ele>378.07421875</ele>
        <time>2019-11-09T10:02:18Z</time>
      </trkpt>
      <trkpt lat="43.30482" lon="6.03626">
        <ele>377.40625</ele>
        <time>2019-11-09T10:02:19Z</time>
      </trkpt>
      <trkpt lat="43.30492" lon="6.03623">
        <ele>374.6171875</ele>
        <time>2019-11-09T10:02:22Z</time>
      </trkpt>
      <trkpt lat="43.305" lon="6.03624">
        <ele>372.5390625</ele>
        <time>2019-11-09T10:02:24Z</time>
      </trkpt>
      <trkpt lat="43.30505" lon="6.03626">
        <ele>370.91796875</ele>
        <time>2019-11-09T10:02:26Z</time>
      </trkpt>
      <trkpt lat="43.30511" lon="6.03627">
        <ele>369.32421875</ele>
        <time>2019-11-09T10:02:28Z</time>
      </trkpt>
      <trkpt lat="43.30525" lon="6.03634">
        <ele>365.75</ele>
        <time>2019-11-09T10:02:32Z</time>
      </trkpt>
      <trkpt lat="43.30528" lon="6.03638">
        <ele>364.78515625</ele>
        <time>2019-11-09T10:02:33Z</time>
      </trkpt>
      <trkpt lat="43.30538" lon="6.03649">
        <ele>362.1171875</ele>
        <time>2019-11-09T10:02:36Z</time>
      </trkpt>
      <trkpt lat="43.30548" lon="6.03652">
        <ele>359.73828125</ele>
        <time>2019-11-09T10:02:40Z</time>
      </trkpt>
      <trkpt lat="43.30557" lon="6.03662">
        <ele>357.80078125</ele>
        <time>2019-11-09T10:02:43Z</time>
      </trkpt>
      <trkpt lat="43.30572" lon="6.03687">
        <ele>355.66796875</ele>
        <time>2019-11-09T10:02:47Z</time>
      </trkpt>
      <trkpt lat="43.30577" lon="6.03688">
        <ele>355.01953125</ele>
        <time>2019-11-09T10:02:49Z</time>
      </trkpt>
      <trkpt lat="43.30583" lon="6.03654">
        <ele>354.0390625</ele>
        <time>2019-11-09T10:02:55Z</time>
      </trkpt>
      <trkpt lat="43.30583" lon="6.03633">
        <ele>354.1328125</ele>
        <time>2019-11-09T10:02:58Z</time>
      </trkpt>
      <trkpt lat="43.30579" lon="6.03583">
        <ele>353.97265625</ele>
        <time>2019-11-09T10:03:05Z</time>
      </trkpt>
      <trkpt lat="43.30581" lon="6.03545">
        <ele>353.46484375</ele>
        <time>2019-11-09T10:03:12Z</time>
      </trkpt>
      <trkpt lat="43.30591" lon="6.03533">
        <ele>352.09765625</ele>
        <time>2019-11-09T10:03:15Z</time>
      </trkpt>
      <trkpt lat="43.30599" lon="6.03523">
        <ele>351.26953125</ele>
        <time>2019-11-09T10:03:17Z</time>
      </trkpt>
      <trkpt lat="43.30603" lon="6.03522">
        <ele>350.91015625</ele>
        <time>2019-11-09T10:03:18Z</time>
      </trkpt>
      <trkpt lat="43.30604" lon="6.03522">
        <ele>350.76171875</ele>
        <time>2019-11-09T10:03:31Z</time>
      </trkpt>
      <trkpt lat="43.30604" lon="6.03521">
        <ele>350.859375</ele>
        <time>2019-11-09T10:04:04Z</time>
      </trkpt>
      <trkpt lat="43.30605" lon="6.03522">
        <ele>350.66796875</ele>
        <time>2019-11-09T10:04:37Z</time>
      </trkpt>
      <trkpt lat="43.30604" lon="6.03521">
        <ele>350.74609375</ele>
        <time>2019-11-09T10:05:08Z</time>
      </trkpt>
      <trkpt lat="43.30605" lon="6.03522">
        <ele>350.671875</ele>
        <time>2019-11-09T10:05:31Z</time>
      </trkpt>
      <trkpt lat="43.30605" lon="6.03523">
        <ele>350.65234375</ele>
        <time>2019-11-09T10:05:52Z</time>
      </trkpt>
      <trkpt lat="43.30605" lon="6.03522">
        <ele>350.71484375</ele>
        <time>2019-11-09T10:06:12Z</time>
      </trkpt>
      <trkpt lat="43.30605" lon="6.03522">
        <ele>350.71875</ele>
        <time>2019-11-09T10:06:33Z</time>
      </trkpt>
      <trkpt lat="43.3061" lon="6.03523">
        <ele>350.07421875</ele>
        <time>2019-11-09T10:06:53Z</time>
      </trkpt>
      <trkpt lat="43.30613" lon="6.03522">
        <ele>349.8359375</ele>
        <time>2019-11-09T10:06:54Z</time>
      </trkpt>
      <trkpt lat="43.30628" lon="6.03543">
        <ele>348.484375</ele>
        <time>2019-11-09T10:07:00Z</time>
      </trkpt>
      <trkpt lat="43.30651" lon="6.03529">
        <ele>347.421875</ele>
        <time>2019-11-09T10:07:07Z</time>
      </trkpt>
      <trkpt lat="43.30659" lon="6.03544">
        <ele>347.7578125</ele>
        <time>2019-11-09T10:07:13Z</time>
      </trkpt>
      <trkpt lat="43.30658" lon="6.03554">
        <ele>348.12109375</ele>
        <time>2019-11-09T10:07:22Z</time>
      </trkpt>
      <trkpt lat="43.30655" lon="6.03562">
        <ele>348.28515625</ele>
        <time>2019-11-09T10:07:34Z</time>
      </trkpt>
      <trkpt lat="43.3065" lon="6.03578">
        <ele>348.44921875</ele>
        <time>2019-11-09T10:07:43Z</time>
      </trkpt>
      <trkpt lat="43.30651" lon="6.03573">
        <ele>348.37890625</ele>
        <time>2019-11-09T10:08:00Z</time>
      </trkpt>
      <trkpt lat="43.30651" lon="6.03572">
        <ele>348.36328125</ele>
        <time>2019-11-09T10:08:01Z</time>
      </trkpt>
      <trkpt lat="43.30655" lon="6.03561">
        <ele>348.23828125</ele>
        <time>2019-11-09T10:08:06Z</time>
      </trkpt>
      <trkpt lat="43.30688" lon="6.03541">
        <ele>349.68359375</ele>
        <time>2019-11-09T10:08:15Z</time>
      </trkpt>
      <trkpt lat="43.30693" lon="6.03543">
        <ele>350.46484375</ele>
        <time>2019-11-09T10:08:16Z</time>
      </trkpt>
      <trkpt lat="43.30698" lon="6.03547">
        <ele>351.23046875</ele>
        <time>2019-11-09T10:08:17Z</time>
      </trkpt>
      <trkpt lat="43.30703" lon="6.03549">
        <ele>351.88671875</ele>
        <time>2019-11-09T10:08:18Z</time>
      </trkpt>
      <trkpt lat="43.30707" lon="6.0355">
        <ele>352.41015625</ele>
        <time>2019-11-09T10:08:19Z</time>
      </trkpt>
      <trkpt lat="43.3071" lon="6.0355">
        <ele>352.75390625</ele>
        <time>2019-11-09T10:08:20Z</time>
      </trkpt>
      <trkpt lat="43.30712" lon="6.03549">
        <ele>352.859375</ele>
        <time>2019-11-09T10:08:21Z</time>
      </trkpt>
      <trkpt lat="43.30713" lon="6.03548">
        <ele>352.8515625</ele>
        <time>2019-11-09T10:08:22Z</time>
      </trkpt>
      <trkpt lat="43.30713" lon="6.03546">
        <ele>352.8046875</ele>
        <time>2019-11-09T10:08:23Z</time>
      </trkpt>
      <trkpt lat="43.30714" lon="6.03545">
        <ele>352.734375</ele>
        <time>2019-11-09T10:08:24Z</time>
      </trkpt>
      <trkpt lat="43.30714" lon="6.03542">
        <ele>352.54296875</ele>
        <time>2019-11-09T10:08:25Z</time>
      </trkpt>
      <trkpt lat="43.30713" lon="6.03537">
        <ele>352.13671875</ele>
        <time>2019-11-09T10:08:26Z</time>
      </trkpt>
      <trkpt lat="43.30712" lon="6.03531">
        <ele>351.63671875</ele>
        <time>2019-11-09T10:08:27Z</time>
      </trkpt>
      <trkpt lat="43.30713" lon="6.03526">
        <ele>351.3515625</ele>
        <time>2019-11-09T10:08:28Z</time>
      </trkpt>
      <trkpt lat="43.30716" lon="6.0352">
        <ele>351.14453125</ele>
        <time>2019-11-09T10:08:29Z</time>
      </trkpt>
      <trkpt lat="43.30718" lon="6.03514">
        <ele>350.51171875</ele>
        <time>2019-11-09T10:08:30Z</time>
      </trkpt>
      <trkpt lat="43.3072" lon="6.03507">
        <ele>349.7890625</ele>
        <time>2019-11-09T10:08:31Z</time>
      </trkpt>
      <trkpt lat="43.30724" lon="6.035">
        <ele>349.10546875</ele>
        <time>2019-11-09T10:08:32Z</time>
      </trkpt>
      <trkpt lat="43.30729" lon="6.03495">
        <ele>348.40625</ele>
        <time>2019-11-09T10:08:33Z</time>
      </trkpt>
      <trkpt lat="43.30733" lon="6.03488">
        <ele>347.671875</ele>
        <time>2019-11-09T10:08:34Z</time>
      </trkpt>
      <trkpt lat="43.30748" lon="6.03467">
        <ele>345.15234375</ele>
        <time>2019-11-09T10:08:37Z</time>
      </trkpt>
      <trkpt lat="43.30752" lon="6.03461">
        <ele>344.6875</ele>
        <time>2019-11-09T10:08:38Z</time>
      </trkpt>
      <trkpt lat="43.30757" lon="6.03458">
        <ele>344.26171875</ele>
        <time>2019-11-09T10:08:39Z</time>
      </trkpt>
      <trkpt lat="43.30761" lon="6.03456">
        <ele>343.8828125</ele>
        <time>2019-11-09T10:08:40Z</time>
      </trkpt>
      <trkpt lat="43.30765" lon="6.03454">
        <ele>343.515625</ele>
        <time>2019-11-09T10:08:41Z</time>
      </trkpt>
      <trkpt lat="43.30774" lon="6.0345">
        <ele>342.7578125</ele>
        <time>2019-11-09T10:08:43Z</time>
      </trkpt>
      <trkpt lat="43.30778" lon="6.03448">
        <ele>342.3515625</ele>
        <time>2019-11-09T10:08:44Z</time>
      </trkpt>
      <trkpt lat="43.30783" lon="6.03445">
        <ele>341.83984375</ele>
        <time>2019-11-09T10:08:45Z</time>
      </trkpt>
      <trkpt lat="43.30788" lon="6.03444">
        <ele>341.37109375</ele>
        <time>2019-11-09T10:08:46Z</time>
      </trkpt>
      <trkpt lat="43.30793" lon="6.03443">
        <ele>340.92578125</ele>
        <time>2019-11-09T10:08:47Z</time>
      </trkpt>
      <trkpt lat="43.30804" lon="6.03441">
        <ele>340.0078125</ele>
        <time>2019-11-09T10:08:49Z</time>
      </trkpt>
      <trkpt lat="43.30811" lon="6.03441">
        <ele>339.46484375</ele>
        <time>2019-11-09T10:08:50Z</time>
      </trkpt>
      <trkpt lat="43.30817" lon="6.03444">
        <ele>338.796875</ele>
        <time>2019-11-09T10:08:51Z</time>
      </trkpt>
      <trkpt lat="43.30836" lon="6.03449">
        <ele>336.55859375</ele>
        <time>2019-11-09T10:08:54Z</time>
      </trkpt>
      <trkpt lat="43.30849" lon="6.03452">
        <ele>334.80859375</ele>
        <time>2019-11-09T10:08:56Z</time>
      </trkpt>
      <trkpt lat="43.30854" lon="6.03456">
        <ele>333.7890625</ele>
        <time>2019-11-09T10:08:57Z</time>
      </trkpt>
      <trkpt lat="43.30867" lon="6.03464">
        <ele>331.55859375</ele>
        <time>2019-11-09T10:08:59Z</time>
      </trkpt>
      <trkpt lat="43.30891" lon="6.03478">
        <ele>329.23046875</ele>
        <time>2019-11-09T10:09:03Z</time>
      </trkpt>
      <trkpt lat="43.30899" lon="6.03481">
        <ele>328.3125</ele>
        <time>2019-11-09T10:09:04Z</time>
      </trkpt>
      <trkpt lat="43.30916" lon="6.03484">
        <ele>326.1484375</ele>
        <time>2019-11-09T10:09:06Z</time>
      </trkpt>
      <trkpt lat="43.30923" lon="6.03485">
        <ele>325.4609375</ele>
        <time>2019-11-09T10:09:07Z</time>
      </trkpt>
      <trkpt lat="43.3093" lon="6.03485">
        <ele>324.92578125</ele>
        <time>2019-11-09T10:09:08Z</time>
      </trkpt>
      <trkpt lat="43.30941" lon="6.03487">
        <ele>324.0703125</ele>
        <time>2019-11-09T10:09:10Z</time>
      </trkpt>
      <trkpt lat="43.3095" lon="6.03486">
        <ele>323.40625</ele>
        <time>2019-11-09T10:09:17Z</time>
      </trkpt>
      <trkpt lat="43.30952" lon="6.03486">
        <ele>323.28515625</ele>
        <time>2019-11-09T10:09:42Z</time>
      </trkpt>
      <trkpt lat="43.3095" lon="6.03485">
        <ele>323.3515625</ele>
        <time>2019-11-09T10:10:23Z</time>
      </trkpt>
      <trkpt lat="43.30953" lon="6.03482">
        <ele>323.1328125</ele>
        <time>2019-11-09T10:10:42Z</time>
      </trkpt>
      <trkpt lat="43.30954" lon="6.0348">
        <ele>323.0234375</ele>
        <time>2019-11-09T10:10:43Z</time>
      </trkpt>
      <trkpt lat="43.30954" lon="6.03478">
        <ele>322.94140625</ele>
        <time>2019-11-09T10:10:44Z</time>
      </trkpt>
      <trkpt lat="43.30954" lon="6.03475">
        <ele>322.8828125</ele>
        <time>2019-11-09T10:10:45Z</time>
      </trkpt>
      <trkpt lat="43.30953" lon="6.03472">
        <ele>322.83984375</ele>
        <time>2019-11-09T10:10:46Z</time>
      </trkpt>
      <trkpt lat="43.30953" lon="6.03428">
        <ele>323.390625</ele>
        <time>2019-11-09T10:10:56Z</time>
      </trkpt>
      <trkpt lat="43.30961" lon="6.0339">
        <ele>323.5703125</ele>
        <time>2019-11-09T10:11:03Z</time>
      </trkpt>
      <trkpt lat="43.30962" lon="6.03383">
        <ele>323.68359375</ele>
        <time>2019-11-09T10:11:04Z</time>
      </trkpt>
      <trkpt lat="43.30964" lon="6.03377">
        <ele>323.66015625</ele>
        <time>2019-11-09T10:11:05Z</time>
      </trkpt>
      <trkpt lat="43.30979" lon="6.03277">
        <ele>325.09765625</ele>
        <time>2019-11-09T10:11:19Z</time>
      </trkpt>
      <trkpt lat="43.30992" lon="6.0316">
        <ele>328.13671875</ele>
        <time>2019-11-09T10:11:34Z</time>
      </trkpt>
      <trkpt lat="43.30999" lon="6.03102">
        <ele>329.2734375</ele>
        <time>2019-11-09T10:11:43Z</time>
      </trkpt>
      <trkpt lat="43.31" lon="6.03096">
        <ele>329.0859375</ele>
        <time>2019-11-09T10:11:44Z</time>
      </trkpt>
      <trkpt lat="43.31004" lon="6.03032">
        <ele>330.22265625</ele>
        <time>2019-11-09T10:11:54Z</time>
      </trkpt>
      <trkpt lat="43.31002" lon="6.03003">
        <ele>330.83984375</ele>
        <time>2019-11-09T10:11:59Z</time>
      </trkpt>
      <trkpt lat="43.31004" lon="6.02929">
        <ele>331.61328125</ele>
        <time>2019-11-09T10:12:10Z</time>
      </trkpt>
      <trkpt lat="43.31007" lon="6.02922">
        <ele>331.390625</ele>
        <time>2019-11-09T10:12:11Z</time>
      </trkpt>
      <trkpt lat="43.31011" lon="6.02916">
        <ele>331.15625</ele>
        <time>2019-11-09T10:12:12Z</time>
      </trkpt>
      <trkpt lat="43.31019" lon="6.02902">
        <ele>330.64453125</ele>
        <time>2019-11-09T10:12:16Z</time>
      </trkpt>
      <trkpt lat="43.31018" lon="6.029">
        <ele>330.7265625</ele>
        <time>2019-11-09T10:12:17Z</time>
      </trkpt>
      <trkpt lat="43.31015" lon="6.02895">
        <ele>330.890625</ele>
        <time>2019-11-09T10:12:19Z</time>
      </trkpt>
      <trkpt lat="43.31016" lon="6.02891">
        <ele>330.8515625</ele>
        <time>2019-11-09T10:12:20Z</time>
      </trkpt>
      <trkpt lat="43.31017" lon="6.02887">
        <ele>330.75</ele>
        <time>2019-11-09T10:12:21Z</time>
      </trkpt>
      <trkpt lat="43.31023" lon="6.02872">
        <ele>330.63671875</ele>
        <time>2019-11-09T10:12:24Z</time>
      </trkpt>
      <trkpt lat="43.31048" lon="6.0282">
        <ele>332.328125</ele>
        <time>2019-11-09T10:12:36Z</time>
      </trkpt>
      <trkpt lat="43.31069" lon="6.02759">
        <ele>333.96875</ele>
        <time>2019-11-09T10:12:51Z</time>
      </trkpt>
      <trkpt lat="43.31091" lon="6.02676">
        <ele>335.265625</ele>
        <time>2019-11-09T10:13:08Z</time>
      </trkpt>
      <trkpt lat="43.31098" lon="6.02606">
        <ele>336.5234375</ele>
        <time>2019-11-09T10:13:22Z</time>
      </trkpt>
      <trkpt lat="43.31094" lon="6.02574">
        <ele>335.68359375</ele>
        <time>2019-11-09T10:13:28Z</time>
      </trkpt>
      <trkpt lat="43.31093" lon="6.02569">
        <ele>335.484375</ele>
        <time>2019-11-09T10:13:29Z</time>
      </trkpt>
      <trkpt lat="43.31092" lon="6.02563">
        <ele>335.2734375</ele>
        <time>2019-11-09T10:13:30Z</time>
      </trkpt>
      <trkpt lat="43.31083" lon="6.02496">
        <ele>333.0390625</ele>
        <time>2019-11-09T10:13:43Z</time>
      </trkpt>
      <trkpt lat="43.31077" lon="6.02416">
        <ele>330.94140625</ele>
        <time>2019-11-09T10:13:59Z</time>
      </trkpt>
      <trkpt lat="43.31069" lon="6.02326">
        <ele>329.44140625</ele>
        <time>2019-11-09T10:14:15Z</time>
      </trkpt>
      <trkpt lat="43.31064" lon="6.02283">
        <ele>328.80859375</ele>
        <time>2019-11-09T10:14:22Z</time>
      </trkpt>
      <trkpt lat="43.31062" lon="6.02265">
        <ele>328.734375</ele>
        <time>2019-11-09T10:14:25Z</time>
      </trkpt>
      <trkpt lat="43.31062" lon="6.02259">
        <ele>328.6796875</ele>
        <time>2019-11-09T10:14:26Z</time>
      </trkpt>
      <trkpt lat="43.31062" lon="6.02252">
        <ele>328.625</ele>
        <time>2019-11-09T10:14:27Z</time>
      </trkpt>
      <trkpt lat="43.31061" lon="6.02245">
        <ele>328.625</ele>
        <time>2019-11-09T10:14:28Z</time>
      </trkpt>
      <trkpt lat="43.3106" lon="6.02238">
        <ele>328.48046875</ele>
        <time>2019-11-09T10:14:29Z</time>
      </trkpt>
      <trkpt lat="43.31059" lon="6.0223">
        <ele>328.27734375</ele>
        <time>2019-11-09T10:14:30Z</time>
      </trkpt>
      <trkpt lat="43.31056" lon="6.022">
        <ele>327.984375</ele>
        <time>2019-11-09T10:14:34Z</time>
      </trkpt>
      <trkpt lat="43.3105" lon="6.02166">
        <ele>327.34375</ele>
        <time>2019-11-09T10:14:39Z</time>
      </trkpt>
      <trkpt lat="43.31044" lon="6.02085">
        <ele>327</ele>
        <time>2019-11-09T10:14:51Z</time>
      </trkpt>
      <trkpt lat="43.31044" lon="6.02078">
        <ele>327</ele>
        <time>2019-11-09T10:14:52Z</time>
      </trkpt>
      <trkpt lat="43.31033" lon="6.02009">
        <ele>327.8125</ele>
        <time>2019-11-09T10:15:02Z</time>
      </trkpt>
      <trkpt lat="43.31032" lon="6.02003">
        <ele>327.8515625</ele>
        <time>2019-11-09T10:15:03Z</time>
      </trkpt>
      <trkpt lat="43.31002" lon="6.01911">
        <ele>327.93359375</ele>
        <time>2019-11-09T10:15:17Z</time>
      </trkpt>
      <trkpt lat="43.30993" lon="6.0188">
        <ele>328.015625</ele>
        <time>2019-11-09T10:15:22Z</time>
      </trkpt>
      <trkpt lat="43.30992" lon="6.01874">
        <ele>328.12890625</ele>
        <time>2019-11-09T10:15:23Z</time>
      </trkpt>
      <trkpt lat="43.30992" lon="6.01868">
        <ele>328.22265625</ele>
        <time>2019-11-09T10:15:24Z</time>
      </trkpt>
      <trkpt lat="43.30991" lon="6.01862">
        <ele>328.30859375</ele>
        <time>2019-11-09T10:15:25Z</time>
      </trkpt>
      <trkpt lat="43.30991" lon="6.01857">
        <ele>328.37109375</ele>
        <time>2019-11-09T10:15:26Z</time>
      </trkpt>
      <trkpt lat="43.3099" lon="6.01851">
        <ele>328.41796875</ele>
        <time>2019-11-09T10:15:27Z</time>
      </trkpt>
      <trkpt lat="43.30993" lon="6.0178">
        <ele>328.6015625</ele>
        <time>2019-11-09T10:15:38Z</time>
      </trkpt>
      <trkpt lat="43.30993" lon="6.01744">
        <ele>327.984375</ele>
        <time>2019-11-09T10:15:44Z</time>
      </trkpt>
      <trkpt lat="43.30993" lon="6.01738">
        <ele>328.0234375</ele>
        <time>2019-11-09T10:15:45Z</time>
      </trkpt>
      <trkpt lat="43.30993" lon="6.01721">
        <ele>328.0234375</ele>
        <time>2019-11-09T10:15:48Z</time>
      </trkpt>
      <trkpt lat="43.30993" lon="6.01715">
        <ele>327.9921875</ele>
        <time>2019-11-09T10:15:49Z</time>
      </trkpt>
      <trkpt lat="43.30992" lon="6.01703">
        <ele>327.62890625</ele>
        <time>2019-11-09T10:15:51Z</time>
      </trkpt>
      <trkpt lat="43.30989" lon="6.01679">
        <ele>327.4375</ele>
        <time>2019-11-09T10:15:55Z</time>
      </trkpt>
      <trkpt lat="43.30979" lon="6.01643">
        <ele>327.625</ele>
        <time>2019-11-09T10:16:01Z</time>
      </trkpt>
      <trkpt lat="43.30976" lon="6.01638">
        <ele>327.703125</ele>
        <time>2019-11-09T10:16:02Z</time>
      </trkpt>
      <trkpt lat="43.30974" lon="6.01632">
        <ele>327.828125</ele>
        <time>2019-11-09T10:16:03Z</time>
      </trkpt>
      <trkpt lat="43.30963" lon="6.01618">
        <ele>328.56640625</ele>
        <time>2019-11-09T10:16:06Z</time>
      </trkpt>
      <trkpt lat="43.30959" lon="6.01614">
        <ele>328.83984375</ele>
        <time>2019-11-09T10:16:07Z</time>
      </trkpt>
      <trkpt lat="43.30956" lon="6.01611">
        <ele>329.1015625</ele>
        <time>2019-11-09T10:16:08Z</time>
      </trkpt>
      <trkpt lat="43.30943" lon="6.01602">
        <ele>330.05078125</ele>
        <time>2019-11-09T10:16:11Z</time>
      </trkpt>
      <trkpt lat="43.30929" lon="6.01595">
        <ele>331.34375</ele>
        <time>2019-11-09T10:16:14Z</time>
      </trkpt>
      <trkpt lat="43.30925" lon="6.01589">
        <ele>331.359375</ele>
        <time>2019-11-09T10:16:15Z</time>
      </trkpt>
      <trkpt lat="43.30923" lon="6.01583">
        <ele>331.0078125</ele>
        <time>2019-11-09T10:16:16Z</time>
      </trkpt>
      <trkpt lat="43.30923" lon="6.01576">
        <ele>330.6015625</ele>
        <time>2019-11-09T10:16:17Z</time>
      </trkpt>
      <trkpt lat="43.30925" lon="6.01571">
        <ele>330.6328125</ele>
        <time>2019-11-09T10:16:18Z</time>
      </trkpt>
      <trkpt lat="43.30927" lon="6.01566">
        <ele>330.5234375</ele>
        <time>2019-11-09T10:16:19Z</time>
      </trkpt>
      <trkpt lat="43.3093" lon="6.01563">
        <ele>330.33203125</ele>
        <time>2019-11-09T10:16:20Z</time>
      </trkpt>
      <trkpt lat="43.30933" lon="6.0156">
        <ele>330.0859375</ele>
        <time>2019-11-09T10:16:21Z</time>
      </trkpt>
      <trkpt lat="43.30936" lon="6.01557">
        <ele>329.83984375</ele>
        <time>2019-11-09T10:16:22Z</time>
      </trkpt>
      <trkpt lat="43.30969" lon="6.01529">
        <ele>327.9765625</ele>
        <time>2019-11-09T10:16:32Z</time>
      </trkpt>
      <trkpt lat="43.30972" lon="6.01524">
        <ele>327.953125</ele>
        <time>2019-11-09T10:16:33Z</time>
      </trkpt>
      <trkpt lat="43.30974" lon="6.01519">
        <ele>327.984375</ele>
        <time>2019-11-09T10:16:34Z</time>
      </trkpt>
      <trkpt lat="43.30976" lon="6.01514">
        <ele>328.05078125</ele>
        <time>2019-11-09T10:16:35Z</time>
      </trkpt>
      <trkpt lat="43.30977" lon="6.01508">
        <ele>328.16796875</ele>
        <time>2019-11-09T10:16:36Z</time>
      </trkpt>
      <trkpt lat="43.30978" lon="6.01502">
        <ele>328.328125</ele>
        <time>2019-11-09T10:16:37Z</time>
      </trkpt>
      <trkpt lat="43.30978" lon="6.01496">
        <ele>328.51953125</ele>
        <time>2019-11-09T10:16:38Z</time>
      </trkpt>
      <trkpt lat="43.3097" lon="6.01436">
        <ele>331.28515625</ele>
        <time>2019-11-09T10:16:51Z</time>
      </trkpt>
      <trkpt lat="43.30962" lon="6.01382">
        <ele>333.35546875</ele>
        <time>2019-11-09T10:17:05Z</time>
      </trkpt>
      <trkpt lat="43.30951" lon="6.01333">
        <ele>333.95703125</ele>
        <time>2019-11-09T10:17:17Z</time>
      </trkpt>
      <trkpt lat="43.30947" lon="6.01306">
        <ele>334</ele>
        <time>2019-11-09T10:17:24Z</time>
      </trkpt>
      <trkpt lat="43.30939" lon="6.01307">
        <ele>334</ele>
        <time>2019-11-09T10:17:32Z</time>
      </trkpt>
      <trkpt lat="43.3094" lon="6.01308">
        <ele>334</ele>
        <time>2019-11-09T10:17:43Z</time>
      </trkpt>
      <trkpt lat="43.30938" lon="6.01309">
        <ele>334</ele>
        <time>2019-11-09T10:18:10Z</time>
      </trkpt>
      <trkpt lat="43.30939" lon="6.01307">
        <ele>334</ele>
        <time>2019-11-09T10:18:51Z</time>
      </trkpt>
      <trkpt lat="43.3094" lon="6.01307">
        <ele>334</ele>
        <time>2019-11-09T10:19:33Z</time>
      </trkpt>
      <trkpt lat="43.30939" lon="6.01304">
        <ele>334</ele>
        <time>2019-11-09T10:20:22Z</time>
      </trkpt>
      <trkpt lat="43.30939" lon="6.01304">
        <ele>334</ele>
        <time>2019-11-09T10:20:58Z</time>
      </trkpt>
    </trkseg>
  </trk>
</gpx>